LiveATC.Net - Listen to live air traffic control over the Internet!
Airport/ARTCC Code
Frequency Search
(e.g., 124.400, 128.75)
Site-wide search
 


Browse Feeds
Top 50 Feeds
HF Oceanic Feeds
Coverage Map
Bad Weather Areas

LiveATC FAQ
Offer LiveATC feed
Contact LiveATC.net
Press Inquiries

LiveATC on iPhone
LiveATC on Android

Windows Phone
Windows 8/10

LiveATC Mobile
(Mobile browser)

ATC Audio Archives
Interesting Recordings

LiveATC Forums

Home Page
About LiveATC.net
Make a Donation
Terms of Use
Privacy Policy

Canadian Air Freqs

AIRMETs/SIGMETs

FAA Airport Status
NAS Status
Arrival Demand


Server Software By:
Icecast.org
Liquidsoap

Select an area of interest:
U.S. Feeds: Class B Airports | Class C Airports | Class D/Other Airports | ARTCC (Centers)
International Feeds: Canada | Europe | Oceania | Asia | South America | North/Central America | Africa
Misc Feeds: HF Feeds
Search by ICAO/IATA airport code:   (e.g., kbos, kjfk, lax, eham, etc.)


Currently Available Live Feeds: 2970
Status Updated: Sun Oct 24 2021 16:45:21 UTC


NOTICE

Unauthorized use prohibited. See LiveATC.net Terms of Service

International Airport Feeds

 

EFJY Tower (Archives)
Jyvaskyla, Finland

Feed Status: UP
Listen in your browser - HTML5 player(in browser, HTML5)
Click here to listen with your own player(launches your MP3 player)

EFJY 241620Z AUTO 16008KT 9999 OVC009 00/M01 Q1018

EFJY Flight Activity (Flightaware)

Listeners: 0 out of 1424 total

Jyvaskyla Tower: 118.000
Jyvaskyla Tower: 119.700

EFKU Tower/Approach (Archives)
Siilinjarvi, Finland

Feed Status: UP
Listen in your browser - HTML5 player(in browser, HTML5)
Click here to listen with your own player(launches your MP3 player)

EFKU 241620Z AUTO 20008KT 9999 OVC031 01/M04 Q1020

EFKU Flight Activity (Flightaware)

Listeners: 2 out of 1424 total

Kuopio Approach: 130.600
Kuopio Tower: 120.150

Dutch Mil Radar (Archives)
Amsterdam, Netherlands

Feed Status: UP
Listen in your browser - HTML5 player(in browser, HTML5)
Click here to listen with your own player(launches your MP3 player)

EHLE 241625Z AUTO 14006KT 9999 NCD 08/06 Q1019 NOSIG

EHLE Flight Activity (Flightaware)

Listeners: 1 out of 1424 total

Approach: 124.530
Dutch Mil Flight Info: 264.325
Dutch Mil Radar: 128.355
Dutch Mil Radar: 132.350

EHAA Radar ARTIP (Archives)
Amsterdam, Netherlands

Feed Status: UP
Listen in your browser - HTML5 player(in browser, HTML5)
Click here to listen with your own player(launches your MP3 player)

EHAM 241625Z 14007KT CAVOK 09/06 Q1019 NOSIG

EHAM Flight Activity (Flightaware)

Listeners: 0 out of 1424 total

EHAA Radar Sector 1 ARTIP: 120.550

EHAA Radar East Inbound (Archives)
Amsterdam, Netherlands

Feed Status: UP
Listen in your browser - HTML5 player(in browser, HTML5)
Click here to listen with your own player(launches your MP3 player)

EHAM 241625Z 14007KT CAVOK 09/06 Q1019 NOSIG

EHAM Flight Activity (Flightaware)

Listeners: 1 out of 1424 total

EHAA Radar Sector 2 East Inbound: 128.575

EHAA Radar East Outbound (Archives)
Amsterdam, Netherlands

Feed Status: UP
Listen in your browser - HTML5 player(in browser, HTML5)
Click here to listen with your own player(launches your MP3 player)

EHAM 241625Z 14007KT CAVOK 09/06 Q1019 NOSIG

EHAM Flight Activity (Flightaware)

Listeners: 1 out of 1424 total

EHAA Radar Sector 2 East Outbound: 124.875

EHAA Radar North (Archives)
Amsterdam, Netherlands

Feed Status: UP
Listen in your browser - HTML5 player(in browser, HTML5)
Click here to listen with your own player(launches your MP3 player)

EHAM 241625Z 14007KT CAVOK 09/06 Q1019 NOSIG

EHAM Flight Activity (Flightaware)

Listeners: 0 out of 1424 total

EHAA Radar Sector 1 North: 134.375

EHAA Radar Northwest (Archives)
Amsterdam, Netherlands

Feed Status: UP
Listen in your browser - HTML5 player(in browser, HTML5)
Click here to listen with your own player(launches your MP3 player)

EHAM 241625Z 14007KT CAVOK 09/06 Q1019 NOSIG

EHAM Flight Activity (Flightaware)

Listeners: 0 out of 1424 total

EHAA Radar Sector 5 Northwest: 123.7000

EHAA Radar RIVER (Archives)
Amsterdam, Netherlands

Feed Status: UP
Listen in your browser - HTML5 player(in browser, HTML5)
Click here to listen with your own player(launches your MP3 player)

EHAM 241625Z 14007KT CAVOK 09/06 Q1019 NOSIG

EHAM Flight Activity (Flightaware)

Listeners: 0 out of 1424 total

EHAA Radar Sector 3 RIVER: 130.950

EHAA Radar South (Archives)
Amsterdam, Netherlands

Feed Status: UP
Listen in your browser - HTML5 player(in browser, HTML5)
Click here to listen with your own player(launches your MP3 player)

EHAM 241625Z 14007KT CAVOK 09/06 Q1019 NOSIG

EHAM Flight Activity (Flightaware)

Listeners: 0 out of 1424 total

EHAA Radar Sector 3 South: 123.850

EHAA Radar South (Backup) (Archives)
Amsterdam, Netherlands

Feed Status: UP
Listen in your browser - HTML5 player(in browser, HTML5)
Click here to listen with your own player(launches your MP3 player)

EHAM 241625Z 14007KT CAVOK 09/06 Q1019 NOSIG

EHAM Flight Activity (Flightaware)

Listeners: 0 out of 1424 total

EHAA Radar Sector 3 South Backup : 127.775

EHAA Radar Southwest (Archives)
Amsterdam, Netherlands

Feed Status: UP
Listen in your browser - HTML5 player(in browser, HTML5)
Click here to listen with your own player(launches your MP3 player)

EHAM 241625Z 14007KT CAVOK 09/06 Q1019 NOSIG

EHAM Flight Activity (Flightaware)

Listeners: 0 out of 1424 total

EHAA Radar Sector 4 Southwest: 125.750

EHAA Radar SUGOL (Archives)
Amsterdam, Netherlands

Feed Status: UP
Listen in your browser - HTML5 player(in browser, HTML5)
Click here to listen with your own player(launches your MP3 player)

EHAM 241625Z 14007KT CAVOK 09/06 Q1019 NOSIG

EHAM Flight Activity (Flightaware)

Listeners: 0 out of 1424 total

EHAA Radar Sector 5 SUGOL: 118.800

EHAM Airside Ops Mgr (AOM) (Archives)
Amsterdam, Netherlands

Feed Status: UP
Listen in your browser - HTML5 player(in browser, HTML5)
Click here to listen with your own player(launches your MP3 player)

EHAM 241625Z 14007KT CAVOK 09/06 Q1019 NOSIG

EHAM Flight Activity (Flightaware)

Listeners: 0 out of 1424 total

Schiphol Airside Operations Manager: 130.475

EHAM App/Dep Backup (Archives)
Amsterdam, Netherlands

Feed Status: UP
Listen in your browser - HTML5 player(in browser, HTML5)
Click here to listen with your own player(launches your MP3 player)

EHAM 241625Z 14007KT CAVOK 09/06 Q1019 NOSIG

EHAM Flight Activity (Flightaware)

Listeners: 0 out of 1424 total

Schiphol App/Dep Backup: 118.075

EHAM App/Dep TMA East (Archives)
Amsterdam, Netherlands

Feed Status: UP
Listen in your browser - HTML5 player(in browser, HTML5)
Click here to listen with your own player(launches your MP3 player)

EHAM 241625Z 14007KT CAVOK 09/06 Q1019 NOSIG

EHAM Flight Activity (Flightaware)

Listeners: 0 out of 1424 total

Amsterdam Approach/Departure TMA East: 119.055

EHAM App/Dep TMA West (Archives)
Amsterdam, Netherlands

Feed Status: UP
Listen in your browser - HTML5 player(in browser, HTML5)
Click here to listen with your own player(launches your MP3 player)

EHAM 241625Z 14007KT CAVOK 09/06 Q1019 NOSIG

EHAM Flight Activity (Flightaware)

Listeners: 0 out of 1424 total

Amsterdam Approach/Departure TMA West: 121.200

EHAM Apron (North) (Archives)
Amsterdam, Netherlands

Feed Status: UP
Listen in your browser - HTML5 player(in browser, HTML5)
Click here to listen with your own player(launches your MP3 player)

EHAM 241625Z 14007KT CAVOK 09/06 Q1019 NOSIG

EHAM Flight Activity (Flightaware)

Listeners: 0 out of 1424 total

Schiphol Apron (North): 121.880

EHAM Apron (South) (Archives)
Amsterdam, Netherlands

Feed Status: UP
Listen in your browser - HTML5 player(in browser, HTML5)
Click here to listen with your own player(launches your MP3 player)

EHAM 241625Z 14007KT CAVOK 09/06 Q1019 NOSIG

EHAM Flight Activity (Flightaware)

Listeners: 0 out of 1424 total

Schiphol Apron (South): 121.780

EHAM Arrival (Primary) (Archives)
Amsterdam, Netherlands

Feed Status: UP
Listen in your browser - HTML5 player(in browser, HTML5)
Click here to listen with your own player(launches your MP3 player)

EHAM 241625Z 14007KT CAVOK 09/06 Q1019 NOSIG

EHAM Flight Activity (Flightaware)

Listeners: 0 out of 1424 total

Amsterdam Arrival : 118.400

EHAM Arrival (Secondary) (Archives)
Amsterdam, Netherlands

Feed Status: UP
Listen in your browser - HTML5 player(in browser, HTML5)
Click here to listen with your own player(launches your MP3 player)

EHAM 241625Z 14007KT CAVOK 09/06 Q1019 NOSIG

EHAM Flight Activity (Flightaware)

Listeners: 0 out of 1424 total

Amsterdam Arrival (Secondary): 131.150

EHAM Arrival (Secondary/Backup) (Archives)
Amsterdam, Netherlands

Feed Status: UP
Listen in your browser - HTML5 player(in browser, HTML5)
Click here to listen with your own player(launches your MP3 player)

EHAM 241625Z 14007KT CAVOK 09/06 Q1019 NOSIG

EHAM Flight Activity (Flightaware)

Listeners: 0 out of 1424 total

Amsterdam Arrival (Secondary Backup): 131.275

EHAM Arrival Backup/Discrete (Archives)
Amsterdam, Netherlands

Feed Status: UP
Listen in your browser - HTML5 player(in browser, HTML5)
Click here to listen with your own player(launches your MP3 player)

EHAM 241625Z 14007KT CAVOK 09/06 Q1019 NOSIG

EHAM Flight Activity (Flightaware)

Listeners: 0 out of 1424 total

Schiphol Arrival Backup: 126.675

EHAM Clearance Delivery (Archives)
Amsterdam, Netherlands

Feed Status: UP
Listen in your browser - HTML5 player(in browser, HTML5)
Click here to listen with your own player(launches your MP3 player)

EHAM 241625Z 14007KT CAVOK 09/06 Q1019 NOSIG

EHAM Flight Activity (Flightaware)

Listeners: 0 out of 1424 total

Schiphol Clearance Delivery: 121.980

EHAM Ground (Backup) (Archives)
Amsterdam, Netherlands

Feed Status: UP
Listen in your browser - HTML5 player(in browser, HTML5)
Click here to listen with your own player(launches your MP3 player)

EHAM 241625Z 14007KT CAVOK 09/06 Q1019 NOSIG

EHAM Flight Activity (Flightaware)

Listeners: 0 out of 1424 total

Schiphol Ground (Backup): 122.425

EHAM Ground (North) (Archives)
Amsterdam, Netherlands

Feed Status: UP
Listen in your browser - HTML5 player(in browser, HTML5)
Click here to listen with your own player(launches your MP3 player)

EHAM 241625Z 14007KT CAVOK 09/06 Q1019 NOSIG

EHAM Flight Activity (Flightaware)

Listeners: 0 out of 1424 total

Schiphol Ground (North): 121.805

EHAM Ground (South) (Archives)
Amsterdam, Netherlands

Feed Status: UP
Listen in your browser - HTML5 player(in browser, HTML5)
Click here to listen with your own player(launches your MP3 player)

EHAM 241625Z 14007KT CAVOK 09/06 Q1019 NOSIG

EHAM Flight Activity (Flightaware)

Listeners: 0 out of 1424 total

Schiphol Ground (South): 121.705

EHAM Ground (West) (Archives)
Amsterdam, Netherlands

Feed Status: UP
Listen in your browser - HTML5 player(in browser, HTML5)
Click here to listen with your own player(launches your MP3 player)

EHAM 241625Z 14007KT CAVOK 09/06 Q1019 NOSIG

EHAM Flight Activity (Flightaware)

Listeners: 0 out of 1424 total

Schiphol Ground (West): 121.560

EHAM Info North Sea (North) (Archives)
Amsterdam, Netherlands

Feed Status: UP
Listen in your browser - HTML5 player(in browser, HTML5)
Click here to listen with your own player(launches your MP3 player)

EHAM 241625Z 14007KT CAVOK 09/06 Q1019 NOSIG

EHAM Flight Activity (Flightaware)

Listeners: 0 out of 1424 total

Amsterdam Info North Sea (North): 119.175

EHAM Info North Sea (Over Land) (Archives)
Amsterdam, Netherlands

Feed Status: UP
Listen in your browser - HTML5 player(in browser, HTML5)
Click here to listen with your own player(launches your MP3 player)

EHAM 241625Z 14007KT CAVOK 09/06 Q1019 NOSIG

EHAM Flight Activity (Flightaware)

Listeners: 0 out of 1424 total

Amsterdam Info North Sea (Over Land): 124.300

EHAM Info North Sea (South) (Archives)
Amsterdam, Netherlands

Feed Status: UP
Listen in your browser - HTML5 player(in browser, HTML5)
Click here to listen with your own player(launches your MP3 player)

EHAM 241625Z 14007KT CAVOK 09/06 Q1019 NOSIG

EHAM Flight Activity (Flightaware)

Listeners: 0 out of 1424 total

Amsterdam Info North Sea (South): 136.650

EHAM Schiphol Outbound Planner (Archives)
Amsterdam, Netherlands

Feed Status: UP
Listen in your browser - HTML5 player(in browser, HTML5)
Click here to listen with your own player(launches your MP3 player)

EHAM 241625Z 14007KT CAVOK 09/06 Q1019 NOSIG

EHAM Flight Activity (Flightaware)

Listeners: 0 out of 1424 total

Schiphol Outbound Planner: 121.655

EHAM Tow Traffic (Archives)
Amsterdam, Netherlands

Feed Status: UP
Listen in your browser - HTML5 player(in browser, HTML5)
Click here to listen with your own player(launches your MP3 player)

EHAM 241625Z 14007KT CAVOK 09/06 Q1019 NOSIG

EHAM Flight Activity (Flightaware)

Listeners: 0 out of 1424 total

Schiphol Tow Traffic: 134.875

EHAM Tower (06/24) (Archives)
Amsterdam, Netherlands

Feed Status: UP
Listen in your browser - HTML5 player(in browser, HTML5)
Click here to listen with your own player(launches your MP3 player)

EHAM 241625Z 14007KT CAVOK 09/06 Q1019 NOSIG

EHAM Flight Activity (Flightaware)

Listeners: 2 out of 1424 total

Schiphol Tower Main 06/24: 135.110

EHAM Tower (18C/36C-27/09) (Archives)
Amsterdam, Netherlands

Feed Status: UP
Listen in your browser - HTML5 player(in browser, HTML5)
Click here to listen with your own player(launches your MP3 player)

EHAM 241625Z 14007KT CAVOK 09/06 Q1019 NOSIG

EHAM Flight Activity (Flightaware)

Listeners: 1 out of 1424 total

Schiphol Tower Main 18C/36C - 27/09: 118.100

EHAM Tower (18L/36R-22/04) (Archives)
Amsterdam, Netherlands

Feed Status: UP
Listen in your browser - HTML5 player(in browser, HTML5)
Click here to listen with your own player(launches your MP3 player)

EHAM 241625Z 14007KT CAVOK 09/06 Q1019 NOSIG

EHAM Flight Activity (Flightaware)

Listeners: 1 out of 1424 total

Schiphol Tower Main 18L/36R - 22/04: 119.225

EHAM Tower Backup (Archives)
Amsterdam, Netherlands

Feed Status: UP
Listen in your browser - HTML5 player(in browser, HTML5)
Click here to listen with your own player(launches your MP3 player)

EHAM 241625Z 14007KT CAVOK 09/06 Q1019 NOSIG

EHAM Flight Activity (Flightaware)

Listeners: 0 out of 1424 total

Schiphol Tower Backup: 119.905

EHAM Tower West (18R/36L) (Archives)
Amsterdam, Netherlands

Feed Status: UP
Listen in your browser - HTML5 player(in browser, HTML5)
Click here to listen with your own player(launches your MP3 player)

EHAM 241625Z 14007KT CAVOK 09/06 Q1019 NOSIG

EHAM Flight Activity (Flightaware)

Listeners: 0 out of 1424 total

Schiphol Tower West 18R/36L: 118.280

EHBK ATIS (Archives)
Beek, Netherlands

Feed Status: UP
Listen in your browser - HTML5 player(in browser, HTML5)
Click here to listen with your own player(launches your MP3 player)

EHBK 241625Z AUTO 17006KT 9999 NCD 12/05 Q1020 NOSIG

EHBK Flight Activity (Flightaware)

Listeners: 0 out of 1424 total

Beek ATIS: 124.575

EHBK Gnd/Twr/App (Archives)
Beek, Netherlands

Feed Status: UP
Listen in your browser - HTML5 player(in browser, HTML5)
Click here to listen with your own player(launches your MP3 player)

EHBK 241625Z AUTO 17006KT 9999 NCD 12/05 Q1020 NOSIG

EHBK Flight Activity (Flightaware)

Listeners: 2 out of 1424 total

Beek Approach: 120.200
Beek Approach: 123.975
Beek Ground: 121.825
Beek Tower: 119.475
Beek Tower: 119.700

MUAC/Eurocontrol Delta High (Archives)
Beek, Netherlands

Feed Status: UP
Listen in your browser - HTML5 player(in browser, HTML5)
Click here to listen with your own player(launches your MP3 player)

EHBK 241625Z AUTO 17006KT 9999 NCD 12/05 Q1020 NOSIG

EHBK Flight Activity (Flightaware)

Listeners: 0 out of 1424 total

MUAC Delta High Sector: 132.085

MUAC/Eurocontrol Koksy (Archives)
Beek, Netherlands

Feed Status: UP
Listen in your browser - HTML5 player(in browser, HTML5)
Click here to listen with your own player(launches your MP3 player)

EHBK 241625Z AUTO 17006KT 9999 NCD 12/05 Q1020 NOSIG

EHBK Flight Activity (Flightaware)

Listeners: 1 out of 1424 total

MUAC Koksy Sector: 132.205

MUAC/Eurocontrol Koksy High (Archives)
Beek, Netherlands

Feed Status: UP
Listen in your browser - HTML5 player(in browser, HTML5)
Click here to listen with your own player(launches your MP3 player)

EHBK 241625Z AUTO 17006KT 9999 NCD 12/05 Q1020 NOSIG

EHBK Flight Activity (Flightaware)

Listeners: 0 out of 1424 total

MUAC Koksy High Sector: 132.755

MUAC/Eurocontrol Lux High (Archives)
Beek, Netherlands

Feed Status: UP
Listen in your browser - HTML5 player(in browser, HTML5)
Click here to listen with your own player(launches your MP3 player)

EHBK 241625Z AUTO 17006KT 9999 NCD 12/05 Q1020 NOSIG

EHBK Flight Activity (Flightaware)

Listeners: 1 out of 1424 total

MUAC Lux High Sector: 132.315

MUAC/Eurocontrol Lux Low (Archives)
Beek, Netherlands

Feed Status: UP
Listen in your browser - HTML5 player(in browser, HTML5)
Click here to listen with your own player(launches your MP3 player)

EHBK 241625Z AUTO 17006KT 9999 NCD 12/05 Q1020 NOSIG

EHBK Flight Activity (Flightaware)

Listeners: 0 out of 1424 total

MUAC Lux Low Sector: 133.355

MUAC/Eurocontrol Olno Low (Archives)
Beek, Netherlands

Feed Status: UP
Listen in your browser - HTML5 player(in browser, HTML5)
Click here to listen with your own player(launches your MP3 player)

EHBK 241625Z AUTO 17006KT 9999 NCD 12/05 Q1020 NOSIG

EHBK Flight Activity (Flightaware)

Listeners: 0 out of 1424 total

MUAC Olno Low Sector: 132.855

MUAC/Eurocontrol Ruhr (Archives)
Beek, Netherlands

Feed Status: UP
Listen in your browser - HTML5 player(in browser, HTML5)
Click here to listen with your own player(launches your MP3 player)

EHBK 241625Z AUTO 17006KT 9999 NCD 12/05 Q1020 NOSIG

EHBK Flight Activity (Flightaware)

Listeners: 0 out of 1424 total

MUAC Ruhr Sector: 132.515

EHEH Approach #1 (Archives)
Eindhoven, Netherlands

Feed Status: UP
Listen in your browser - HTML5 player(in browser, HTML5)
Click here to listen with your own player(launches your MP3 player)

EHEH 241625Z AUTO 15004KT 090V250 9999 NCD 11/06 Q1020 BLU NOSIG

EHEH Flight Activity (Flightaware)

Listeners: 3 out of 1424 total

DutchMil Info: 132.355
DutchMil Info UHF: 341.600
DutchMil RAPCON South: 123.180
Eindhoven Arrival: 125.530
Eindhoven Arrival (UHF): 265.975
Emergency/Guard: 121.500
Rapcon South UHF: 388.525
Volkel Arrival UHF: 291.200

EHEH Tower #1 (Archives)
Eindhoven, Netherlands

Feed Status: UP
Listen in your browser - HTML5 player(in browser, HTML5)
Click here to listen with your own player(launches your MP3 player)

EHEH 241625Z AUTO 15004KT 090V250 9999 NCD 11/06 Q1020 BLU NOSIG

EHEH Flight Activity (Flightaware)

Listeners: 4 out of 1424 total

Eindhoven Tower: 131.005
Eindhoven Tower (UHF): 241.550
Generic Tower: 122.100
Generic Tower (UHF): 257.800
Volkel Tower: 136.080
Volkel Tower (UHF): 291.100

EHGG Approach (Archives)
Groningen, Netherlands

Feed Status: UP
Listen in your browser - HTML5 player(in browser, HTML5)
Click here to listen with your own player(launches your MP3 player)

EHGG 241625Z AUTO 16003KT 9999 NCD 10/05 Q1020 NOSIG

EHGG Flight Activity (Flightaware)

Listeners: 0 out of 1424 total

Eelde Approach: 120.305

EHGG ATIS (Archives)
Groningen, Netherlands

Feed Status: UP
Listen in your browser - HTML5 player(in browser, HTML5)
Click here to listen with your own player(launches your MP3 player)

EHGG 241625Z AUTO 16003KT 9999 NCD 10/05 Q1020 NOSIG

EHGG Flight Activity (Flightaware)

Listeners: 0 out of 1424 total

Groningen ATIS: 133.555

EHGG Ground (Archives)
Groningen, Netherlands

Feed Status: UP
Listen in your browser - HTML5 player(in browser, HTML5)
Click here to listen with your own player(launches your MP3 player)

EHGG 241625Z AUTO 16003KT 9999 NCD 10/05 Q1020 NOSIG

EHGG Flight Activity (Flightaware)

Listeners: 0 out of 1424 total

Eelde Clearance Delivery/Ground: 121.705

EHGG Guard/Emergency (Archives)
Groningen, Netherlands

Feed Status: UP
Listen in your browser - HTML5 player(in browser, HTML5)
Click here to listen with your own player(launches your MP3 player)

EHGG 241625Z AUTO 16003KT 9999 NCD 10/05 Q1020 NOSIG

EHGG Flight Activity (Flightaware)

Listeners: 0 out of 1424 total

Emergency/Guard: 121.500

EHGG Tower (Archives)
Groningen, Netherlands

Feed Status: UP
Listen in your browser - HTML5 player(in browser, HTML5)
Click here to listen with your own player(launches your MP3 player)

EHGG 241625Z AUTO 16003KT 9999 NCD 10/05 Q1020 NOSIG

EHGG Flight Activity (Flightaware)

Listeners: 2 out of 1424 total

Eelde Tower: 118.705

EHGG Twr/App (Secondary) (Archives)
Groningen, Netherlands

Feed Status: UP
Listen in your browser - HTML5 player(in browser, HTML5)
Click here to listen with your own player(launches your MP3 player)

EHGG 241625Z AUTO 16003KT 9999 NCD 10/05 Q1020 NOSIG

EHGG Flight Activity (Flightaware)

Listeners: 0 out of 1424 total

Eelde Tower/App (Backup): 119.705

MUAC/Eurocontrol (EHGG Area) (Archives)
Groningen, Netherlands

Feed Status: UP
Listen in your browser - HTML5 player(in browser, HTML5)
Click here to listen with your own player(launches your MP3 player)

EHGG 241625Z AUTO 16003KT 9999 NCD 10/05 Q1020 NOSIG

EHGG Flight Activity (Flightaware)

Listeners: 3 out of 1424 total

MUAC Holstein High Sector: 132.775
MUAC Holstein Sector: 120.9333
MUAC Javer High Sector: 134.700
MUAC Jever Sector: 136.4666

EHGR Ground (Archives)
Breda, Netherlands

Feed Status: UP
Listen in your browser - HTML5 player(in browser, HTML5)
Click here to listen with your own player(launches your MP3 player)

EHGR 241625Z AUTO 18004KT 9999 NCD 10/06 Q1019 BLU

EHGR Flight Activity (Flightaware)

Listeners: 0 out of 1424 total

Gilze Rijen Ground: 121.680

EHGR Ground/Tower (Archives)
Breda, Netherlands

Feed Status: UP
Listen in your browser - HTML5 player(in browser, HTML5)
Click here to listen with your own player(launches your MP3 player)

EHGR 241625Z AUTO 18004KT 9999 NCD 10/06 Q1019 BLU

EHGR Flight Activity (Flightaware)

Listeners: 0 out of 1424 total

Gilze Rijen Ground: 121.680
Gilze Rijen Tower: 125.330

EHGR Tower (Archives)
Breda, Netherlands

Feed Status: UP
Listen in your browser - HTML5 player(in browser, HTML5)
Click here to listen with your own player(launches your MP3 player)

EHGR 241625Z AUTO 18004KT 9999 NCD 10/06 Q1019 BLU

EHGR Flight Activity (Flightaware)

Listeners: 0 out of 1424 total

Gilze Rijen Tower: 125.330

EHHV CTAF (Archives)
Hilversum, Netherlands

Feed Status: UP
Listen in your browser - HTML5 player(in browser, HTML5)
Click here to listen with your own player(launches your MP3 player)

EHHV Flight Activity (Flightaware)

Listeners: 1 out of 1424 total

Hilversum Radio: 131.030

EHKD ATIS (Archives)
Den Helder, Netherlands

Feed Status: UP
Listen in your browser - HTML5 player(in browser, HTML5)
Click here to listen with your own player(launches your MP3 player)

EHKD 241625Z AUTO 17007KT 9999 OVC370 10/06 Q1018 BLU NOSIG

EHKD Flight Activity (Flightaware)

Listeners: 0 out of 1424 total

De Kooy ATIS: 133.015

EHKD Ground/Tower (Archives)
Den Helder, Netherlands

Feed Status: UP
Listen in your browser - HTML5 player(in browser, HTML5)
Click here to listen with your own player(launches your MP3 player)

EHKD 241625Z AUTO 17007KT 9999 OVC370 10/06 Q1018 BLU NOSIG

EHKD Flight Activity (Flightaware)

Listeners: 0 out of 1424 total

De Kooy Ground: 121.730
De Kooy Tower: 120.130

Approach/Dutch Mil Radar (Archives)
Lelystad, Netherlands

Feed Status: UP
Listen in your browser - HTML5 player(in browser, HTML5)
Click here to listen with your own player(launches your MP3 player)

EHLE 241625Z AUTO 14006KT 9999 NCD 08/06 Q1019 NOSIG

EHLE Flight Activity (Flightaware)

Listeners: 1 out of 1424 total

Approach: 124.530
Dutch Mil Flight Info: 264.325
Dutch Mil Radar: 128.355
Dutch Mil Radar: 132.350

EHLE App/Dep (Archives)
Lelystad, Netherlands

Feed Status: UP
Listen in your browser - HTML5 player(in browser, HTML5)
Click here to listen with your own player(launches your MP3 player)

EHLE 241625Z AUTO 14006KT 9999 NCD 08/06 Q1019 NOSIG

EHLE Flight Activity (Flightaware)

Listeners: 0 out of 1424 total

Lelystad Approach: 134.530

EHLE Clearance Delivery (Archives)
Lelystad, Netherlands

Feed Status: UP
Listen in your browser - HTML5 player(in browser, HTML5)
Click here to listen with your own player(launches your MP3 player)

EHLE 241625Z AUTO 14006KT 9999 NCD 08/06 Q1019 NOSIG

EHLE Flight Activity (Flightaware)

Listeners: 1 out of 1424 total

Lelystad Clearance Delivery: 123.680

EHLE FIC (Archives)
Lelystad, Netherlands

Feed Status: UP
Listen in your browser - HTML5 player(in browser, HTML5)
Click here to listen with your own player(launches your MP3 player)

EHLE 241625Z AUTO 14006KT 9999 NCD 08/06 Q1019 NOSIG

EHLE Flight Activity (Flightaware)

Listeners: 0 out of 1424 total

FIC Amsterdam Information: 124.300

EHLE Tower (Archives)
Lelystad, Netherlands

Feed Status: UP
Listen in your browser - HTML5 player(in browser, HTML5)
Click here to listen with your own player(launches your MP3 player)

EHLE 241625Z AUTO 14006KT 9999 NCD 08/06 Q1019 NOSIG

EHLE Flight Activity (Flightaware)

Listeners: 0 out of 1424 total

Lelystad Tower: 135.180
Lelystad Tower: 123.830

EHMM CTAF (Archives)
Middenmeer, Netherlands

Feed Status: UP
Listen in your browser - HTML5 player(in browser, HTML5)
Click here to listen with your own player(launches your MP3 player)

EHMM Flight Activity (Flightaware)

Listeners: 0 out of 1424 total

Middenmeer CTAF: 123.425

EHMZ (Archives)
Middelburg, Netherlands

Feed Status: UP
Listen in your browser - HTML5 player(in browser, HTML5)
Click here to listen with your own player(launches your MP3 player)

EHMZ Flight Activity (Flightaware)

Listeners: 0 out of 1424 total

Midden-Zeeland Radio: 119.255

EHRD Approach (Archives)
Rotterdam, Netherlands

Feed Status: UP
Listen in your browser - HTML5 player(in browser, HTML5)
Click here to listen with your own player(launches your MP3 player)

EHRD 241625Z AUTO 16007KT 9999 NSC 12/06 Q1019 NOSIG

EHRD Flight Activity (Flightaware)

Listeners: 0 out of 1424 total

Rotterdam Approach: 122.990
Rotterdam Approach: 124.535
Rotterdam Approach: 281.050

EHRD Clearance Delivery (Archives)
Rotterdam, Netherlands

Feed Status: UP
Listen in your browser - HTML5 player(in browser, HTML5)
Click here to listen with your own player(launches your MP3 player)

EHRD 241625Z AUTO 16007KT 9999 NSC 12/06 Q1019 NOSIG

EHRD Flight Activity (Flightaware)

Listeners: 1 out of 1424 total

Rotterdam Del/Gnd: 122.180

EHRD Del/Twr (Archives)
Rotterdam, Netherlands

Feed Status: UP
Listen in your browser - HTML5 player(in browser, HTML5)
Click here to listen with your own player(launches your MP3 player)

EHRD 241625Z AUTO 16007KT 9999 NSC 12/06 Q1019 NOSIG

EHRD Flight Activity (Flightaware)

Listeners: 2 out of 1424 total

Rotterdam Del/Gnd: 122.180
Rotterdam Tower: 118.205

EHRD Gnd/Twr/App (Archives)
Rotterdam, Netherlands

Feed Status: UP
Listen in your browser - HTML5 player(in browser, HTML5)
Click here to listen with your own player(launches your MP3 player)

EHRD 241625Z AUTO 16007KT 9999 NSC 12/06 Q1019 NOSIG

EHRD Flight Activity (Flightaware)

Listeners: 1 out of 1424 total

Adam Info: 124.300
Regional Guard: 119.705
Rotterdam Approach: 127.025
Rotterdam Del/Gnd: 122.180
Rotterdam Tower: 118.205
SAR: 123.100
SAR: 282.800

EHRD Tower (Archives)
Rotterdam, Netherlands

Feed Status: UP
Listen in your browser - HTML5 player(in browser, HTML5)
Click here to listen with your own player(launches your MP3 player)

EHRD 241625Z AUTO 16007KT 9999 NSC 12/06 Q1019 NOSIG

EHRD Flight Activity (Flightaware)

Listeners: 1 out of 1424 total

Rotterdam Tower: 118.205
Rotterdam Tower: 362.300

EHRD Twr/App
Rotterdam, Netherlands

Feed Status: DOWN
Offline since: 2020-03-14 14:15:39 UTC

EHRD 241625Z AUTO 16007KT 9999 NSC 12/06 Q1019 NOSIG

Rotterdam Approach: 127.025
Rotterdam Tower: 118.205

EHSE Radio/FIC
Bosschenhoofd, Netherlands

Feed Status: DOWN
Offline since: 2021-10-15 22:50:04 UTC

Dutch MIL Info FIC: 132.350
Seppe Radio (Tower/Ground): 120.655

EHTX Gnd/Twr
Texel, Netherlands

Feed Status: DOWN
Offline since: 2021-06-08 14:20:38 UTC

Texel Radio (Ground/Tower): 119.300

EHVL CTAF/Range Control
Vlieland, Netherlands

Feed Status: DOWN
Offline since: 2021-06-08 14:20:38 UTC

EHVL 241625Z AUTO 16014KT 9999 OVC370 10/07 Q1018 BLU

Cornfield VHF (CTAF): 122.100
Range Controller (Primary): 291.650
Range Controller (Secondary): 370.300
Range Controller VHF: 138.075

EICK Approach/Departure (Archives)
Cork, Ireland

Feed Status: UP
Listen in your browser - HTML5 player(in browser, HTML5)
Click here to listen with your own player(launches your MP3 player)

EICK 241600Z 21014KT 9999 FEW015CB SCT019 12/10 Q1008 NOSIG

EICK Flight Activity (Flightaware)

Listeners: 0 out of 1424 total

Cork Approach: 119.900

EICK Gnd/Twr/App/Dep (Archives)
Cork, Ireland

Feed Status: UP
Listen in your browser - HTML5 player(in browser, HTML5)
Click here to listen with your own player(launches your MP3 player)

EICK 241600Z 21014KT 9999 FEW015CB SCT019 12/10 Q1008 NOSIG

EICK Flight Activity (Flightaware)

Listeners: 1 out of 1424 total

Cork Approach: 119.900
Cork Ground: 121.850
Cork Tower: 119.300

EICK Ground/Tower (Archives)
Cork, Ireland

Feed Status: UP
Listen in your browser - HTML5 player(in browser, HTML5)
Click here to listen with your own player(launches your MP3 player)

EICK 241600Z 21014KT 9999 FEW015CB SCT019 12/10 Q1008 NOSIG

EICK Flight Activity (Flightaware)

Listeners: 0 out of 1424 total

Cork Ground: 121.850
Cork Tower: 119.300

EIDW Approach (Archives)
Dublin, Ireland

Feed Status: UP
Listen in your browser - HTML5 player(in browser, HTML5)
Click here to listen with your own player(launches your MP3 player)

EIDW 241600Z 21013KT 170V260 9999 SCT025 14/09 Q1006 NOSIG

EIDW Flight Activity (Flightaware)

Listeners: 1 out of 1424 total

Dublin Approach: 121.100

EIDW Approach (Final) (Archives)
Dublin, Ireland

Feed Status: UP
Listen in your browser - HTML5 player(in browser, HTML5)
Click here to listen with your own player(launches your MP3 player)

EIDW 241600Z 21013KT 170V260 9999 SCT025 14/09 Q1006 NOSIG

EIDW Flight Activity (Flightaware)

Listeners: 0 out of 1424 total

Dublin Approach (Final): 119.925

EIDW Clearance Delivery (Archives)
Dublin, Ireland

Feed Status: UP
Listen in your browser - HTML5 player(in browser, HTML5)
Click here to listen with your own player(launches your MP3 player)

EIDW 241600Z 21013KT 170V260 9999 SCT025 14/09 Q1006 NOSIG

EIDW Flight Activity (Flightaware)

Listeners: 2 out of 1424 total

Dublin Clearance Delivery: 121.875

EIDW Del/Gnd/Twr/App/Center (Archives)
Dublin, Ireland

Feed Status: UP
Listen in your browser - HTML5 player(in browser, HTML5)
Click here to listen with your own player(launches your MP3 player)

EIDW 241600Z 21013KT 170V260 9999 SCT025 14/09 Q1006 NOSIG

EIDW Flight Activity (Flightaware)

Listeners: 10 out of 1424 total

Dublin Approach: 121.100
Dublin Approach (backup): 119.550
Dublin Centre North: 129.175
Dublin Centre South: 126.250
Dublin Clearance Delivery: 121.875
Dublin FIS: 118.500
Dublin Ground: 121.800
Dublin Tower: 118.600

EIDW Ground (Archives)
Dublin, Ireland

Feed Status: UP
Listen in your browser - HTML5 player(in browser, HTML5)
Click here to listen with your own player(launches your MP3 player)

EIDW 241600Z 21013KT 170V260 9999 SCT025 14/09 Q1006 NOSIG

EIDW Flight Activity (Flightaware)

Listeners: 0 out of 1424 total

Dublin Ground: 121.800

EIDW Ground (North) (Archives)
Dublin, Ireland

Feed Status: UP
Listen in your browser - HTML5 player(in browser, HTML5)
Click here to listen with your own player(launches your MP3 player)

EIDW 241600Z 21013KT 170V260 9999 SCT025 14/09 Q1006 NOSIG

EIDW Flight Activity (Flightaware)

Listeners: 2 out of 1424 total

Dublin Ground (North): 118.750

EIDW Tower (Archives)
Dublin, Ireland

Feed Status: UP
Listen in your browser - HTML5 player(in browser, HTML5)
Click here to listen with your own player(launches your MP3 player)

EIDW 241600Z 21013KT 170V260 9999 SCT025 14/09 Q1006 NOSIG

EIDW Flight Activity (Flightaware)

Listeners: 3 out of 1424 total

Dublin Tower: 118.600

EIKN Gnd/Twr/App (Archives)
Charlestown, Ireland

Feed Status: UP
Listen in your browser - HTML5 player(in browser, HTML5)
Click here to listen with your own player(launches your MP3 player)

EIKN 241600Z 21011KT 170V230 9999 FEW012 FEW018CB 12/09 Q1003 NOSIG

EIKN Flight Activity (Flightaware)

Listeners: 2 out of 1424 total

Connaught Ground: 121.900
Connaught Tower: 130.700
Shannon Low Level: 119.075

EINN Shannon Control High (East) (Archives)
Shannon, Ireland

Feed Status: UP
Listen in your browser - HTML5 player(in browser, HTML5)
Click here to listen with your own player(launches your MP3 player)

EINN 241600Z 21012KT 9999 FEW018CB SCT022 BKN027 14/10 Q1006 NOSIG

EINN Flight Activity (Flightaware)

Listeners: 3 out of 1424 total

Shannon Clearance (Oceanic only): 121.700
Shannon Control: 134.260
Shannon Control: 134.630
Shannon Control: 135.230
Shannon Control: 135.600
Shannon Control: 136.255
Shannon Control (BABAN/DEVOL Sector): 132.150

EINN Shannon Control High (West/Coastal) (Archives)
Shannon, Ireland

Feed Status: UP
Listen in your browser - HTML5 player(in browser, HTML5)
Click here to listen with your own player(launches your MP3 player)

EINN 241600Z 21012KT 9999 FEW018CB SCT022 BKN027 14/10 Q1006 NOSIG

EINN Flight Activity (Flightaware)

Listeners: 2 out of 1424 total

Shannon Control: 131.150
Shannon Control: 125.880
Shannon Control: 120.040
Shannon Control: 122.980
Shannon Control: 127.130
Shannon Control: 129.665
Shannon Control: 133.360

EINN Shannon Control Low (Archives)
Shannon, Ireland

Feed Status: UP
Listen in your browser - HTML5 player(in browser, HTML5)
Click here to listen with your own player(launches your MP3 player)

EINN 241600Z 21012KT 9999 FEW018CB SCT022 BKN027 14/10 Q1006 NOSIG

EINN Flight Activity (Flightaware)

Listeners: 0 out of 1424 total

Shannon Control (Low): 119.080
Shannon Control Low: 124.700

EINN Twr/App #1 (Archives)
Shannon, Ireland

Feed Status: UP
Listen in your browser - HTML5 player(in browser, HTML5)
Click here to listen with your own player(launches your MP3 player)

EINN 241600Z 21012KT 9999 FEW018CB SCT022 BKN027 14/10 Q1006 NOSIG

EINN Flight Activity (Flightaware)

Listeners: 4 out of 1424 total

Aer Lingus Ops: 131.500
Service Air Ops: 131.450
Shannon Approach Radar: 121.400
Shannon Control: Misc
Shannon Ground: 121.800
Shannon Tower: 118.700
Sig Ops (Pre-Clearance): 131.590

ENAT Twr/App/Control (Archives)
Alta, Norway

Feed Status: UP
Listen in your browser - HTML5 player(in browser, HTML5)
Click here to listen with your own player(launches your MP3 player)

ENAT 241620Z 22007KT CAVOK M07/M09 Q1015 RMK WIND 700FT 18010KT

ENAT Flight Activity (Flightaware)

Listeners: 0 out of 1424 total

Alta Tower (to boat, Harbour Channel 12): 156.600
Alta Tower (to vehicle): 462.400
Alta Tower/Approach: 120.400
Norway Control: 126.700

ENBO Tower (Archives)
Bodo, Norway

Feed Status: UP
Listen in your browser - HTML5 player(in browser, HTML5)
Click here to listen with your own player(launches your MP3 player)

ENBO 241620Z 08026KT 9999 -RA BKN030 03/01 Q1004 TEMPO 3000 RADZ BKN014

ENBO Flight Activity (Flightaware)

Listeners: 0 out of 1424 total

Bodo Tower: 118.100

ENCN Tower/Approach (Archives)
Kristiansand, Norway

Feed Status: UP
Listen in your browser - HTML5 player(in browser, HTML5)
Click here to listen with your own player(launches your MP3 player)

ENCN 241620Z 23005KT 9999 BKN017 11/09 Q1016

ENCN Flight Activity (Flightaware)

Listeners: 0 out of 1424 total

Kjevik Tower: 118.100
Kjevik Tower/Approach: 119.950

ENGM App/Polaris ACC (Archives)
Honefoss, Norway

Feed Status: UP
Listen in your browser - HTML5 player(in browser, HTML5)
Click here to listen with your own player(launches your MP3 player)

ENEG Flight Activity (Flightaware)

Listeners: 0 out of 1424 total

ENGM Approach (East): 118.475
ENGM Approach (West): 120.450
Polaris ACC Sector 4: 118.875
Polaris ACC Sector 7: 124.775
Polaris ACC Sector 8: 134.350

ENEV Twr/App/ACC (Archives)
Evenes, Norway

Feed Status: UP
Listen in your browser - HTML5 player(in browser, HTML5)
Click here to listen with your own player(launches your MP3 player)

ENEV 241620Z 10012KT CAVOK 03/M05 Q1006 RMK WIND 1400FT 09019KT

ENEV Flight Activity (Flightaware)

Listeners: 0 out of 1424 total

Evenes Approach: 120.100
Evenes Tower: 118.000
Norway ACC (Bodo Sector 25): 126.450

ENGK Info
Arendal, Norway

Feed Status: DOWN
Offline since: 2021-09-14 23:41:22 UTC


Gullknapp Info: 129.900

ENGM App/Polaris ACC (Archives)
Oslo, Norway

Feed Status: UP
Listen in your browser - HTML5 player(in browser, HTML5)
Click here to listen with your own player(launches your MP3 player)

ENEG Flight Activity (Flightaware)

Listeners: 0 out of 1424 total

ENGM Approach (East): 118.475
ENGM Approach (West): 120.450
Polaris ACC Sector 4: 118.875
Polaris ACC Sector 7: 124.775
Polaris ACC Sector 8: 134.350

ENGM Tower (Archives)
Oslo, Norway

Feed Status: UP
Listen in your browser - HTML5 player(in browser, HTML5)
Click here to listen with your own player(launches your MP3 player)

ENGM 241620Z 20014KT 9999 FEW030 BKN052 10/05 Q1013 NOSIG

ENGM Flight Activity (Flightaware)

Listeners: 1 out of 1424 total

Oslo Tower (East): 120.100
Oslo Tower (West): 118.300

ENHD Tower (Archives)
Haugesund, Norway

Feed Status: UP
Listen in your browser - HTML5 player(in browser, HTML5)
Click here to listen with your own player(launches your MP3 player)

ENHD 241620Z 18020KT 9999 -DZ SCT018 BKN024 12/09 Q1010

ENHD Flight Activity (Flightaware)

Listeners: 0 out of 1424 total

Karmoy Tower: 120.500

ENJB CTAF (Archives)
Tonsberg, Norway

Feed Status: UP
Listen in your browser - HTML5 player(in browser, HTML5)
Click here to listen with your own player(launches your MP3 player)

ENTO 241620Z 20014KT 9999 BKN010 OVC060 11/10 Q1015 TEMPO BKN015

ENTO Flight Activity (Flightaware)

Listeners: 0 out of 1424 total

Jarlsberg CTAF: 122.300

ENKJ RDO #1
Kjeller, Norway

Feed Status: DOWN
Offline since: 2021-02-28 20:58:38 UTC

Kjeller RDO: 119.100

ENKJ RDO #2
Kjeller, Norway

Feed Status: DOWN
Offline since: 2021-10-15 00:43:05 UTC

Kjeller RDO: 119.100

ENLI CTAF
Farsund, Norway

Feed Status: DOWN
Offline since: 2021-10-24 07:48:05 UTC

Lista Traffic/Lista Radio: 126.450

ENRK CTAF
Astorp, Norway

Feed Status: DOWN
Offline since: 2021-06-09 11:28:38 UTC

Rakkestad CTAF: 122.950

ENOR Sector 8 (Archives)
Moss, Norway

Feed Status: UP
Listen in your browser - HTML5 player(in browser, HTML5)
Click here to listen with your own player(launches your MP3 player)

ENOR Flight Activity (Flightaware)

Listeners: 0 out of 1424 total

Norway Center (FIR) Sector 8: 118.875

ENRY Tower (Archives)
Moss, Norway

Feed Status: UP
Listen in your browser - HTML5 player(in browser, HTML5)
Click here to listen with your own player(launches your MP3 player)

ENRY 241620Z AUTO 20014KT 9999NDV BKN011/// OVC017/// 11/09 Q1015

ENRY Flight Activity (Flightaware)

Listeners: 0 out of 1424 total

Rygge Tower: 119.500

ENTC Tower/App (Archives)
Langnes, Norway

Feed Status: UP
Listen in your browser - HTML5 player(in browser, HTML5)
Click here to listen with your own player(launches your MP3 player)

ENTC 241620Z 06004KT CAVOK M02/M05 Q1009 NOSIG RMK WIND 2600FT 11016KT

ENTC Flight Activity (Flightaware)

Listeners: 0 out of 1424 total

Langnes Tower: 118.300
Langnes VDF (Approach): 123.750

ENTO App/Dep (Archives)
Sandefjord, Norway

Feed Status: UP
Listen in your browser - HTML5 player(in browser, HTML5)
Click here to listen with your own player(launches your MP3 player)

ENTO 241620Z 20014KT 9999 BKN010 OVC060 11/10 Q1015 TEMPO BKN015

ENTO Flight Activity (Flightaware)

Listeners: 0 out of 1424 total

Sandefjord Approach (TMA): 134.050

ENTO Control Sector 4 (Archives)
Sandefjord, Norway

Feed Status: UP
Listen in your browser - HTML5 player(in browser, HTML5)
Click here to listen with your own player(launches your MP3 player)

ENTO 241620Z 20014KT 9999 BKN010 OVC060 11/10 Q1015 TEMPO BKN015

ENTO Flight Activity (Flightaware)

Listeners: 0 out of 1424 total

Norway control Sector 4: 118.875

ENTO Tower (Archives)
Sandefjord, Norway

Feed Status: UP
Listen in your browser - HTML5 player(in browser, HTML5)
Click here to listen with your own player(launches your MP3 player)

ENTO 241620Z 20014KT 9999 BKN010 OVC060 11/10 Q1015 TEMPO BKN015

ENTO Flight Activity (Flightaware)

Listeners: 1 out of 1424 total

Sandefjord Tower: 118.650

ENTO Tower/App (Archives)
Sandefjord, Norway

Feed Status: UP
Listen in your browser - HTML5 player(in browser, HTML5)
Click here to listen with your own player(launches your MP3 player)

ENTO 241620Z 20014KT 9999 BKN010 OVC060 11/10 Q1015 TEMPO BKN015

ENTO Flight Activity (Flightaware)

Listeners: 0 out of 1424 total

ENJB Tonsberg Airport - Jarlsberg - CTAF: 122.300
Farris Approach (TCA): 134.050
Sandefjord Tower: 118.650

ENTO Twr/App (Archives)
Sandefjord, Norway

Feed Status: UP
Listen in your browser - HTML5 player(in browser, HTML5)
Click here to listen with your own player(launches your MP3 player)

ENTO 241620Z 20014KT 9999 BKN010 OVC060 11/10 Q1015 TEMPO BKN015

ENTO Flight Activity (Flightaware)

Listeners: 5 out of 1424 total

Sandefjord Approach (TMA): 134.050
Sandefjord Tower: 118.650

ENVA Gnd/Twr/App (Archives)
Trondheim, Norway

Feed Status: UP
Listen in your browser - HTML5 player(in browser, HTML5)
Click here to listen with your own player(launches your MP3 player)

ENVA 241620Z VRB03KT CAVOK 08/03 Q1007 RMK WIND 670FT 16007KT

ENVA Flight Activity (Flightaware)

Listeners: 2 out of 1424 total

Trondheim Approach: 118.600
Trondheim Ground: 121.600
Trondheim Tower: 119.400

ENZV Gnd/Twr/App (Archives)
Stavanger, Norway

Feed Status: UP
Listen in your browser - HTML5 player(in browser, HTML5)
Click here to listen with your own player(launches your MP3 player)

ENZV 241620Z 17014KT 9999 -RA FEW023 OVC043 11/09 Q1012 TEMPO RA

ENZV Flight Activity (Flightaware)

Listeners: 1 out of 1424 total

Sola Approach/Departure: 119.600
Sola Ground: 121.750
Sola Tower: 118.350

EPGD Tower/Approach (Archives)
Gdansk, Poland

Feed Status: UP
Listen in your browser - HTML5 player(in browser, HTML5)
Click here to listen with your own player(launches your MP3 player)

EPGD 241600Z 17004KT CAVOK 07/03 Q1028

EPGD Flight Activity (Flightaware)

Listeners: 2 out of 1424 total

Gdansk Approach: 127.275
Gdansk Tower: 118.100

EPKK Tower/App (Archives)
Krakow, Poland

Feed Status: UP
Listen in your browser - HTML5 player(in browser, HTML5)
Click here to listen with your own player(launches your MP3 player)

EPKK 241600Z VRB02KT CAVOK 07/02 Q1031

EPKK Flight Activity (Flightaware)

Listeners: 9 out of 1424 total

Krakow Approach: 121.075
Krakow Approach: 123.255
Krakow Tower: 123.255

EPKR CTAF (Archives)
Krosno, Poland

Feed Status: UP
Listen in your browser - HTML5 player(in browser, HTML5)
Click here to listen with your own player(launches your MP3 player)

EPKR Flight Activity (Flightaware)

Listeners: 0 out of 1424 total

Krosno CTAF: 119.555

EPKT Del/Twr/App (Archives)
Katowice, Poland

Feed Status: UP
Listen in your browser - HTML5 player(in browser, HTML5)
Click here to listen with your own player(launches your MP3 player)

EPKT 241600Z 09007KT 8000 NSC 03/02 Q1030

EPKT Flight Activity (Flightaware)

Listeners: 1 out of 1424 total

Katowice Delivery: 121.800
Katowice Tower: 129.250
Krakow Approach: 135.400
Krakow Approach: 121.075

EPKT Delivery/Approach (Archives)
Katowice, Poland

Feed Status: UP
Listen in your browser - HTML5 player(in browser, HTML5)
Click here to listen with your own player(launches your MP3 player)

EPKT 241600Z 09007KT 8000 NSC 03/02 Q1030

EPKT Flight Activity (Flightaware)

Listeners: 0 out of 1424 total

Katowice Delivery: 121.800
Krakow Approach: 121.075

EPKT Tower/Approach (Archives)
Katowice, Poland

Feed Status: UP
Listen in your browser - HTML5 player(in browser, HTML5)
Click here to listen with your own player(launches your MP3 player)

EPKT 241600Z 09007KT 8000 NSC 03/02 Q1030

EPKT Flight Activity (Flightaware)

Listeners: 0 out of 1424 total

Katowice Tower: 129.250
Krakow Approach: 135.400

EPLL Tower (Archives)
Lodz, Poland

Feed Status: UP
Listen in your browser - HTML5 player(in browser, HTML5)
Click here to listen with your own player(launches your MP3 player)

EPLL 241600Z 13001KT CAVOK 06/02 Q1030

EPLL Flight Activity (Flightaware)

Listeners: 0 out of 1424 total

Lodz Tower: 124.230

EPLS CTAF/Radio (Archives)
Leszno, Poland

Feed Status: UP
Listen in your browser - HTML5 player(in browser, HTML5)
Click here to listen with your own player(launches your MP3 player)

EPLS Flight Activity (Flightaware)

Listeners: 0 out of 1424 total

Leszno Radio: 122.305

EPML Info (Archives)
Mielec, Poland

Feed Status: UP
Listen in your browser - HTML5 player(in browser, HTML5)
Click here to listen with your own player(launches your MP3 player)

EPML Flight Activity (Flightaware)

Listeners: 0 out of 1424 total

Mielec Info: 119.105

EPPO Twr/App/FIS (Archives)
Poznan, Poland

Feed Status: UP
Listen in your browser - HTML5 player(in browser, HTML5)
Click here to listen with your own player(launches your MP3 player)

EPPO 241600Z 14004KT CAVOK 07/03 Q1029

EPPO Flight Activity (Flightaware)

Listeners: 1 out of 1424 total

Poznan Approach: 129.025
Poznan Approach: 127.225
Poznan FIS: 126.300
Poznan Tower: 119.975

EPRZ Del/Twr/EPWW Radar (Archives)
Jasionka, Poland

Feed Status: UP
Listen in your browser - HTML5 player(in browser, HTML5)
Click here to listen with your own player(launches your MP3 player)

EPRZ 241600Z 29004KT CAVOK 07/02 Q1032

EPRZ Flight Activity (Flightaware)

Listeners: 1 out of 1424 total

EPWW Radar: 134.175
EPWW Radar: 120.950
Rzeszow Delivery: 121.800
Rzeszow Tower: 126.800

EPWA Approach #1 (Archives)
Warsaw, Poland

Feed Status: UP
Listen in your browser - HTML5 player(in browser, HTML5)
Click here to listen with your own player(launches your MP3 player)

EPWA 241600Z 17005KT CAVOK 05/03 Q1031 NOSIG

EPWA Flight Activity (Flightaware)

Listeners: 8 out of 1424 total

Warsaw Approach: 128.805

EPWA Director (Archives)
Warsaw, Poland

Feed Status: UP
Listen in your browser - HTML5 player(in browser, HTML5)
Click here to listen with your own player(launches your MP3 player)

EPWA 241600Z 17005KT CAVOK 05/03 Q1031 NOSIG

EPWA Flight Activity (Flightaware)

Listeners: 1 out of 1424 total

Warsaw Director: 129.375

EPWA Ground (Archives)
Warsaw, Poland

Feed Status: UP
Listen in your browser - HTML5 player(in browser, HTML5)
Click here to listen with your own player(launches your MP3 player)

EPWA 241600Z 17005KT CAVOK 05/03 Q1031 NOSIG

EPWA Flight Activity (Flightaware)

Listeners: 0 out of 1424 total

Warsaw Ground: 121.900

EPWA Tower (Archives)
Warsaw, Poland

Feed Status: UP
Listen in your browser - HTML5 player(in browser, HTML5)
Click here to listen with your own player(launches your MP3 player)

EPWA 241600Z 17005KT CAVOK 05/03 Q1031 NOSIG

EPWA Flight Activity (Flightaware)

Listeners: 0 out of 1424 total

Warsaw Tower: 118.300

EPWR Twr/App (Archives)
Wroclaw, Poland

Feed Status: UP
Listen in your browser - HTML5 player(in browser, HTML5)
Click here to listen with your own player(launches your MP3 player)

EPPO 241600Z 14004KT CAVOK 07/03 Q1029

EPPO Flight Activity (Flightaware)

Listeners: 1 out of 1424 total

Poznan Approach (South): 127.225

EPRZ Del/Twr/EPWW Radar (Archives)
Jasionka, Poland

Feed Status: UP
Listen in your browser - HTML5 player(in browser, HTML5)
Click here to listen with your own player(launches your MP3 player)

EPRZ 241600Z 29004KT CAVOK 07/02 Q1032

EPRZ Flight Activity (Flightaware)

Listeners: 1 out of 1424 total

EPWW Radar: 134.175
EPWW Radar: 120.950
Rzeszow Delivery: 121.800
Rzeszow Tower: 126.800

ESDF Gnd/Twr (Archives)
Ronneby, Sweden

Feed Status: UP
Listen in your browser - HTML5 player(in browser, HTML5)
Click here to listen with your own player(launches your MP3 player)

ESDF 241620Z 21004KT CAVOK 08/07 Q1025

ESDF Flight Activity (Flightaware)

Listeners: 1 out of 1424 total

Ronneby Ground: 121.850
Ronneby Tower: 119.200

ESDF Ronneby Control (Archives)
Ronneby, Sweden

Feed Status: UP
Listen in your browser - HTML5 player(in browser, HTML5)
Click here to listen with your own player(launches your MP3 player)

ESDF 241620Z 21004KT CAVOK 08/07 Q1025

ESDF Flight Activity (Flightaware)

Listeners: 2 out of 1424 total

Ronneby Control: 128.450

ESMQ Tower (Archives)
Kalmar, Sweden

Feed Status: UP
Listen in your browser - HTML5 player(in browser, HTML5)
Click here to listen with your own player(launches your MP3 player)

ESMQ 241620Z 19006KT CAVOK 09/06 Q1024

ESMQ Flight Activity (Flightaware)

Listeners: 1 out of 1424 total

Kalmar Tower: 130.805

ESMS Radar (Archives)
Svedala, Sweden

Feed Status: UP
Listen in your browser - HTML5 player(in browser, HTML5)
Click here to listen with your own player(launches your MP3 player)

ESMS 241620Z 16007KT CAVOK 05/03 Q1024

ESMS Flight Activity (Flightaware)

Listeners: 1 out of 1424 total

Sweden Control (Sector L, Malmo): 134.980

ESMS Tower (Archives)
Svedala, Sweden

Feed Status: UP
Listen in your browser - HTML5 player(in browser, HTML5)
Click here to listen with your own player(launches your MP3 player)

ESMS 241620Z 16007KT CAVOK 05/03 Q1024

ESMS Flight Activity (Flightaware)

Listeners: 0 out of 1424 total

Malmo Tower: 118.800

ESOE Tower/Control (Archives)
Orebro, Sweden

Feed Status: UP
Listen in your browser - HTML5 player(in browser, HTML5)
Click here to listen with your own player(launches your MP3 player)

ESOE 241620Z AUTO 21012KT 9000 BR SCT014/// BKN022/// 11/08 Q1017

ESOE Flight Activity (Flightaware)

Listeners: 0 out of 1424 total

Orebro Tower: 120.275
Orebro Tower: 120.280
Sweden Control: 131.125
Sweden Control (aircraft only): 131.125

ESOW Twr/CTAF/Control (Archives)
Stockholm, Sweden

Feed Status: UP
Listen in your browser - HTML5 player(in browser, HTML5)
Click here to listen with your own player(launches your MP3 player)

ESOW 241620Z AUTO 20012KT 9999 BKN016/// OVC057/// 10/07 Q1018

ESOW Flight Activity (Flightaware)

Listeners: 0 out of 1424 total

Arlanda Approach: 123.750
Arlanda Approach: 126.655
Arlanda Approach: 130.325
Arlanda Departure: 124.100
Arlanda Tower: 118.505
Arlanda Tower: 128.725
Enkoping/Langtora: 123.525
Eskilstuna: 126.850
Frolunda: 123.400
Johannisberg CTAF: 123.650
Ska Edeby: 123.350
Stockholm Control: 120.155
Stockholm Control: 118.405
Stockholm Control: 118.280
Sweden Control: 133.260
Sweden Control: 129.175
Sweden Control: 131.130
Uppsala Tower: 119.200
Uppsala/Sundbro: 123.350
Vasteras Control: 125.955
Vasteras Tower: 130.600

ESPA Twr/Control (Archives)
Lulea, Sweden

Feed Status: UP
Listen in your browser - HTML5 player(in browser, HTML5)
Click here to listen with your own player(launches your MP3 player)

ESPA 241620Z 15008KT 6000 RA BKN004 02/02 Q1013

ESPA Flight Activity (Flightaware)

Listeners: 0 out of 1424 total

Emergency/Guard: 121.500
Kallax Control: 125.450
Kallax Tower: 128.200
Sweden Control North: 131.050

ESSG Misc (Archives)
Ludvika, Sweden

Feed Status: UP
Listen in your browser - HTML5 player(in browser, HTML5)
Click here to listen with your own player(launches your MP3 player)

ESSG Flight Activity (Flightaware)

Listeners: 0 out of 1424 total

Borlange Tower: 127.305
Club Frequency: 123.375
Club Frequency: 123.450
Club Frequency: 123.425
Club Frequency: 123.525
Club Frequency: 123.350
Club Frequency: 123.300
Club Frequency: 123.200
Club Frequency: 123.550
Club Frequency: 123.600
Club Frequency: 123.650
Emergency/Guard: 121.500
Hagfors Airport: 122.230
Karlstad Airport: 119.455
Ludvika Club Freq: 123.150
Mora Airport: 119.055
Orebro Airport: 120.280
Orsa Club Frequency: 123.400
Orsa Club Frequency: 123.500
Scandinavian Mountains Airport: 124.460
Search and Rescue: 123.100
Sweden Control: 131.055
Sweden Control: 131.125
Sweden Control: 131.155
Sweden Control: 132.765
Sweden Control: 131.130
Sweden Control: 129.180
Sweden Control: 128.630
Sweden Control: 132.150
Torsby Airport: 122.055
Vasteras Control: 125.955

ESSL Twr/App/Control (Archives)
Linkoping, Sweden

Feed Status: UP
Listen in your browser - HTML5 player(in browser, HTML5)
Click here to listen with your own player(launches your MP3 player)

ESSL 241620Z AUTO 22007KT 190V260 9999 SCT020/// OVC059/// 10/07 Q1020

ESSL Flight Activity (Flightaware)

Listeners: 1 out of 1424 total

Emergency/Guard: 121.500
Linkoping Tower: 118.800
Linkoping Tower (Secondary): 123.400
Ostgota Control: 127.350
Ostgota Control: 126.400
Ostgota Control: 135.850
Ostgota Control: 132.950
Ostgota Control: 128.700
Ostgota Control (Malmen Sector): 133.100
Ostgota Control/Sweden Control: 118.400

ESVQ CTAF
Koping, Sweden

Feed Status: DOWN
Offline since: 2021-09-28 07:56:21 UTC

Koping CTAF: 123.150

EVRA Approach (Archives)
Riga, Latvia

Feed Status: UP
Listen in your browser - HTML5 player(in browser, HTML5)
Click here to listen with your own player(launches your MP3 player)

EVRA 241620Z 19005KT CAVOK 05/02 Q1027 R36/190095 NOSIG

EVRA Flight Activity (Flightaware)

Listeners: 0 out of 1424 total

Riga Approach: 129.925

EVRA CTAF (Archives)
Riga, Latvia

Feed Status: UP
Listen in your browser - HTML5 player(in browser, HTML5)
Click here to listen with your own player(launches your MP3 player)

EVRA 241620Z 19005KT CAVOK 05/02 Q1027 R36/190095 NOSIG

EVRA Flight Activity (Flightaware)

Listeners: 0 out of 1424 total

Riga Approach (evenings): 134.850
Riga CTAF: 123.950

EVRA FIC (Archives)
Riga, Latvia

Feed Status: UP
Listen in your browser - HTML5 player(in browser, HTML5)
Click here to listen with your own player(launches your MP3 player)

EVRA 241620Z 19005KT CAVOK 05/02 Q1027 R36/190095 NOSIG

EVRA Flight Activity (Flightaware)

Listeners: 0 out of 1424 total

Riga FIC: 120.225

EVRA Tower/Guard (Archives)
Riga, Latvia

Feed Status: UP
Listen in your browser - HTML5 player(in browser, HTML5)
Click here to listen with your own player(launches your MP3 player)

EVRA 241620Z 19005KT CAVOK 05/02 Q1027 R36/190095 NOSIG

EVRA Flight Activity (Flightaware)

Listeners: 0 out of 1424 total

Emergency/Guard: 121.500
Riga Tower: 118.100

EYVI Twr/App/Misc (Archives)
Vilnius, Lithuania

Feed Status: UP
Listen in your browser - HTML5 player(in browser, HTML5)
Click here to listen with your own player(launches your MP3 player)

EYVI 241620Z 25003KT CAVOK 05/00 Q1030 NOSIG

EYVI Flight Activity (Flightaware)

Listeners: 3 out of 1424 total

Emergency / GUARD: 121.500
FlyLAL, AirBaltic transit services: 131.900
FlyLAL, AirBaltic transit services: 131.600
FlyLAL, AirBaltic transit services: 131.500
Kaunas Approach (EYKA): 124.200
Vilnius Approach: 120.700
Vilnius Control: 132.275
Vilnius Control: 133.425
Vilnius Control: 133.300
Vilnius FIS: 123.850
Vilnius Tower: 118.200
Zokniai A/G (mil): 122.775

EYVP CTAF
Paluknys, Lithuania

Feed Status: DOWN
Offline since: 2021-09-04 17:32:39 UTC

EYVP Paluknis CTAF: 119.100

FIMP Twr/App/Ctr #1 (Archives)
Plaine Magnien, Mauritius

Feed Status: UP
Listen in your browser - HTML5 player(in browser, HTML5)
Click here to listen with your own player(launches your MP3 player)

FIMP 241600Z 09010KT 9999 VCSH BKN016 24/20 Q1023


Listeners: 0 out of 1424 total

FIMP Approach: 119.100
FIMP Tower: 118.100
FMEE Approach/Departure: 127.200
Mauritius Centre: 129.300

FIMP Twr/App/Ctr #2 (Archives)
Plaine Magnien, Mauritius

Feed Status: UP
Listen in your browser - HTML5 player(in browser, HTML5)
Click here to listen with your own player(launches your MP3 player)

FIMP 241600Z 09010KT 9999 VCSH BKN016 24/20 Q1023


Listeners: 0 out of 1424 total

FIMP Approach: 119.100
FIMP Tower: 118.100
Mauritius Centre: 129.300

FMEP Info (Archives)
Saint-Pierre, Reunion

Feed Status: UP
Listen in your browser - HTML5 player(in browser, HTML5)
Click here to listen with your own player(launches your MP3 player)

FMEP 241600Z AUTO 02004KT 9999 OVC042 25/19 Q1021


Listeners: 0 out of 1424 total

Saint-Pierre Info: 122.400

FMMI Twr/App/Center (Archives)
Antananarivo, Madagascar

Feed Status: UP
Listen in your browser - HTML5 player(in browser, HTML5)
Click here to listen with your own player(launches your MP3 player)

FMMI 241600Z 10012KT 9999 FEW020CB SCT023 22/17 Q1023 NOSIG


Listeners: 0 out of 1424 total

Ivato Approach: 125.700
Ivato Tower: 120.100
Tana Control: 128.900

GOBD Gnd/Twr/App (Archives)
Dakar, Senegal

Feed Status: UP
Listen in your browser - HTML5 player(in browser, HTML5)
Click here to listen with your own player(launches your MP3 player)

GOBD 241600Z 31007KT 9999 SCT023 FEW030TCU 31/21 Q1012 NOSIG


Listeners: 0 out of 1424 total

Dakar Approach/Departure: 120.500
Dakar Ground: 121.800
Dakar Tower: 118.800

LBBG Twr/App (Archives)
Burgas, Bulgaria

Feed Status: UP
Listen in your browser - HTML5 player(in browser, HTML5)
Click here to listen with your own player(launches your MP3 player)

LBBG 241630Z 06008KT CAVOK 10/06 Q1031 NOSIG

LBBG Flight Activity (Flightaware)

Listeners: 0 out of 1424 total

Burgas Approach: 125.100
Burgas Tower: 118.000

LBPD Tower (Archives)
Plovdiv, Bulgaria

Feed Status: UP
Listen in your browser - HTML5 player(in browser, HTML5)
Click here to listen with your own player(launches your MP3 player)

LBSF 241630Z VRB01KT CAVOK 07/M00 Q1030 NOSIG

LBSF Flight Activity (Flightaware)

Listeners: 0 out of 1424 total

Plovdiv Tower: 125.500
Plovdiv Tower: 133.600

LBSF ATIS (Archives)
Sofia, Bulgaria

Feed Status: UP
Listen in your browser - HTML5 player(in browser, HTML5)
Click here to listen with your own player(launches your MP3 player)

LBSF 241630Z VRB01KT CAVOK 07/M00 Q1030 NOSIG

LBSF Flight Activity (Flightaware)

Listeners: 0 out of 1424 total

Sofia ATIS: 126.680

LBSF Sofia Control East (Archives)
Sofia, Bulgaria

Feed Status: UP
Listen in your browser - HTML5 player(in browser, HTML5)
Click here to listen with your own player(launches your MP3 player)

LBSF 241630Z VRB01KT CAVOK 07/M00 Q1030 NOSIG

LBSF Flight Activity (Flightaware)

Listeners: 1 out of 1424 total

Sofia Control (East/Middle Sector): 129.100
Sofia Control (Varna Sector): 134.700

LBSF Twr/App #1 (Archives)
Sofia, Bulgaria

Feed Status: UP
Listen in your browser - HTML5 player(in browser, HTML5)
Click here to listen with your own player(launches your MP3 player)

LBSF 241630Z VRB01KT CAVOK 07/M00 Q1030 NOSIG

LBSF Flight Activity (Flightaware)

Listeners: 4 out of 1424 total

Sofia Approach: 123.700
Sofia Approach: 129.900
Sofia Tower: 118.100
Sofia Tower: 120.200

LBSF Twr/App #2 (Archives)
Sofia, Bulgaria

Feed Status: UP
Listen in your browser - HTML5 player(in browser, HTML5)
Click here to listen with your own player(launches your MP3 player)

LBSF 241630Z VRB01KT CAVOK 07/M00 Q1030 NOSIG

LBSF Flight Activity (Flightaware)

Listeners: 0 out of 1424 total

Sofia Approach: 123.700
Sofia Tower: 118.100

LBWN Tower/Approach (Archives)
Varna, Bulgaria

Feed Status: UP
Listen in your browser - HTML5 player(in browser, HTML5)
Click here to listen with your own player(launches your MP3 player)

LBWN 241630Z 02004KT CAVOK 08/02 Q1031 NOSIG

LBWN Flight Activity (Flightaware)

Listeners: 1 out of 1424 total

Varna Approach: 121.000
Varna Tower: 119.500

Bordeaux Control (Archives)
Bordeaux, France

Feed Status: UP
Listen in your browser - HTML5 player(in browser, HTML5)
Click here to listen with your own player(launches your MP3 player)

LFBD 241600Z AUTO 00000KT CAVOK 20/08 Q1021 NOSIG

LFBD Flight Activity (Flightaware)

Listeners: 9 out of 1424 total

Air to Air: 123.450
Bordeaux Control BN FL<300: 127.675
Bordeaux Control L3 FL>300: 134.250
Bordeaux Control R2 FL>300: 133.575
Emergency/Guard: 121.500

LFBD Aquitane Approach (Archives)
Bordeaux, France

Feed Status: UP
Listen in your browser - HTML5 player(in browser, HTML5)
Click here to listen with your own player(launches your MP3 player)

LFBD 241600Z AUTO 00000KT CAVOK 20/08 Q1021 NOSIG

LFBD Flight Activity (Flightaware)

Listeners: 2 out of 1424 total

Aquitane Approach: 129.875

LFBD ATIS (Archives)
Bordeaux, France

Feed Status: UP
Listen in your browser - HTML5 player(in browser, HTML5)
Click here to listen with your own player(launches your MP3 player)

LFBD 241600Z AUTO 00000KT CAVOK 20/08 Q1021 NOSIG

LFBD Flight Activity (Flightaware)

Listeners: 1 out of 1424 total

Merignac ATIS: 131.150

LFBD Bordeaux Control Sector X1 (Archives)
Bordeaux, France

Feed Status: UP
Listen in your browser - HTML5 player(in browser, HTML5)
Click here to listen with your own player(launches your MP3 player)

LFBD 241600Z AUTO 00000KT CAVOK 20/08 Q1021 NOSIG

LFBD Flight Activity (Flightaware)

Listeners: 0 out of 1424 total

Bordeaux Control (Sector X1): 118.425

LFBD Ground (Archives)
Bordeaux, France

Feed Status: UP
Listen in your browser - HTML5 player(in browser, HTML5)
Click here to listen with your own player(launches your MP3 player)

LFBD 241600Z AUTO 00000KT CAVOK 20/08 Q1021 NOSIG

LFBD Flight Activity (Flightaware)

Listeners: 0 out of 1424 total

Merignac Ground: 121.900

LFBD Tower (Archives)
Bordeaux, France

Feed Status: UP
Listen in your browser - HTML5 player(in browser, HTML5)
Click here to listen with your own player(launches your MP3 player)

LFBD 241600Z AUTO 00000KT CAVOK 20/08 Q1021 NOSIG

LFBD Flight Activity (Flightaware)

Listeners: 1 out of 1424 total

Merignac Tower: 118.300

Bordeaux Control (Archives)
Angouleme, France

Feed Status: UP
Listen in your browser - HTML5 player(in browser, HTML5)
Click here to listen with your own player(launches your MP3 player)

LFBD 241600Z AUTO 00000KT CAVOK 20/08 Q1021 NOSIG

LFBD Flight Activity (Flightaware)

Listeners: 9 out of 1424 total

Air to Air: 123.450
Bordeaux Control BN FL<300: 127.675
Bordeaux Control L3 FL>300: 134.250
Bordeaux Control R2 FL>300: 133.575
Emergency/Guard: 121.500

LFLL Tower (Archives)
Lyon, France

Feed Status: UP
Listen in your browser - HTML5 player(in browser, HTML5)
Click here to listen with your own player(launches your MP3 player)

LFLL 241600Z 15006KT CAVOK 19/08 Q1022 NOSIG

LFLL Flight Activity (Flightaware)

Listeners: 2 out of 1424 total

Lyon Tower: 120.450

Lyon FIS (Archives)
Lyon, France

Feed Status: UP
Listen in your browser - HTML5 player(in browser, HTML5)
Click here to listen with your own player(launches your MP3 player)

LFLL 241600Z 15006KT CAVOK 19/08 Q1022 NOSIG

LFLL Flight Activity (Flightaware)

Listeners: 0 out of 1424 total

Lyon FIS: 135.200

LFLP Twr/LFLB App (Archives)
Annecy, France

Feed Status: UP
Listen in your browser - HTML5 player(in browser, HTML5)
Click here to listen with your own player(launches your MP3 player)

LFLP 241600Z AUTO 30005KT CAVOK 14/07 Q1023 NOSIG

LFLP Flight Activity (Flightaware)

Listeners: 1 out of 1424 total

Annecy Tower: 118.200
Chambery Approach: 121.205
Chambery Info: 123.700

LFLY Tower (Archives)
Bron, France

Feed Status: UP
Listen in your browser - HTML5 player(in browser, HTML5)
Click here to listen with your own player(launches your MP3 player)

LFLY 241600Z AUTO 20004KT 150V220 CAVOK 20/09 Q1022 NOSIG

LFLY Flight Activity (Flightaware)

Listeners: 0 out of 1424 total

Lyon-Bron Tower: 118.100

Lyon FIS (Archives)
Bron, France

Feed Status: UP
Listen in your browser - HTML5 player(in browser, HTML5)
Click here to listen with your own player(launches your MP3 player)

LFLL 241600Z 15006KT CAVOK 19/08 Q1022 NOSIG

LFLL Flight Activity (Flightaware)

Listeners: 0 out of 1424 total

Lyon FIS: 135.200

LFMD Ground/Tower (Archives)
Cannes, France

Feed Status: UP
Listen in your browser - HTML5 player(in browser, HTML5)
Click here to listen with your own player(launches your MP3 player)

LFMD 241600Z AUTO VRB02KT CAVOK 20/11 Q1022 NOSIG

LFMD Flight Activity (Flightaware)

Listeners: 0 out of 1424 total

Cannes Ground: 121.805
Cannes Tower: 118.625

LFMN Approach (Archives)
Nice, France

Feed Status: UP
Listen in your browser - HTML5 player(in browser, HTML5)
Click here to listen with your own player(launches your MP3 player)

LFMN 241600Z 10014KT CAVOK 20/13 Q1021 NOSIG

LFMN Flight Activity (Flightaware)

Listeners: 0 out of 1424 total

Nice Approach: 128.205

LFMN Control (High) (Archives)
Nice, France

Feed Status: UP
Listen in your browser - HTML5 player(in browser, HTML5)
Click here to listen with your own player(launches your MP3 player)

LFMN 241600Z 10014KT CAVOK 20/13 Q1021 NOSIG

LFMN Flight Activity (Flightaware)

Listeners: 1 out of 1424 total

Marseille Control Sector K1 (FL245-FL305): 126.780

LFMN FIS/Approach (Archives)
Nice, France

Feed Status: UP
Listen in your browser - HTML5 player(in browser, HTML5)
Click here to listen with your own player(launches your MP3 player)

LFMN 241600Z 10014KT CAVOK 20/13 Q1021 NOSIG

LFMN Flight Activity (Flightaware)

Listeners: 0 out of 1424 total

Nice FIS/Approach (TMA4 NICE 2500ft - FL115): 120.850

LFMN Ground/Tower (Archives)
Nice, France

Feed Status: UP
Listen in your browser - HTML5 player(in browser, HTML5)
Click here to listen with your own player(launches your MP3 player)

LFMN 241600Z 10014KT CAVOK 20/13 Q1021 NOSIG

LFMN Flight Activity (Flightaware)

Listeners: 0 out of 1424 total

Nice Ground: 121.700
Nice Tower: 118.700

LFPG Tower (Archives)
Paris, France

Feed Status: UP
Listen in your browser - HTML5 player(in browser, HTML5)
Click here to listen with your own player(launches your MP3 player)

LFPG 241600Z 19008KT CAVOK 14/05 Q1020 NOSIG

LFPG Flight Activity (Flightaware)

Listeners: 12 out of 1424 total

De Gaulle Tower: 120.900
De Gaulle Tower: 119.250

LFPO Approach (Archives)
Paris, France

Feed Status: UP
Listen in your browser - HTML5 player(in browser, HTML5)
Click here to listen with your own player(launches your MP3 player)

LFPO 241600Z 19006KT CAVOK 14/07 Q1020 NOSIG

LFPO Flight Activity (Flightaware)

Listeners: 4 out of 1424 total

Orly Approach: 124.450
Orly Approach: 118.850
Orly Approach: 120.850
Orly Approach: 123.875

LFPO Departure (Archives)
Paris, France

Feed Status: UP
Listen in your browser - HTML5 player(in browser, HTML5)
Click here to listen with your own player(launches your MP3 player)

LFPO 241600Z 19006KT CAVOK 14/07 Q1020 NOSIG

LFPO Flight Activity (Flightaware)

Listeners: 9 out of 1424 total

Orly Departure: 127.750

LFPO Tower (Archives)
Paris, France

Feed Status: UP
Listen in your browser - HTML5 player(in browser, HTML5)
Click here to listen with your own player(launches your MP3 player)

LFPO 241600Z 19006KT CAVOK 14/07 Q1020 NOSIG

LFPO Flight Activity (Flightaware)

Listeners: 4 out of 1424 total

Orly Tower: 120.500
Orly Tower: 118.700

LFPZ ATIS
Villacoublay, France

Feed Status: DOWN
Offline since: 2021-10-19 10:34:22 UTC

St. Cyr-L'Ecole ATIS: 131.025

LFPZ Tower
Villacoublay, France

Feed Status: DOWN
Offline since: 2021-10-19 10:34:39 UTC

St. Cyr-L'Ecole Tower: 118.000

LFSB Tower
Basel, Switzerland

Feed Status: DOWN
Offline since: 2021-09-13 19:32:39 UTC

LFSB 241600Z 17002KT CAVOK 16/06 Q1023 NOSIG

Mulhouse Tower: 118.300

LHBP Approach (Archives)
Budapest, Hungary

Feed Status: UP
Listen in your browser - HTML5 player(in browser, HTML5)
Click here to listen with your own player(launches your MP3 player)

LHBP 241630Z 04003KT CAVOK 06/M01 Q1032 NOSIG

LHBP Flight Activity (Flightaware)

Listeners: 1 out of 1424 total

Budapest Approach: 122.975
Budapest Approach (Upper): 123.860

LHBP Approach (Director) (Archives)
Budapest, Hungary

Feed Status: UP
Listen in your browser - HTML5 player(in browser, HTML5)
Click here to listen with your own player(launches your MP3 player)

LHBP 241630Z 04003KT CAVOK 06/M01 Q1032 NOSIG

LHBP Flight Activity (Flightaware)

Listeners: 0 out of 1424 total

Budapest Director: 119.510

LHBP ATIS (Archives)
Budapest, Hungary

Feed Status: UP
Listen in your browser - HTML5 player(in browser, HTML5)
Click here to listen with your own player(launches your MP3 player)

LHBP 241630Z 04003KT CAVOK 06/M01 Q1032 NOSIG

LHBP Flight Activity (Flightaware)

Listeners: 0 out of 1424 total

Budapest ATIS: 132.380

LHBP Clearance Delivery (Archives)
Budapest, Hungary

Feed Status: UP
Listen in your browser - HTML5 player(in browser, HTML5)
Click here to listen with your own player(launches your MP3 player)

LHBP 241630Z 04003KT CAVOK 06/M01 Q1032 NOSIG

LHBP Flight Activity (Flightaware)

Listeners: 0 out of 1424 total

Budapest Clearance Delivery: 134.540

LHBP Ground (Archives)
Budapest, Hungary

Feed Status: UP
Listen in your browser - HTML5 player(in browser, HTML5)
Click here to listen with your own player(launches your MP3 player)

LHBP 241630Z 04003KT CAVOK 06/M01 Q1032 NOSIG

LHBP Flight Activity (Flightaware)

Listeners: 0 out of 1424 total

Budapest Ground: 121.910

LHBP Info (Archives)
Budapest, Hungary

Feed Status: UP
Listen in your browser - HTML5 player(in browser, HTML5)
Click here to listen with your own player(launches your MP3 player)

LHBP 241630Z 04003KT CAVOK 06/M01 Q1032 NOSIG

LHBP Flight Activity (Flightaware)

Listeners: 0 out of 1424 total

Budapest Info: 119.350

LHBP Tower (Archives)
Budapest, Hungary

Feed Status: UP
Listen in your browser - HTML5 player(in browser, HTML5)
Click here to listen with your own player(launches your MP3 player)

LHBP 241630Z 04003KT CAVOK 06/M01 Q1032 NOSIG

LHBP Flight Activity (Flightaware)

Listeners: 4 out of 1424 total

Budapest Tower: 118.100

LHBP Twr/Info (Archives)
Budapest, Hungary

Feed Status: UP
Listen in your browser - HTML5 player(in browser, HTML5)
Click here to listen with your own player(launches your MP3 player)

LHBP 241630Z 04003KT CAVOK 06/M01 Q1032 NOSIG

LHBP Flight Activity (Flightaware)

Listeners: 0 out of 1424 total

Budapest Info: 119.350
Budapest Tower: 118.100

LHCC Control (East/West) (Archives)
Budapest, Hungary

Feed Status: UP
Listen in your browser - HTML5 player(in browser, HTML5)
Click here to listen with your own player(launches your MP3 player)

LHBP 241630Z 04003KT CAVOK 06/M01 Q1032 NOSIG

LHBP Flight Activity (Flightaware)

Listeners: 0 out of 1424 total

Budapest Control (East Low Sector): 120.375
Budapest Control (West Low Sector): 133.200

LHDC Info/Tower (Archives)
Debrecen, Hungary

Feed Status: UP
Listen in your browser - HTML5 player(in browser, HTML5)
Click here to listen with your own player(launches your MP3 player)

LHDC 241545Z AUTO 34001KT 9000 NCD 09/M01 Q1032 NOSIG

LHDC Flight Activity (Flightaware)

Listeners: 0 out of 1424 total

Debrecen Info/Tower: 125.900

LHEM CTAF (Archives)
Esztergom, Hungary

Feed Status: UP
Listen in your browser - HTML5 player(in browser, HTML5)
Click here to listen with your own player(launches your MP3 player)

LHEM Flight Activity (Flightaware)

Listeners: 0 out of 1424 total

Esztergom CTAF: 126.850

LHOY CTAF (Archives)
Ocseny, Hungary

Feed Status: UP
Listen in your browser - HTML5 player(in browser, HTML5)
Click here to listen with your own player(launches your MP3 player)

LHOY Flight Activity (Flightaware)

Listeners: 0 out of 1424 total

Ocseny CTAF: 122.830

LHPR Info/AFIS (Archives)
Gyor, Hungary

Feed Status: UP
Listen in your browser - HTML5 player(in browser, HTML5)
Click here to listen with your own player(launches your MP3 player)

LHPR 241545Z AUTO 12008KT CAVOK 09/01 Q1031 NOSIG

LHPR Flight Activity (Flightaware)

Listeners: 1 out of 1424 total

Gyor AFIS: 129.910

LJLJ Info (Archives)
Ljubljana, Slovenia

Feed Status: UP
Listen in your browser - HTML5 player(in browser, HTML5)
Click here to listen with your own player(launches your MP3 player)

LJLJ 241600Z VRB01KT 9999 FEW040 07/05 Q1029 NOSIG

LJLJ Flight Activity (Flightaware)

Listeners: 0 out of 1424 total

Ljubljana Info: 118.475

LJLJ Radar (Archives)
Ljubljana, Slovenia

Feed Status: UP
Listen in your browser - HTML5 player(in browser, HTML5)
Click here to listen with your own player(launches your MP3 player)

LJLJ 241600Z VRB01KT 9999 FEW040 07/05 Q1029 NOSIG

LJLJ Flight Activity (Flightaware)

Listeners: 0 out of 1424 total

Ljubljana Approach: 135.275

LJLJ Tower (Archives)
Ljubljana, Slovenia

Feed Status: UP
Listen in your browser - HTML5 player(in browser, HTML5)
Click here to listen with your own player(launches your MP3 player)

LJLJ 241600Z VRB01KT 9999 FEW040 07/05 Q1029 NOSIG

LJLJ Flight Activity (Flightaware)

Listeners: 1 out of 1424 total

Ljubljana Tower: 118.000

LJMB Tower (Archives)
Maribor, Slovenia

Feed Status: UP
Listen in your browser - HTML5 player(in browser, HTML5)
Click here to listen with your own player(launches your MP3 player)

LJMB 241600Z 14004KT CAVOK 10/03 Q1030

LJMB Flight Activity (Flightaware)

Listeners: 1 out of 1424 total

Maribor Tower/Approach: 119.200

LJMS CTAF (Archives)
Murska Sobota, Slovenia

Feed Status: UP
Listen in your browser - HTML5 player(in browser, HTML5)
Click here to listen with your own player(launches your MP3 player)

LJMS Flight Activity (Flightaware)

Listeners: 0 out of 1424 total

Murska Sobota Aerodrome Radio: 123.500

LJPZ Tower
Secovlje, Slovenia

Feed Status: DOWN
Offline since: 2021-09-25 19:33:40 UTC

LJPZ 241600Z 06009KT 030V100 CAVOK 14/02 Q1026

Portoroz Tower: 124.875

LKKV Tower
Karlovy Vary, Czech Republic

Feed Status: DOWN
Offline since: 2021-07-25 13:44:06 UTC

LKKV 241600Z 09005KT CAVOK 05/M00 Q1026

Vary Tower: 121.230

LKPM Tower
Pribram, Czech Republic

Feed Status: DOWN
Offline since: 2021-10-24 16:36:05 UTC

Pribram Tower: 118.755

LKAA FIR (High) (Archives)
Prague, Czech Republic

Feed Status: UP
Listen in your browser - HTML5 player(in browser, HTML5)
Click here to listen with your own player(launches your MP3 player)

LKAA Flight Activity (Flightaware)

Listeners: 0 out of 1424 total

LKAA FIR Sector West High / Praha Radar : 132.065

LKAA FIR (Low) (Archives)
Prague, Czech Republic

Feed Status: UP
Listen in your browser - HTML5 player(in browser, HTML5)
Click here to listen with your own player(launches your MP3 player)

LKAA Flight Activity (Flightaware)

Listeners: 0 out of 1424 total

LKAA FIR Sector West Low / Praha Radar: 120.275

LKPR Approach (Archives)
Prague, Czech Republic

Feed Status: UP
Listen in your browser - HTML5 player(in browser, HTML5)
Click here to listen with your own player(launches your MP3 player)

LKPR 241600Z 12007KT CAVOK 07/M01 Q1027 NOSIG

LKPR Flight Activity (Flightaware)

Listeners: 2 out of 1424 total

Prague Approach/Radar: 127.580

LKPR Clearance Del (Archives)
Prague, Czech Republic

Feed Status: UP
Listen in your browser - HTML5 player(in browser, HTML5)
Click here to listen with your own player(launches your MP3 player)

LKPR 241600Z 12007KT CAVOK 07/M01 Q1027 NOSIG

LKPR Flight Activity (Flightaware)

Listeners: 0 out of 1424 total

Prague/Ruzyne Clearance Delivery: 120.060

LKPR Director/Ruzyne Radar (Archives)
Prague, Czech Republic

Feed Status: UP
Listen in your browser - HTML5 player(in browser, HTML5)
Click here to listen with your own player(launches your MP3 player)

LKPR 241600Z 12007KT CAVOK 07/M01 Q1027 NOSIG

LKPR Flight Activity (Flightaware)

Listeners: 3 out of 1424 total

Prague Director/Ruzyne Radar: 119.010

LKPR Ground (Archives)
Prague, Czech Republic

Feed Status: UP
Listen in your browser - HTML5 player(in browser, HTML5)
Click here to listen with your own player(launches your MP3 player)

LKPR 241600Z 12007KT CAVOK 07/M01 Q1027 NOSIG

LKPR Flight Activity (Flightaware)

Listeners: 4 out of 1424 total

Prague/Ruzyne Ground: 121.910

LKPR Tower (Archives)
Prague, Czech Republic

Feed Status: UP
Listen in your browser - HTML5 player(in browser, HTML5)
Click here to listen with your own player(launches your MP3 player)

LKPR 241600Z 12007KT CAVOK 07/M01 Q1027 NOSIG

LKPR Flight Activity (Flightaware)

Listeners: 4 out of 1424 total

Prague/Ruzyne Tower: 134.560

LKTB Gnd/Twr/Radar (Archives)
Brno, Czech Republic

Feed Status: UP
Listen in your browser - HTML5 player(in browser, HTML5)
Click here to listen with your own player(launches your MP3 player)

LKTB 241600Z 12006KT CAVOK 07/M02 Q1030 NOSIG

LKTB Flight Activity (Flightaware)

Listeners: 0 out of 1424 total

Brno Ground: 125.430
Brno Handling: 131.800
Brno Tower: 119.605
Praha Radar (Approach): 127.350

LMML GndTwr/App/Control (Archives)
Luqa, Malta

Feed Status: UP
Listen in your browser - HTML5 player(in browser, HTML5)
Click here to listen with your own player(launches your MP3 player)

LMML 241615Z 24012KT 200V270 CAVOK 22/20 Q1011 NOSIG

LMML Flight Activity (Flightaware)

Listeners: 4 out of 1424 total

Emergency/Guard: 121.500
Luqa Ground: 121.600
Luqa Radar: 128.150
Luqa Tower: 135.100
Malta Radar - East (Primary): 122.775
Malta Radar - East (Secondary): 123.625
Malta Radar - UHF: 284.500
Malta Radar - West (Primary): 130.975
Malta Radar - West (Secondary): 127.525

LPCS Tower (Archives)
Cascais, Portugal

Feed Status: UP
Listen in your browser - HTML5 player(in browser, HTML5)
Click here to listen with your own player(launches your MP3 player)

LPCS 241600Z 01007KT CAVOK 21/10 Q1022

LPCS Flight Activity (Flightaware)

Listeners: 1 out of 1424 total

Cascais Tower: 120.305

LPMA App/LPPC Center (Archives)
Madeira, Portugal

Feed Status: UP
Listen in your browser - HTML5 player(in browser, HTML5)
Click here to listen with your own player(launches your MP3 player)

LPPC Flight Activity (Flightaware)

Listeners: 0 out of 1424 total

Lisboa Control (Madeira Sector): 132.255
Madeira Approach: 119.605

LPMA Approach (Archives)
Madeira, Portugal

Feed Status: UP
Listen in your browser - HTML5 player(in browser, HTML5)
Click here to listen with your own player(launches your MP3 player)

LPMA 241600Z 36012KT 340V050 9999 SCT015 SCT030 22/15 Q1022

LPMA Flight Activity (Flightaware)

Listeners: 0 out of 1424 total

Madeira Approach: 119.605

LPPR Approach #1 (Archives)
Porto, Portugal

Feed Status: UP
Listen in your browser - HTML5 player(in browser, HTML5)
Click here to listen with your own player(launches your MP3 player)

LPPR 241600Z 26003KT 220V300 9999 SCT015 BKN025 18/14 Q1023

LPPR Flight Activity (Flightaware)

Listeners: 0 out of 1424 total

Porto Approach: 121.105

LPPT Approach (Archives)
Lisbon, Portugal

Feed Status: UP
Listen in your browser - HTML5 player(in browser, HTML5)
Click here to listen with your own player(launches your MP3 player)

LPPT 241600Z 30007KT CAVOK 22/08 Q1022

LPPT Flight Activity (Flightaware)

Listeners: 5 out of 1424 total

Lisbon Approach: 119.105

LRCL Twr/App #1 (Archives)
Cluj-Napoca, Romania

Feed Status: UP
Listen in your browser - HTML5 player(in browser, HTML5)
Click here to listen with your own player(launches your MP3 player)

LRCL 241600Z 29004KT 270V330 CAVOK 05/M01 Q1032

LRCL Flight Activity (Flightaware)

Listeners: 2 out of 1424 total

Cluj Approach: 126.425
Cluj Tower: 118.705

LRCL Twr/App/ACC (Archives)
Cluj-Napoca, Romania

Feed Status: UP
Listen in your browser - HTML5 player(in browser, HTML5)
Click here to listen with your own player(launches your MP3 player)

LRCL 241600Z 29004KT 270V330 CAVOK 05/M01 Q1032

LRCL Flight Activity (Flightaware)

Listeners: 0 out of 1424 total

Cluj Approach: 126.425
Cluj Tower: 118.705
Napoc ACC: 127.075

LROP Ground (Archives)
Bucharest, Romania

Feed Status: UP
Listen in your browser - HTML5 player(in browser, HTML5)
Click here to listen with your own player(launches your MP3 player)

LROP 241600Z 19004KT 150V210 CAVOK 12/02 Q1031 NOSIG

LROP Flight Activity (Flightaware)

Listeners: 0 out of 1424 total

Bucharest Ground: 121.855

LROP Radar (Archives)
Bucharest, Romania

Feed Status: UP
Listen in your browser - HTML5 player(in browser, HTML5)
Click here to listen with your own player(launches your MP3 player)

LROP 241600Z 19004KT 150V210 CAVOK 12/02 Q1031 NOSIG

LROP Flight Activity (Flightaware)

Listeners: 0 out of 1424 total

Bucharest Radar (Arges Mid sector): 121.175
Bucharest Radar (Arges Top Sector): 123.265
Bucharest Radar (Lomos Top Sector): 132.865

LROP Tower/Approach (Archives)
Bucharest, Romania

Feed Status: UP
Listen in your browser - HTML5 player(in browser, HTML5)
Click here to listen with your own player(launches your MP3 player)

LROP 241600Z 19004KT 150V210 CAVOK 12/02 Q1031 NOSIG

LROP Flight Activity (Flightaware)

Listeners: 0 out of 1424 total

Bucharest Approach: 119.415
Bucharest Director: 127.155
Bucharest Tower: 118.805

LROP Twr/App/Radar (Archives)
Bucharest, Romania

Feed Status: UP
Listen in your browser - HTML5 player(in browser, HTML5)
Click here to listen with your own player(launches your MP3 player)

LROP 241600Z 19004KT 150V210 CAVOK 12/02 Q1031 NOSIG

LROP Flight Activity (Flightaware)

Listeners: 3 out of 1424 total

Bucharest Approach: 119.415
Bucharest Director: 127.155
Bucharest Radar (Arges Mid sector): 121.175
Bucharest Radar (Arges Top Sector): 123.265
Bucharest Radar (Lomos Top Sector): 132.865
Bucharest Tower: 118.805

LRSB Tower/CTAF (Archives)
Sibiu, Romania

Feed Status: UP
Listen in your browser - HTML5 player(in browser, HTML5)
Click here to listen with your own player(launches your MP3 player)

LRSB 241600Z 22003KT CAVOK 05/M01 Q1031

LRSB Flight Activity (Flightaware)

Listeners: 0 out of 1424 total

Sibiu Tower: 121.305

LRTR Tower (Archives)
Timisoara, Romania

Feed Status: UP
Listen in your browser - HTML5 player(in browser, HTML5)
Click here to listen with your own player(launches your MP3 player)

LRTR 241600Z 36007KT CAVOK 08/01 Q1031 NOSIG

LRTR Flight Activity (Flightaware)

Listeners: 1 out of 1424 total

ARAD Approach: 127.250
Timisoara Tower: 120.100

LSGG Arr/Dep (Archives)
Geneva, Switzerland

Feed Status: UP
Listen in your browser - HTML5 player(in browser, HTML5)
Click here to listen with your own player(launches your MP3 player)

LSGG 241620Z 09003KT CAVOK 11/07 Q1023 NOSIG

LSGG Flight Activity (Flightaware)

Listeners: 3 out of 1424 total

Geneva Arrival: 136.255
Geneva Departure: 119.350

LSGG Arrival (Archives)
Geneva, Switzerland

Feed Status: UP
Listen in your browser - HTML5 player(in browser, HTML5)
Click here to listen with your own player(launches your MP3 player)

LSGG 241620Z 09003KT CAVOK 11/07 Q1023 NOSIG

LSGG Flight Activity (Flightaware)

Listeners: 1 out of 1424 total

Geneva Arrival: 136.255

LSGG ATIS (Archives)
Geneva, Switzerland

Feed Status: UP
Listen in your browser - HTML5 player(in browser, HTML5)
Click here to listen with your own player(launches your MP3 player)

LSGG 241620Z 09003KT CAVOK 11/07 Q1023 NOSIG

LSGG Flight Activity (Flightaware)

Listeners: 0 out of 1424 total

Geneva ATIS: 135.575

LSGG Delta (VFR) (Archives)
Geneva, Switzerland

Feed Status: UP
Listen in your browser - HTML5 player(in browser, HTML5)
Click here to listen with your own player(launches your MP3 player)

LSGG 241620Z 09003KT CAVOK 11/07 Q1023 NOSIG

LSGG Flight Activity (Flightaware)

Listeners: 0 out of 1424 total

Geneva Delta (VFR): 119.175

LSGG Departure (Archives)
Geneva, Switzerland

Feed Status: UP
Listen in your browser - HTML5 player(in browser, HTML5)
Click here to listen with your own player(launches your MP3 player)

LSGG 241620Z 09003KT CAVOK 11/07 Q1023 NOSIG

LSGG Flight Activity (Flightaware)

Listeners: 0 out of 1424 total

Geneva Departure: 119.530

LSGG Glider
Geneva, Switzerland

Feed Status: DOWN
Offline since: 2021-10-24 13:37:05 UTC

LSGG 241620Z 09003KT CAVOK 11/07 Q1023 NOSIG

Geneva Glider: 124.750

LSGG Info (VFR)
Geneva, Switzerland

Feed Status: DOWN
Offline since: 2021-10-24 13:37:05 UTC

LSGG 241620Z 09003KT CAVOK 11/07 Q1023 NOSIG

Geneva Information (VFR): 126.350

LSGG Radar Ini N/E/S (Archives)
Geneva, Switzerland

Feed Status: UP
Listen in your browser - HTML5 player(in browser, HTML5)
Click here to listen with your own player(launches your MP3 player)

LSGG 241620Z 09003KT CAVOK 11/07 Q1023 NOSIG

LSGG Flight Activity (Flightaware)

Listeners: 0 out of 1424 total

Geneva Radar Initial East: 128.905
Geneva Radar Initial North: 134.030
Geneva Radar Initial South: 124.225

LSGG Radar Initial East (Archives)
Geneva, Switzerland

Feed Status: UP
Listen in your browser - HTML5 player(in browser, HTML5)
Click here to listen with your own player(launches your MP3 player)

LSGG 241620Z 09003KT CAVOK 11/07 Q1023 NOSIG

LSGG Flight Activity (Flightaware)

Listeners: 1 out of 1424 total

Geneva Radar Initial East: 128.905

LSGG Radar Initial North (Archives)
Geneva, Switzerland

Feed Status: UP
Listen in your browser - HTML5 player(in browser, HTML5)
Click here to listen with your own player(launches your MP3 player)

LSGG 241620Z 09003KT CAVOK 11/07 Q1023 NOSIG

LSGG Flight Activity (Flightaware)

Listeners: 0 out of 1424 total

Geneva Radar Initial North: 134.030

LSGG Radar Initial South
Geneva, Switzerland

Feed Status: DOWN
Offline since: 2021-10-24 13:37:05 UTC

LSGG 241620Z 09003KT CAVOK 11/07 Q1023 NOSIG

Geneva Radar Initial South: 124.225

LSGG Radar L1 250-280 (Archives)
Geneva, Switzerland

Feed Status: UP
Listen in your browser - HTML5 player(in browser, HTML5)
Click here to listen with your own player(launches your MP3 player)

LSGG 241620Z 09003KT CAVOK 11/07 Q1023 NOSIG

LSGG Flight Activity (Flightaware)

Listeners: 0 out of 1424 total

Geneva Radar L1 FL250-280: 134.850

LSGG Radar L1/L2/L3/L4/L5 (Archives)
Geneva, Switzerland

Feed Status: UP
Listen in your browser - HTML5 player(in browser, HTML5)
Click here to listen with your own player(launches your MP3 player)

LSGG 241620Z 09003KT CAVOK 11/07 Q1023 NOSIG

LSGG Flight Activity (Flightaware)

Listeners: 0 out of 1424 total

Geneva Radar L1 FL250-280: 134.850
Geneva Radar L2 FL290-310: 126.050
Geneva Radar L3 FL320-330: 134.315
Geneva Radar L3 FL320-330: 136.015
Geneva Radar L5 FL360-370: 128.155

LSGG Radar L2 290-310
Geneva, Switzerland

Feed Status: DOWN
Offline since: 2021-10-24 13:37:05 UTC

LSGG 241620Z 09003KT CAVOK 11/07 Q1023 NOSIG

Geneva Radar L2 FL290-310: 126.050

LSGG Radar L3 320-330 (Archives)
Geneva, Switzerland

Feed Status: UP
Listen in your browser - HTML5 player(in browser, HTML5)
Click here to listen with your own player(launches your MP3 player)

LSGG 241620Z 09003KT CAVOK 11/07 Q1023 NOSIG

LSGG Flight Activity (Flightaware)

Listeners: 0 out of 1424 total

Geneva Radar L3 FL320-330: 134.315

LSGG Radar L4 340-350 (Archives)
Geneva, Switzerland

Feed Status: UP
Listen in your browser - HTML5 player(in browser, HTML5)
Click here to listen with your own player(launches your MP3 player)

LSGG 241620Z 09003KT CAVOK 11/07 Q1023 NOSIG

LSGG Flight Activity (Flightaware)

Listeners: 0 out of 1424 total

Geneva Radar L4 FL340-350: 136.015

LSGG Radar L5 360-370 (Archives)
Geneva, Switzerland

Feed Status: UP
Listen in your browser - HTML5 player(in browser, HTML5)
Click here to listen with your own player(launches your MP3 player)

LSGG 241620Z 09003KT CAVOK 11/07 Q1023 NOSIG

LSGG Flight Activity (Flightaware)

Listeners: 1 out of 1424 total

Geneva Radar L5 FL360-370: 128.155

LSGS Gnd/Twr/App (Archives)
Sion, Switzerland

Feed Status: UP
Listen in your browser - HTML5 player(in browser, HTML5)
Click here to listen with your own player(launches your MP3 player)

LSGS 241620Z VRB02KT CAVOK 14/04 Q1023

LSGS Flight Activity (Flightaware)

Listeners: 0 out of 1424 total

Alpine Jet Service Handling: 131.675
Sion Airport Handling: 131.475
Sion Approach (IFR ARR MIL OFF): 126.825
Sion Ground: 121.700
Sion Tower: 118.275

LSMD Tower (Archives)
Dubendorf, Switzerland

Feed Status: UP
Listen in your browser - HTML5 player(in browser, HTML5)
Click here to listen with your own player(launches your MP3 player)

LSZH 241620Z 32004KT 280V350 CAVOK 08/06 Q1024 NOSIG

LSZH Flight Activity (Flightaware)

Listeners: 0 out of 1424 total

Dubendorf Tower: 118.975

LSMP Arrival (Archives)
Payerne, Switzerland

Feed Status: UP
Listen in your browser - HTML5 player(in browser, HTML5)
Click here to listen with your own player(launches your MP3 player)

LSMP 241620Z AUTO 00000KT 9999NDV -SHRA NCD 12/07 Q1024 RMK

LSMP Flight Activity (Flightaware)

Listeners: 1 out of 1424 total

Payerne Arrival: 136.350

LSMP Arrival/Tower (Archives)
Payerne, Switzerland

Feed Status: UP
Listen in your browser - HTML5 player(in browser, HTML5)
Click here to listen with your own player(launches your MP3 player)

LSMP 241620Z AUTO 00000KT 9999NDV -SHRA NCD 12/07 Q1024 RMK

LSMP Flight Activity (Flightaware)

Listeners: 0 out of 1424 total

Payerne Arrival: 136.350
Payerne Tower: 128.675

LSMP Tower (Archives)
Payerne, Switzerland

Feed Status: UP
Listen in your browser - HTML5 player(in browser, HTML5)
Click here to listen with your own player(launches your MP3 player)

LSMP 241620Z AUTO 00000KT 9999NDV -SHRA NCD 12/07 Q1024 RMK

LSMP Flight Activity (Flightaware)

Listeners: 0 out of 1424 total

Payerne Tower: 128.675

LSPM AFIS (Archives)
Ambri, Switzerland

Feed Status: UP
Listen in your browser - HTML5 player(in browser, HTML5)
Click here to listen with your own player(launches your MP3 player)

LSPM Flight Activity (Flightaware)

Listeners: 0 out of 1424 total

Ambri AFIS: 118.525

LSZA Tower (Archives)
Agno, Switzerland

Feed Status: UP
Listen in your browser - HTML5 player(in browser, HTML5)
Click here to listen with your own player(launches your MP3 player)

LSZA 241620Z AUTO VRB02KT 9999 -RA BKN/// 12/08 Q1026

LSZA Flight Activity (Flightaware)

Listeners: 0 out of 1424 total

Lugano Tower: 120.250

LSZB App/Dep (Archives)
Bern, Switzerland

Feed Status: UP
Listen in your browser - HTML5 player(in browser, HTML5)
Click here to listen with your own player(launches your MP3 player)

LSZB 241620Z 24003KT CAVOK 10/06 Q1023 NOSIG

LSZB Flight Activity (Flightaware)

Listeners: 0 out of 1424 total

Bern Arrival/Departure: 127.325

LSZB ATIS (Archives)
Bern, Switzerland

Feed Status: UP
Listen in your browser - HTML5 player(in browser, HTML5)
Click here to listen with your own player(launches your MP3 player)

LSZB 241620Z 24003KT CAVOK 10/06 Q1023 NOSIG

LSZB Flight Activity (Flightaware)

Listeners: 0 out of 1424 total

Bern ATIS: 125.125

LSZB Clearance Delivery (Archives)
Bern, Switzerland

Feed Status: UP
Listen in your browser - HTML5 player(in browser, HTML5)
Click here to listen with your own player(launches your MP3 player)

LSZB 241620Z 24003KT CAVOK 10/06 Q1023 NOSIG

LSZB Flight Activity (Flightaware)

Listeners: 0 out of 1424 total

Bern Clearance Delivery: 121.905

LSZB Del/Twr/App/Dep (Archives)
Bern, Switzerland

Feed Status: UP
Listen in your browser - HTML5 player(in browser, HTML5)
Click here to listen with your own player(launches your MP3 player)

LSZB 241620Z 24003KT CAVOK 10/06 Q1023 NOSIG

LSZB Flight Activity (Flightaware)

Listeners: 0 out of 1424 total

Bern Arrival/Departure: 127.325
Bern Clearance Delivery: 121.905
Bern Tower: 121.025

LSZB Tower (Archives)
Bern, Switzerland

Feed Status: UP
Listen in your browser - HTML5 player(in browser, HTML5)
Click here to listen with your own player(launches your MP3 player)

LSZB 241620Z 24003KT CAVOK 10/06 Q1023 NOSIG

LSZB Flight Activity (Flightaware)

Listeners: 0 out of 1424 total

Bern Tower: 121.025

LSZB Twr/App/Dep (Archives)
Bern, Switzerland

Feed Status: UP
Listen in your browser - HTML5 player(in browser, HTML5)
Click here to listen with your own player(launches your MP3 player)

LSZB 241620Z 24003KT CAVOK 10/06 Q1023 NOSIG

LSZB Flight Activity (Flightaware)

Listeners: 1 out of 1424 total

Bern Arrival/Departure: 127.325
Bern Tower: 121.025

LSZG Tower (Archives)
Grenchen, Switzerland

Feed Status: UP
Listen in your browser - HTML5 player(in browser, HTML5)
Click here to listen with your own player(launches your MP3 player)

LSZG 241620Z 23001KT CAVOK 12/05 Q1024 NOSIG

LSZG Flight Activity (Flightaware)

Listeners: 0 out of 1424 total

Grenchen Tower: 120.100

LSZH Approach (East) (Archives)
Zurich, Switzerland

Feed Status: UP
Listen in your browser - HTML5 player(in browser, HTML5)
Click here to listen with your own player(launches your MP3 player)

LSZH 241620Z 32004KT 280V350 CAVOK 08/06 Q1024 NOSIG

LSZH Flight Activity (Flightaware)

Listeners: 3 out of 1424 total

Zurich Approach (East): 135.225

LSZH Apron (South) (Archives)
Zurich, Switzerland

Feed Status: UP
Listen in your browser - HTML5 player(in browser, HTML5)
Click here to listen with your own player(launches your MP3 player)

LSZH 241620Z 32004KT 280V350 CAVOK 08/06 Q1024 NOSIG

LSZH Flight Activity (Flightaware)

Listeners: 3 out of 1424 total

Zurich Apron (South): 121.755

LSZH Apron (West) (Archives)
Zurich, Switzerland

Feed Status: UP
Listen in your browser - HTML5 player(in browser, HTML5)
Click here to listen with your own player(launches your MP3 player)

LSZH 241620Z 32004KT 280V350 CAVOK 08/06 Q1024 NOSIG

LSZH Flight Activity (Flightaware)

Listeners: 3 out of 1424 total

Zurich Apron (West): 121.855

LSZH Clearance Delivery (Archives)
Zurich, Switzerland

Feed Status: UP
Listen in your browser - HTML5 player(in browser, HTML5)
Click here to listen with your own player(launches your MP3 player)

LSZH 241620Z 32004KT 280V350 CAVOK 08/06 Q1024 NOSIG

LSZH Flight Activity (Flightaware)

Listeners: 4 out of 1424 total

Zurich Clearance Delivery: 121.925

LSZH Ground (Archives)
Zurich, Switzerland

Feed Status: UP
Listen in your browser - HTML5 player(in browser, HTML5)
Click here to listen with your own player(launches your MP3 player)

LSZH 241620Z 32004KT 280V350 CAVOK 08/06 Q1024 NOSIG

LSZH Flight Activity (Flightaware)

Listeners: 0 out of 1424 total

Zurich Ground: 121.905

LSZH Radar 132.815 (Archives)
Zurich, Switzerland

Feed Status: UP
Listen in your browser - HTML5 player(in browser, HTML5)
Click here to listen with your own player(launches your MP3 player)

LSZH 241620Z 32004KT 280V350 CAVOK 08/06 Q1024 NOSIG

LSZH Flight Activity (Flightaware)

Listeners: 7 out of 1424 total

Zurich Radar: 132.815

LSZH Radar 133.050 (Archives)
Zurich, Switzerland

Feed Status: UP
Listen in your browser - HTML5 player(in browser, HTML5)
Click here to listen with your own player(launches your MP3 player)

LSZH 241620Z 32004KT 280V350 CAVOK 08/06 Q1024 NOSIG

LSZH Flight Activity (Flightaware)

Listeners: 0 out of 1424 total

Zurich Radar: 133.050

LSZH Radar 133.405 (Archives)
Zurich, Switzerland

Feed Status: UP
Listen in your browser - HTML5 player(in browser, HTML5)
Click here to listen with your own player(launches your MP3 player)

LSZH 241620Z 32004KT 280V350 CAVOK 08/06 Q1024 NOSIG

LSZH Flight Activity (Flightaware)

Listeners: 0 out of 1424 total

Zurich Radar: 133.405

LSZH Radar 133.690 (Archives)
Zurich, Switzerland

Feed Status: UP
Listen in your browser - HTML5 player(in browser, HTML5)
Click here to listen with your own player(launches your MP3 player)

LSZH 241620Z 32004KT 280V350 CAVOK 08/06 Q1024 NOSIG

LSZH Flight Activity (Flightaware)

Listeners: 0 out of 1424 total

Zurich Radar: 133.690

LSZH Radar 133.905 (Archives)
Zurich, Switzerland

Feed Status: UP
Listen in your browser - HTML5 player(in browser, HTML5)
Click here to listen with your own player(launches your MP3 player)

LSZH 241620Z 32004KT 280V350 CAVOK 08/06 Q1024 NOSIG

LSZH Flight Activity (Flightaware)

Listeners: 0 out of 1424 total

Zurich Radar (Below FL240 East): 133.905

LSZH Radar 134.605 (Archives)
Zurich, Switzerland

Feed Status: UP
Listen in your browser - HTML5 player(in browser, HTML5)
Click here to listen with your own player(launches your MP3 player)

LSZH 241620Z 32004KT 280V350 CAVOK 08/06 Q1024 NOSIG

LSZH Flight Activity (Flightaware)

Listeners: 0 out of 1424 total

Zurich Radar (FL330-350): 134.605

LSZH Radar 135.680 (Archives)
Zurich, Switzerland

Feed Status: UP
Listen in your browser - HTML5 player(in browser, HTML5)
Click here to listen with your own player(launches your MP3 player)

LSZH 241620Z 32004KT 280V350 CAVOK 08/06 Q1024 NOSIG

LSZH Flight Activity (Flightaware)

Listeners: 1 out of 1424 total


LSZH Radar 136.155 (Archives)
Zurich, Switzerland

Feed Status: UP
Listen in your browser - HTML5 player(in browser, HTML5)
Click here to listen with your own player(launches your MP3 player)

LSZH 241620Z 32004KT 280V350 CAVOK 08/06 Q1024 NOSIG

LSZH Flight Activity (Flightaware)

Listeners: 0 out of 1424 total

Zurich Radar (Below FL240 North): 136.155

LSZH Tower (Archives)
Zurich, Switzerland

Feed Status: UP
Listen in your browser - HTML5 player(in browser, HTML5)
Click here to listen with your own player(launches your MP3 player)

LSZH 241620Z 32004KT 280V350 CAVOK 08/06 Q1024 NOSIG

LSZH Flight Activity (Flightaware)

Listeners: 12 out of 1424 total

Zurich Tower: 118.100

LSZH Tower (14/32) (Archives)
Zurich, Switzerland

Feed Status: UP
Listen in your browser - HTML5 player(in browser, HTML5)
Click here to listen with your own player(launches your MP3 player)

LSZH 241620Z 32004KT 280V350 CAVOK 08/06 Q1024 NOSIG

LSZH Flight Activity (Flightaware)

Listeners: 0 out of 1424 total

Zurich Tower (Rwy 14 App/32 Takeoff): 120.225

LSZH Twr/Gnd (backup) (Archives)
Zurich, Switzerland

Feed Status: UP
Listen in your browser - HTML5 player(in browser, HTML5)
Click here to listen with your own player(launches your MP3 player)

LSZH 241620Z 32004KT 280V350 CAVOK 08/06 Q1024 NOSIG

LSZH Flight Activity (Flightaware)

Listeners: 2 out of 1424 total

Zurich Twr/Gnd (backup): 119.700

LSZL Tower (Archives)
Locarno, Switzerland

Feed Status: UP
Listen in your browser - HTML5 player(in browser, HTML5)
Click here to listen with your own player(launches your MP3 player)

LSZL 241620Z AUTO VRB01KT 1900NDV NCD 11/09 Q1026 RMK

LSZL Flight Activity (Flightaware)

Listeners: 0 out of 1424 total


LSZN CTAF (Archives)
Zurich, Switzerland

Feed Status: UP
Listen in your browser - HTML5 player(in browser, HTML5)
Click here to listen with your own player(launches your MP3 player)

LSZN Flight Activity (Flightaware)

Listeners: 0 out of 1424 total

Hausen am Albis CTAF: 130.755

LSZR Tower (Archives)
Altenrhein, Switzerland

Feed Status: UP
Listen in your browser - HTML5 player(in browser, HTML5)
Click here to listen with your own player(launches your MP3 player)

LSZR 241620Z 23002KT CAVOK 07/06 Q1024 NOSIG RMK H

LSZR Flight Activity (Flightaware)

Listeners: 0 out of 1424 total

Altenrhein Tower: 135.425

LSZW CTAF
Thun, Switzerland

Feed Status: DOWN
Offline since: 2021-10-18 13:00:39 UTC

Thun CTAF/Info: 123.250

LTBA Gnd/Twr/App (Archives)
Istanbul, Turkey

Feed Status: UP
Listen in your browser - HTML5 player(in browser, HTML5)
Click here to listen with your own player(launches your MP3 player)

LTBA 241620Z 04017KT 9999 BKN035 13/08 Q1029 NOSIG RMK RWY23 04015KT

LTBA Flight Activity (Flightaware)

Listeners: 1 out of 1424 total

Istanbul Approach: 126.425
Istanbul Approach: 133.075
Istanbul Tower: 118.100
Istanbul Tower: 118.375

LTFJ Del/Gnd/Twr (Archives)
Istanbul, Turkey

Feed Status: UP
Listen in your browser - HTML5 player(in browser, HTML5)
Click here to listen with your own player(launches your MP3 player)

LTFJ 241620Z 03017KT 9999 SCT040 12/10 Q1028 NOSIG RMK RWY24 03016KT

LTFJ Flight Activity (Flightaware)

Listeners: 5 out of 1424 total

Pegasus Dispatch: 131.750

LTFM App/Dep (Archives)
Istanbul, Turkey

Feed Status: UP
Listen in your browser - HTML5 player(in browser, HTML5)
Click here to listen with your own player(launches your MP3 player)

LTFM 241620Z 06019KT 9999 BKN030 13/07 Q1030 NOSIG RMK RWY17L 05018KT RWY34L 04019KT RWY16R 05017KT RWY36 05018KT RWY18 05017KT

LTFM Flight Activity (Flightaware)

Listeners: 1 out of 1424 total

Yesilkoy Approach: 130.300
Yesilkoy Approach: 118.950
Yesilkoy Radar: 132.475
Yesilkoy Radar: 132.050
Yesilkoy Radar: 131.125
Yesilkoy Radar: 132.325

LTFM Gnd/Twr (Archives)
Istanbul, Turkey

Feed Status: UP
Listen in your browser - HTML5 player(in browser, HTML5)
Click here to listen with your own player(launches your MP3 player)

LTFM 241620Z 06019KT 9999 BKN030 13/07 Q1030 NOSIG RMK RWY17L 05018KT RWY34L 04019KT RWY16R 05017KT RWY36 05018KT RWY18 05017KT

LTFM Flight Activity (Flightaware)

Listeners: 3 out of 1424 total

Istanbul Ground : 122.600
Istanbul Ground: 124.425
Istanbul Tower: 118.075
Istanbul Tower: 122.700
Istanbul Tower: 127.500

LUKK ACC #1 (Archives)
Chisinau, Moldova

Feed Status: UP
Listen in your browser - HTML5 player(in browser, HTML5)
Click here to listen with your own player(launches your MP3 player)

LUKK 241630Z 34008KT 310V020 CAVOK 09/M01 Q1031 R08/CLRD// NOSIG

LUKK Flight Activity (Flightaware)

Listeners: 0 out of 1424 total

Chisinau ACC: 130.975

LUKK ACC #2 (Archives)
Chisinau, Moldova

Feed Status: UP
Listen in your browser - HTML5 player(in browser, HTML5)
Click here to listen with your own player(launches your MP3 player)

LUKK 241630Z 34008KT 310V020 CAVOK 09/M01 Q1031 R08/CLRD// NOSIG

LUKK Flight Activity (Flightaware)

Listeners: 0 out of 1424 total

Chisinau ACC: 128.975

LUKK Air to Air (Archives)
Chisinau, Moldova

Feed Status: UP
Listen in your browser - HTML5 player(in browser, HTML5)
Click here to listen with your own player(launches your MP3 player)

LUKK 241630Z 34008KT 310V020 CAVOK 09/M01 Q1031 R08/CLRD// NOSIG

LUKK Flight Activity (Flightaware)

Listeners: 0 out of 1424 total

Chisinau Air to Air: 123.450

LUKK Alternate (Archives)
Chisinau, Moldova

Feed Status: UP
Listen in your browser - HTML5 player(in browser, HTML5)
Click here to listen with your own player(launches your MP3 player)

LUKK 241630Z 34008KT 310V020 CAVOK 09/M01 Q1031 R08/CLRD// NOSIG

LUKK Flight Activity (Flightaware)

Listeners: 0 out of 1424 total

Chisinau Alternate: 129.725

LUKK Approach #1 (Archives)
Chisinau, Moldova

Feed Status: UP
Listen in your browser - HTML5 player(in browser, HTML5)
Click here to listen with your own player(launches your MP3 player)

LUKK 241630Z 34008KT 310V020 CAVOK 09/M01 Q1031 R08/CLRD// NOSIG

LUKK Flight Activity (Flightaware)

Listeners: 1 out of 1424 total

Chisinau Approach: 133.300

LUKK Approach #2 (Archives)
Chisinau, Moldova

Feed Status: UP
Listen in your browser - HTML5 player(in browser, HTML5)
Click here to listen with your own player(launches your MP3 player)

LUKK 241630Z 34008KT 310V020 CAVOK 09/M01 Q1031 R08/CLRD// NOSIG

LUKK Flight Activity (Flightaware)

Listeners: 0 out of 1424 total

Chisinau Approach: 133.300

LUKK Emergency/Guard (Archives)
Chisinau, Moldova

Feed Status: UP
Listen in your browser - HTML5 player(in browser, HTML5)
Click here to listen with your own player(launches your MP3 player)

LUKK 241630Z 34008KT 310V020 CAVOK 09/M01 Q1031 R08/CLRD// NOSIG

LUKK Flight Activity (Flightaware)

Listeners: 0 out of 1424 total

Emergency/Guard: 121.500

LUKK Ground #2 (Archives)
Chisinau, Moldova

Feed Status: UP
Listen in your browser - HTML5 player(in browser, HTML5)
Click here to listen with your own player(launches your MP3 player)

LUKK 241630Z 34008KT 310V020 CAVOK 09/M01 Q1031 R08/CLRD// NOSIG

LUKK Flight Activity (Flightaware)

Listeners: 1 out of 1424 total

Chisinau Ground: 121.800

LUKK Handling (Archives)
Chisinau, Moldova

Feed Status: UP
Listen in your browser - HTML5 player(in browser, HTML5)
Click here to listen with your own player(launches your MP3 player)

LUKK 241630Z 34008KT 310V020 CAVOK 09/M01 Q1031 R08/CLRD// NOSIG

LUKK Flight Activity (Flightaware)

Listeners: 0 out of 1424 total

Chisinau Handling: 131.700

LUKK Tower #2 (Archives)
Chisinau, Moldova

Feed Status: UP
Listen in your browser - HTML5 player(in browser, HTML5)
Click here to listen with your own player(launches your MP3 player)

LUKK 241630Z 34008KT 310V020 CAVOK 09/M01 Q1031 R08/CLRD// NOSIG

LUKK Flight Activity (Flightaware)

Listeners: 2 out of 1424 total

Chisinau Tower: 118.100

LWSK ACC (Lower) (Archives)
Petrovec, North Macedonia, Republic of

Feed Status: UP
Listen in your browser - HTML5 player(in browser, HTML5)
Click here to listen with your own player(launches your MP3 player)

LWSK 241630Z 03009KT CAVOK 10/00 Q1029 NOSIG

LWSK Flight Activity (Flightaware)

Listeners: 0 out of 1424 total

Skopje Control (Lower): 119.375

LWSK ACC (Upper) (Archives)
Petrovec, North Macedonia, Republic of

Feed Status: UP
Listen in your browser - HTML5 player(in browser, HTML5)
Click here to listen with your own player(launches your MP3 player)

LWSK 241630Z 03009KT CAVOK 10/00 Q1029 NOSIG

LWSK Flight Activity (Flightaware)

Listeners: 0 out of 1424 total

Skopje Control (Upper): 120.015

LWSK Approach (Archives)
Petrovec, North Macedonia, Republic of

Feed Status: UP
Listen in your browser - HTML5 player(in browser, HTML5)
Click here to listen with your own player(launches your MP3 player)

LWSK 241630Z 03009KT CAVOK 10/00 Q1029 NOSIG

LWSK Flight Activity (Flightaware)

Listeners: 0 out of 1424 total

Skopje Approach/Departure: 120.300

LWSK ATIS (Archives)
Petrovec, North Macedonia, Republic of

Feed Status: UP
Listen in your browser - HTML5 player(in browser, HTML5)
Click here to listen with your own player(launches your MP3 player)

LWSK 241630Z 03009KT CAVOK 10/00 Q1029 NOSIG

LWSK Flight Activity (Flightaware)

Listeners: 0 out of 1424 total

Skopje ATIS: 130.125

LWSK Tower (Archives)
Petrovec, North Macedonia, Republic of

Feed Status: UP
Listen in your browser - HTML5 player(in browser, HTML5)
Click here to listen with your own player(launches your MP3 player)

LWSK 241630Z 03009KT CAVOK 10/00 Q1029 NOSIG

LWSK Flight Activity (Flightaware)

Listeners: 2 out of 1424 total

Skopje Tower: 118.500

LYNI Twr/App (Archives)
Nis, Serbia

Feed Status: UP
Listen in your browser - HTML5 player(in browser, HTML5)
Click here to listen with your own player(launches your MP3 player)

LYNI 241600Z 32007KT CAVOK 10/M01 Q1030 NOSIG

LYNI Flight Activity (Flightaware)

Listeners: 0 out of 1424 total

Nis Approach: 119.525
Nis Approach/Tower (Alternate): 136.075
Nis Tower: 118.950

LZIB Gnd/Twr/App
Bratislava, Slovakia

Feed Status: DOWN
Offline since: 2021-10-10 09:51:22 UTC

LZIB 241630Z 10007KT CAVOK 06/01 Q1031 NOSIG

BTS Handling: 131.850
Stefanik Ground: 120.900
Stefanik Ground: 121.700
Stefanik Radar: 134.925
Stefanik Tower: 118.300

LZKZ Gnd/Twr/App (Archives)
Kosice, Slovakia

Feed Status: UP
Listen in your browser - HTML5 player(in browser, HTML5)
Click here to listen with your own player(launches your MP3 player)

LZKZ 241630Z 27002KT CAVOK 05/M01 Q1032

LZKZ Flight Activity (Flightaware)

Listeners: 0 out of 1424 total

Kosice Approach: 129.350
Kosice Approach (backup): 119.850
Kosice Ground: 121.700
Kosice Handling: 131.850
Kosice Tower: 120.400

LZNI CTAF (Archives)
Nitra, Slovakia

Feed Status: UP
Listen in your browser - HTML5 player(in browser, HTML5)
Click here to listen with your own player(launches your MP3 player)

LZNI Flight Activity (Flightaware)

Listeners: 0 out of 1424 total

Nitra Traffic Radio: 123.405

LZPE CTAF/UNICOM (Archives)
Prievidza, Slovakia

Feed Status: UP
Listen in your browser - HTML5 player(in browser, HTML5)
Click here to listen with your own player(launches your MP3 player)

LZPE Flight Activity (Flightaware)

Listeners: 0 out of 1424 total

Prievidza CTAF/UNICOM: 123.055

LZPP Ground/Tower (Archives)
Piestany, Slovakia

Feed Status: UP
Listen in your browser - HTML5 player(in browser, HTML5)
Click here to listen with your own player(launches your MP3 player)

LZPP 241600Z 13004KT CAVOK 09/01 Q1031

LZPP Flight Activity (Flightaware)

Listeners: 0 out of 1424 total

Piestany Ground: 121.700
Piestany Tower: 118.575

LZPT CTAF (Archives)
Partizanske, Slovakia

Feed Status: UP
Listen in your browser - HTML5 player(in browser, HTML5)
Click here to listen with your own player(launches your MP3 player)

LZPT Flight Activity (Flightaware)

Listeners: 0 out of 1424 total

Male Bielice CTAF: 123.500

MDPP App/Dep (Archives)
Puerto Plata, Dominican Republic

Feed Status: UP
Listen in your browser - HTML5 player(in browser, HTML5)
Click here to listen with your own player(launches your MP3 player)


MDPP Flight Activity (Flightaware)

Listeners: 0 out of 1424 total

Puerto Plata Approach/Departure: 119.000

MDPP Ground/Center (Archives)
Puerto Plata, Dominican Republic

Feed Status: UP
Listen in your browser - HTML5 player(in browser, HTML5)
Click here to listen with your own player(launches your MP3 player)


MDPP Flight Activity (Flightaware)

Listeners: 0 out of 1424 total

Puerto Plata Ground: 121.900
Santo Domingo Center: 124.300

MDPP Ground/Tower/Center (Archives)
Puerto Plata, Dominican Republic

Feed Status: UP
Listen in your browser - HTML5 player(in browser, HTML5)
Click here to listen with your own player(launches your MP3 player)


MDPP Flight Activity (Flightaware)

Listeners: 0 out of 1424 total

Puerto Plata Ground: 121.900
Puerto Plata Tower: 118.000
Santo Domingo Center: 124.300

MDPP Tower (Archives)
Puerto Plata, Dominican Republic

Feed Status: UP
Listen in your browser - HTML5 player(in browser, HTML5)
Click here to listen with your own player(launches your MP3 player)


MDPP Flight Activity (Flightaware)

Listeners: 1 out of 1424 total

Puerto Plata Tower: 118.000

MHLC Gnd/Twr/Center (Archives)
La Ceiba, Honduras

Feed Status: UP
Listen in your browser - HTML5 player(in browser, HTML5)
Click here to listen with your own player(launches your MP3 player)

MHLC 241600Z 02004KT 9999 FEW025 SCT250 31/25 Q1012 A2989 NOSIG

MHLC Flight Activity (Flightaware)

Listeners: 0 out of 1424 total

CENAMER: 123.900
CENAMER: 124.300
Goloson Ground: 121.900
Goloson Tower: 118.500
La Ceiba Radio: 128.900

MHLM Gnd/Twr/App
San Pedro Sula, Honduras

Feed Status: DOWN
Offline since: 2021-10-15 19:42:23 UTC

MHLM 241600Z VRB03KT 9999 FEW030 SCT250 32/23 Q1012 A2989 NOSIG

La Mesa Ground: 121.900
La Mesa Tower: 118.200
San Pedro Sula Approach: 119.700

MHRO Gnd/Twr/App/Center (Archives)
Roatan, Honduras

Feed Status: UP
Listen in your browser - HTML5 player(in browser, HTML5)
Click here to listen with your own player(launches your MP3 player)

MHRO 241600Z 10009KT 9999 FEW018 SCT250 32/27 Q1013 A2992 NOSIG

MHRO Flight Activity (Flightaware)

Listeners: 0 out of 1424 total

CENAMER (Center): 124.300
La Ceiba Radio: 128.900
Roatan Ground: 121.600
Roatan Tower: 118.100

MHTG Gnd/Twr/App/Ctr/Ops (Archives)
Tegucigalpa, Honduras

Feed Status: UP
Listen in your browser - HTML5 player(in browser, HTML5)
Click here to listen with your own player(launches your MP3 player)

MHTG 241600Z 36004KT 9999 FEW030 SCT250 26/19 Q1020 A3012 NOSIG

MHTG Flight Activity (Flightaware)

Listeners: 2 out of 1424 total

American Airlines Ops: 130.700
ARINC ACARS: 131.550
Cenamer Center: 123.900
Cenamer Center: 124.300
Cenamer Center: 124.100
CMP Ops: 129.925
Continental Airlines Ops: 129.925
FAH Ground: 122.900
Taca Ops: 131.300
Taca Ops Sal: 130.300
Tecnologias Unidas: 133.000
Tegucigalpa RDO: 126.700
Toncontin Approach: 119.100
Toncontin Ground: 121.900
Toncontin Tower: 118.700

MMCU Twr/App (Archives)
Chihuahua, Mexico

Feed Status: UP
Listen in your browser - HTML5 player(in browser, HTML5)
Click here to listen with your own player(launches your MP3 player)

MMCU 241541Z 32007KT 10SM SKC 21/04 A3012

MMCU Flight Activity (Flightaware)

Listeners: 0 out of 1424 total

Chihuahua Approach: 121.000
Chihuahua Tower: 118.400

MMGL Twr/App (Archives)
Guadalajara, Mexico

Feed Status: UP
Listen in your browser - HTML5 player(in browser, HTML5)
Click here to listen with your own player(launches your MP3 player)

MMGL 241550Z 12004KT 2SM HZ SCT008 BKN010 OVC080 19/16 A3019 RMK 8/57/ CU SW

MMGL Flight Activity (Flightaware)

Listeners: 5 out of 1424 total

Guadalajara Approach: 120.800
Guadalajara Tower: 118.100

MMHO App/Dep (Archives)
Hermosillo, Mexico

Feed Status: UP
Listen in your browser - HTML5 player(in browser, HTML5)
Click here to listen with your own player(launches your MP3 player)

MMHO 241540Z 13005KT 10SM SKC 25/14 A2992 RMK HZY

MMHO Flight Activity (Flightaware)

Listeners: 0 out of 1424 total

Hermosillo Approach/Departure: 121.400

MMHO Info (Archives)
Hermosillo, Mexico

Feed Status: UP
Listen in your browser - HTML5 player(in browser, HTML5)
Click here to listen with your own player(launches your MP3 player)

MMHO 241540Z 13005KT 10SM SKC 25/14 A2992 RMK HZY

MMHO Flight Activity (Flightaware)

Listeners: 0 out of 1424 total

Hermosillo Info: 122.300

MMHO Tower (Archives)
Hermosillo, Mexico

Feed Status: UP
Listen in your browser - HTML5 player(in browser, HTML5)
Click here to listen with your own player(launches your MP3 player)

MMHO 241540Z 13005KT 10SM SKC 25/14 A2992 RMK HZY

MMHO Flight Activity (Flightaware)

Listeners: 2 out of 1424 total

Hermosillo Tower: 118.700

MMHO Twr/App (Archives)
Hermosillo, Mexico

Feed Status: UP
Listen in your browser - HTML5 player(in browser, HTML5)
Click here to listen with your own player(launches your MP3 player)

MMHO 241540Z 13005KT 10SM SKC 25/14 A2992 RMK HZY

MMHO Flight Activity (Flightaware)

Listeners: 1 out of 1424 total

Hermosillo Approach/Departure: 121.400
Hermosillo Info: 122.300
Hermosillo Tower: 118.700

MMLP Twr/App (Archives)
La Paz, Mexico

Feed Status: UP
Listen in your browser - HTML5 player(in browser, HTML5)
Click here to listen with your own player(launches your MP3 player)

MMLP 241545Z 24004KT 10SM FEW025 24/15 A2994 RMK 8/500 HZY

MMLP Flight Activity (Flightaware)

Listeners: 1 out of 1424 total

La Paz Approach: 120.600
La Paz Tower: 118.100

MMMD App/Dep
Merida, Mexico

Feed Status: DOWN
Offline since: 2021-09-23 05:00:05 UTC

MMMD 241544Z 16012KT 7SM SCT015 BKN300 30/25 A2993 RMK 8/108 HZY

Merida Approach: 121.200

MMMD Merida Center 125.2/128.2
Merida, Mexico

Feed Status: DOWN
Offline since: 2021-09-23 04:35:06 UTC

MMMD 241544Z 16012KT 7SM SCT015 BKN300 30/25 A2993 RMK 8/108 HZY

Merida Center: 125.200
Merida Center: 128.200

MMMD Merida Center 125.8/123.75
Merida, Mexico

Feed Status: DOWN
Offline since: 2021-09-23 04:55:05 UTC

MMMD 241544Z 16012KT 7SM SCT015 BKN300 30/25 A2993 RMK 8/108 HZY

Merida Center: 125.800
Merida Center: 123.750

MMMD Tower
Merida, Mexico

Feed Status: DOWN
Offline since: 2021-09-23 05:00:05 UTC

MMMD 241544Z 16012KT 7SM SCT015 BKN300 30/25 A2993 RMK 8/108 HZY

Merida Tower: 118.300

MMMM Tower (Archives)
Morelia, Mexico

Feed Status: UP
Listen in your browser - HTML5 player(in browser, HTML5)
Click here to listen with your own player(launches your MP3 player)

MMMM 241619Z 00000KT 8SM FEW020 BKN100 BKN300 21/14 A3023 RMK 8/172 HZY

MMMM Flight Activity (Flightaware)

Listeners: 1 out of 1424 total

Morelia Tower: 118.500

MMMX Approach (Archives)
Mexico City, Mexico

Feed Status: UP
Listen in your browser - HTML5 player(in browser, HTML5)
Click here to listen with your own player(launches your MP3 player)

MMMX 241551Z 00000KT 11SM BKN080 OVC220 18/10 A3032 NOSIG RMK 8/037 LWR SC BINOVC

MMMX Flight Activity (Flightaware)

Listeners: 3 out of 1424 total

Mexico City Approach: 121.200

MMMX Twr/App (Archives)
Mexico City, Mexico

Feed Status: UP
Listen in your browser - HTML5 player(in browser, HTML5)
Click here to listen with your own player(launches your MP3 player)

MMMX 241551Z 00000KT 11SM BKN080 OVC220 18/10 A3032 NOSIG RMK 8/037 LWR SC BINOVC

MMMX Flight Activity (Flightaware)

Listeners: 6 out of 1424 total

Mexico City Approach: 121.200
Mexico City Arrival (North): 129.650
Mexico City Arrival (South): 119.100
Mexico City Final Approach: 119.750
Mexico City Tower: 118.550

MMMY Tower/Approach (Archives)
Monterrey, Mexico

Feed Status: UP
Listen in your browser - HTML5 player(in browser, HTML5)
Click here to listen with your own player(launches your MP3 player)

MMMY 241544Z 00000KT 5SM SKC 25/21 A2986 RMK HZ ISOL CI

MMMY Flight Activity (Flightaware)

Listeners: 0 out of 1424 total

Monterrey Approach/Departure: 119.750
Monterrey Tower: 118.100

MMPC CTAF (Archives)
Pachuca, Mexico

Feed Status: UP
Listen in your browser - HTML5 player(in browser, HTML5)
Click here to listen with your own player(launches your MP3 player)

MMPC Flight Activity (Flightaware)

Listeners: 0 out of 1424 total

Pachuca CTAF/AFIS: 122.900

MMQT Tower/App
Queretaro, Mexico

Feed Status: DOWN
Offline since: 2021-10-10 15:21:05 UTC

MMQT 241553Z 05002KT 7SM SCT020 BKN100 BKN250 20/13 A3029 RMK 8/132

Queretaro Approach: 127.200
Queretaro Tower: 118.950

MMTC Twr/App/Center (Archives)
Torreon, Mexico

Feed Status: UP
Listen in your browser - HTML5 player(in browser, HTML5)
Click here to listen with your own player(launches your MP3 player)

MMTC 241547Z 00000KT 10SM SKC 25/07 A3006

MMTC Flight Activity (Flightaware)

Listeners: 0 out of 1424 total

Mazatlan Center: 124.200
Mazatlan Center: 124.400
Mazatlan Center: 128.000
Mexico Center: 123.900
Monterrey Center: 125.600
Monterrey Center: 125.425
Monterrey Center: 127.400
Torreon Approach: 119.500
Torreon Tower: 118.500

MMTJ Approach (Archives)
Tijuana, Mexico

Feed Status: UP
Listen in your browser - HTML5 player(in browser, HTML5)
Click here to listen with your own player(launches your MP3 player)

MMTJ 241549Z 11005KT 8SM SCT210 15/09 A2999 RMK 8/009 HZY

MMTJ Flight Activity (Flightaware)

Listeners: 1 out of 1424 total

Tijuana Approach: 120.300

MMTJ Twr/Ramp (Archives)
Tijuana, Mexico

Feed Status: UP
Listen in your browser - HTML5 player(in browser, HTML5)
Click here to listen with your own player(launches your MP3 player)

MMTJ 241549Z 11005KT 8SM SCT210 15/09 A2999 RMK 8/009 HZY

MMTJ Flight Activity (Flightaware)

Listeners: 1 out of 1424 total

Tijuana Ramp: 126.100
Tijuana Tower: 118.100

MPMG Ground (Archives)
Panama City, Panama

Feed Status: UP
Listen in your browser - HTML5 player(in browser, HTML5)
Click here to listen with your own player(launches your MP3 player)

MPMG 241600Z 16010KT 9999 SCT016 SCT080 29/24 Q1013 NOSIG

MPMG Flight Activity (Flightaware)

Listeners: 0 out of 1424 total

Gelabert Ground: 121.700

MPMG Tower (Archives)
Panama City, Panama

Feed Status: UP
Listen in your browser - HTML5 player(in browser, HTML5)
Click here to listen with your own player(launches your MP3 player)

MPMG 241600Z 16010KT 9999 SCT016 SCT080 29/24 Q1013 NOSIG

MPMG Flight Activity (Flightaware)

Listeners: 0 out of 1424 total

Gelabert Tower: 118.300

Panama App/Dep #2 (Archives)
Panama City, Panama

Feed Status: UP
Listen in your browser - HTML5 player(in browser, HTML5)
Click here to listen with your own player(launches your MP3 player)

MPPA 241600Z 20006KT 9999 FEW016 28/25 Q1013

MPPA Flight Activity (Flightaware)

Listeners: 0 out of 1424 total

Panama Approach: 119.700
Panama Departure: 119.200

Panama App/Dep #3 (Archives)
Panama City, Panama

Feed Status: UP
Listen in your browser - HTML5 player(in browser, HTML5)
Click here to listen with your own player(launches your MP3 player)

MPTO 241600Z 09007KT 9999 SCT008 SCT016 28/25 Q1014 NOSIG

MPTO Flight Activity (Flightaware)

Listeners: 0 out of 1424 total

Panama Approach: 119.700
Panama Departure: 119.200

Panama Approach #1 (Archives)
Panama City, Panama

Feed Status: UP
Listen in your browser - HTML5 player(in browser, HTML5)
Click here to listen with your own player(launches your MP3 player)

MPMG 241600Z 16010KT 9999 SCT016 SCT080 29/24 Q1013 NOSIG

MPMG Flight Activity (Flightaware)

Listeners: 0 out of 1424 total

Panama Approach: 119.700

Panama Center #1 (Archives)
Panama City, Panama

Feed Status: UP
Listen in your browser - HTML5 player(in browser, HTML5)
Click here to listen with your own player(launches your MP3 player)

MPMG 241600Z 16010KT 9999 SCT016 SCT080 29/24 Q1013 NOSIG

MPMG Flight Activity (Flightaware)

Listeners: 0 out of 1424 total

Panama Center: 134.900
Panama Center (North): 133.300
Panama Center (North): 125.500
Panama Center (South): 123.300
Panama Center (South): 133.000

Panama Center #2 (Archives)
Panama City, Panama

Feed Status: UP
Listen in your browser - HTML5 player(in browser, HTML5)
Click here to listen with your own player(launches your MP3 player)

MPPA 241600Z 20006KT 9999 FEW016 28/25 Q1013

MPPA Flight Activity (Flightaware)

Listeners: 0 out of 1424 total

Panama Center: 134.900
Panama Center (North): 125.500
Panama Center (North): 133.300
Panama Center (South): 123.300
Panama Center (South): 133.000

Panama Radio #1 (Archives)
Panama City, Panama

Feed Status: UP
Listen in your browser - HTML5 player(in browser, HTML5)
Click here to listen with your own player(launches your MP3 player)

MPMG 241600Z 16010KT 9999 SCT016 SCT080 29/24 Q1013 NOSIG

MPMG Flight Activity (Flightaware)

Listeners: 0 out of 1424 total

Panama Radio: 123.600
Panama Radio: 126.900

Panama Traffic Advisory #1 (Archives)
Panama City, Panama

Feed Status: UP
Listen in your browser - HTML5 player(in browser, HTML5)
Click here to listen with your own player(launches your MP3 player)

MPMG 241600Z 16010KT 9999 SCT016 SCT080 29/24 Q1013 NOSIG

MPMG Flight Activity (Flightaware)

Listeners: 0 out of 1424 total

Panama Traffic Advisory: 121.200

MPPA Ground (Archives)
Panama City, Panama

Feed Status: UP
Listen in your browser - HTML5 player(in browser, HTML5)
Click here to listen with your own player(launches your MP3 player)

MPPA 241600Z 20006KT 9999 FEW016 28/25 Q1013

MPPA Flight Activity (Flightaware)

Listeners: 0 out of 1424 total

Pacifico Ground: 121.100

MPPA Ground/Tower (Archives)
Panama City, Panama

Feed Status: UP
Listen in your browser - HTML5 player(in browser, HTML5)
Click here to listen with your own player(launches your MP3 player)

MPPA 241600Z 20006KT 9999 FEW016 28/25 Q1013

MPPA Flight Activity (Flightaware)

Listeners: 0 out of 1424 total

Pacifico Ground: 121.100
Pacifico Tower: 118.900

MPPA Tower (Archives)
Panama City, Panama

Feed Status: UP
Listen in your browser - HTML5 player(in browser, HTML5)
Click here to listen with your own player(launches your MP3 player)

MPPA 241600Z 20006KT 9999 FEW016 28/25 Q1013

MPPA Flight Activity (Flightaware)

Listeners: 0 out of 1424 total

Pacifico Tower: 118.900

Panama App/Dep #2 (Archives)
Panama City, Panama

Feed Status: UP
Listen in your browser - HTML5 player(in browser, HTML5)
Click here to listen with your own player(launches your MP3 player)

MPPA 241600Z 20006KT 9999 FEW016 28/25 Q1013

MPPA Flight Activity (Flightaware)

Listeners: 0 out of 1424 total

Panama Approach: 119.700
Panama Departure: 119.200

Panama App/Dep #3 (Archives)
Panama City, Panama

Feed Status: UP
Listen in your browser - HTML5 player(in browser, HTML5)
Click here to listen with your own player(launches your MP3 player)

MPTO 241600Z 09007KT 9999 SCT008 SCT016 28/25 Q1014 NOSIG

MPTO Flight Activity (Flightaware)

Listeners: 0 out of 1424 total

Panama Approach: 119.700
Panama Departure: 119.200

Panama Approach #1 (Archives)
Panama City, Panama

Feed Status: UP
Listen in your browser - HTML5 player(in browser, HTML5)
Click here to listen with your own player(launches your MP3 player)

MPMG 241600Z 16010KT 9999 SCT016 SCT080 29/24 Q1013 NOSIG

MPMG Flight Activity (Flightaware)

Listeners: 0 out of 1424 total

Panama Approach: 119.700

Panama Center #1 (Archives)
Panama City, Panama

Feed Status: UP
Listen in your browser - HTML5 player(in browser, HTML5)
Click here to listen with your own player(launches your MP3 player)

MPMG 241600Z 16010KT 9999 SCT016 SCT080 29/24 Q1013 NOSIG

MPMG Flight Activity (Flightaware)

Listeners: 0 out of 1424 total

Panama Center: 134.900
Panama Center (North): 133.300
Panama Center (North): 125.500
Panama Center (South): 123.300
Panama Center (South): 133.000

Panama Center #2 (Archives)
Panama City, Panama

Feed Status: UP
Listen in your browser - HTML5 player(in browser, HTML5)
Click here to listen with your own player(launches your MP3 player)

MPPA 241600Z 20006KT 9999 FEW016 28/25 Q1013

MPPA Flight Activity (Flightaware)

Listeners: 0 out of 1424 total

Panama Center: 134.900
Panama Center (North): 125.500
Panama Center (North): 133.300
Panama Center (South): 123.300
Panama Center (South): 133.000

Panama Radio #1 (Archives)
Panama City, Panama

Feed Status: UP
Listen in your browser - HTML5 player(in browser, HTML5)
Click here to listen with your own player(launches your MP3 player)

MPMG 241600Z 16010KT 9999 SCT016 SCT080 29/24 Q1013 NOSIG

MPMG Flight Activity (Flightaware)

Listeners: 0 out of 1424 total

Panama Radio: 123.600
Panama Radio: 126.900

Panama Traffic Advisory #1 (Archives)
Panama City, Panama

Feed Status: UP
Listen in your browser - HTML5 player(in browser, HTML5)
Click here to listen with your own player(launches your MP3 player)

MPMG 241600Z 16010KT 9999 SCT016 SCT080 29/24 Q1013 NOSIG

MPMG Flight Activity (Flightaware)

Listeners: 0 out of 1424 total

Panama Traffic Advisory: 121.200

MPTO ATIS (Archives)
Panama City, Panama

Feed Status: UP
Listen in your browser - HTML5 player(in browser, HTML5)
Click here to listen with your own player(launches your MP3 player)

MPTO 241600Z 09007KT 9999 SCT008 SCT016 28/25 Q1014 NOSIG

MPTO Flight Activity (Flightaware)

Listeners: 0 out of 1424 total

Panama ATIS: 127.700

MPTO Clearance Delivery (Archives)
Panama City, Panama

Feed Status: UP
Listen in your browser - HTML5 player(in browser, HTML5)
Click here to listen with your own player(launches your MP3 player)

MPTO 241600Z 09007KT 9999 SCT008 SCT016 28/25 Q1014 NOSIG

MPTO Flight Activity (Flightaware)

Listeners: 0 out of 1424 total

Panama Clearance Delivery: 129.800

MPTO Del/Ground (Archives)
Panama City, Panama

Feed Status: UP
Listen in your browser - HTML5 player(in browser, HTML5)
Click here to listen with your own player(launches your MP3 player)

MPTO 241600Z 09007KT 9999 SCT008 SCT016 28/25 Q1014 NOSIG

MPTO Flight Activity (Flightaware)

Listeners: 0 out of 1424 total

Panama Clearance Delivery: 129.800
Panama Ground: 121.900

MPTO Ground (Archives)
Panama City, Panama

Feed Status: UP
Listen in your browser - HTML5 player(in browser, HTML5)
Click here to listen with your own player(launches your MP3 player)

MPTO 241600Z 09007KT 9999 SCT008 SCT016 28/25 Q1014 NOSIG

MPTO Flight Activity (Flightaware)

Listeners: 0 out of 1424 total

Panama Ground: 121.900

MPTO Ground/Tower (Archives)
Panama City, Panama

Feed Status: UP
Listen in your browser - HTML5 player(in browser, HTML5)
Click here to listen with your own player(launches your MP3 player)

MPTO 241600Z 09007KT 9999 SCT008 SCT016 28/25 Q1014 NOSIG

MPTO Flight Activity (Flightaware)

Listeners: 0 out of 1424 total

Panama Ground: 121.900
Panama Tower: 118.100

MPTO Tower (Archives)
Panama City, Panama

Feed Status: UP
Listen in your browser - HTML5 player(in browser, HTML5)
Click here to listen with your own player(launches your MP3 player)

MPTO 241600Z 09007KT 9999 SCT008 SCT016 28/25 Q1014 NOSIG

MPTO Flight Activity (Flightaware)

Listeners: 0 out of 1424 total

Panama Tower: 118.100

Panama App/Dep #2 (Archives)
Panama City, Panama

Feed Status: UP
Listen in your browser - HTML5 player(in browser, HTML5)
Click here to listen with your own player(launches your MP3 player)

MPPA 241600Z 20006KT 9999 FEW016 28/25 Q1013

MPPA Flight Activity (Flightaware)

Listeners: 0 out of 1424 total

Panama Approach: 119.700
Panama Departure: 119.200

Panama App/Dep #3 (Archives)
Panama City, Panama

Feed Status: UP
Listen in your browser - HTML5 player(in browser, HTML5)
Click here to listen with your own player(launches your MP3 player)

MPTO 241600Z 09007KT 9999 SCT008 SCT016 28/25 Q1014 NOSIG

MPTO Flight Activity (Flightaware)

Listeners: 0 out of 1424 total

Panama Approach: 119.700
Panama Departure: 119.200

Panama Approach #1 (Archives)
Panama City, Panama

Feed Status: UP
Listen in your browser - HTML5 player(in browser, HTML5)
Click here to listen with your own player(launches your MP3 player)

MPMG 241600Z 16010KT 9999 SCT016 SCT080 29/24 Q1013 NOSIG

MPMG Flight Activity (Flightaware)

Listeners: 0 out of 1424 total

Panama Approach: 119.700

Panama Center #1 (Archives)
Panama City, Panama

Feed Status: UP
Listen in your browser - HTML5 player(in browser, HTML5)
Click here to listen with your own player(launches your MP3 player)

MPMG 241600Z 16010KT 9999 SCT016 SCT080 29/24 Q1013 NOSIG

MPMG Flight Activity (Flightaware)

Listeners: 0 out of 1424 total

Panama Center: 134.900
Panama Center (North): 133.300
Panama Center (North): 125.500
Panama Center (South): 123.300
Panama Center (South): 133.000

Panama Center #2 (Archives)
Panama City, Panama

Feed Status: UP
Listen in your browser - HTML5 player(in browser, HTML5)
Click here to listen with your own player(launches your MP3 player)

MPPA 241600Z 20006KT 9999 FEW016 28/25 Q1013

MPPA Flight Activity (Flightaware)

Listeners: 0 out of 1424 total

Panama Center: 134.900
Panama Center (North): 125.500
Panama Center (North): 133.300
Panama Center (South): 123.300
Panama Center (South): 133.000

Panama Radio #1 (Archives)
Panama City, Panama

Feed Status: UP
Listen in your browser - HTML5 player(in browser, HTML5)
Click here to listen with your own player(launches your MP3 player)

MPMG 241600Z 16010KT 9999 SCT016 SCT080 29/24 Q1013 NOSIG

MPMG Flight Activity (Flightaware)

Listeners: 0 out of 1424 total

Panama Radio: 123.600
Panama Radio: 126.900

Panama Traffic Advisory #1 (Archives)
Panama City, Panama

Feed Status: UP
Listen in your browser - HTML5 player(in browser, HTML5)
Click here to listen with your own player(launches your MP3 player)

MPMG 241600Z 16010KT 9999 SCT016 SCT080 29/24 Q1013 NOSIG

MPMG Flight Activity (Flightaware)

Listeners: 0 out of 1424 total

Panama Traffic Advisory: 121.200

CENAMER/Panama ACC (Archives)
San Jose, Costa Rica

Feed Status: UP
Listen in your browser - HTML5 player(in browser, HTML5)
Click here to listen with your own player(launches your MP3 player)

MROC 241600Z 25005KT 210V310 9999 FEW030 BKN200 25/21 A3007 NOSIG

MROC Flight Activity (Flightaware)

Listeners: 0 out of 1424 total

Central American Center (CENAMER Control): 124.100
Central American Center (CENAMER Control): 123.900
Panama Center: 133.000

MROC Del/Gnd/Twr (Archives)
San Jose, Costa Rica

Feed Status: UP
Listen in your browser - HTML5 player(in browser, HTML5)
Click here to listen with your own player(launches your MP3 player)

MROC 241600Z 25005KT 210V310 9999 FEW030 BKN200 25/21 A3007 NOSIG

MROC Flight Activity (Flightaware)

Listeners: 1 out of 1424 total

Coco Clearance Delivery/Ground: 121.900
Coco Tower: 118.600

MROC Del/Gnd/Twr/App/Center/Misc (Archives)
San Jose, Costa Rica

Feed Status: UP
Listen in your browser - HTML5 player(in browser, HTML5)
Click here to listen with your own player(launches your MP3 player)

MROC 241600Z 25005KT 210V310 9999 FEW030 BKN200 25/21 A3007 NOSIG

MROC Flight Activity (Flightaware)

Listeners: 11 out of 1424 total

Coco Center (Control over CR Airspace): 119.600
Coco Clearance Delivery: 121.300
Coco Ground: 121.900
Coco Terminal Control: 120.500
Coco Tower: 118.600
Coco UNICOM: 126.800

MRPV Ground/Tower (Archives)
San Jose, Costa Rica

Feed Status: UP
Listen in your browser - HTML5 player(in browser, HTML5)
Click here to listen with your own player(launches your MP3 player)

MRPV 241600Z 30006KT 9999 FEW025 BKN200 24/18 A3010 NOSIG

MRPV Flight Activity (Flightaware)

Listeners: 2 out of 1424 total

Pavas Ground: 121.700
Pavas Tower: 118.300

MSLP Gnd/Twr/App (Archives)
San Salvador, El Salvador

Feed Status: UP
Listen in your browser - HTML5 player(in browser, HTML5)
Click here to listen with your own player(launches your MP3 player)

MSLP 241550Z 17003KT 100V250 9999 FEW023 29/25 Q1012 A2989 NOSIG

MSLP Flight Activity (Flightaware)

Listeners: 0 out of 1424 total

Comalapa Ground: 121.700
Comalapa Tower: 118.000
Compalapa Approach: 119.900

MSLP Gnd/Twr/App/Center (Archives)
San Salvador, El Salvador

Feed Status: UP
Listen in your browser - HTML5 player(in browser, HTML5)
Click here to listen with your own player(launches your MP3 player)

MSLP 241550Z 17003KT 100V250 9999 FEW023 29/25 Q1012 A2989 NOSIG

MSLP Flight Activity (Flightaware)

Listeners: 0 out of 1424 total

Avianca Ops: 123.500
CCA: 119.300
CENAMER: 124.100
Comalapa Authorizations: 121.250
Comalapa Departure: 123.900
Comalapa Ground: 121.700
Comalapa Tower: 118.000
Compalapa Approach: 119.900
Ilopango Tower: 118.300
TACA Ops: 130.500

MSSS Tower
San Salvador, El Salvador

Feed Status: DOWN
Offline since: 2021-09-02 04:27:22 UTC

MSSS 241550Z VRB03KT 9999 FEW027 27/22 Q1016 A3002

Ilopango Tower: 118.300

MUFH Havana FIR (App/Center) (Archives)
Havana, Cuba

Feed Status: UP
Listen in your browser - HTML5 player(in browser, HTML5)
Click here to listen with your own player(launches your MP3 player)

MUFH Flight Activity (Flightaware)

Listeners: 0 out of 1424 total

Hava Approach: 120.300
Havana Center: 120.250
Havana Center: 123.700
Havana Center: 124.550
Havana Center: 133.700
Havana Center: 135.100

Miami Center (Bahamas Area) (Archives)
Deadman's Cay, Bahamas

Feed Status: UP
Listen in your browser - HTML5 player(in browser, HTML5)
Click here to listen with your own player(launches your MP3 player)


MYLD Flight Activity (Flightaware)

Listeners: 0 out of 1424 total

Miami Center (TBD/Misc):

MYLD Emergency/Guard (Archives)
Deadman's Cay, Bahamas

Feed Status: UP
Listen in your browser - HTML5 player(in browser, HTML5)
Click here to listen with your own player(launches your MP3 player)


MYLD Flight Activity (Flightaware)

Listeners: 0 out of 1424 total

Emergency/Guard: 121.500

MYLD/MYLS CTAF (Archives)
Deadman's Cay, Bahamas

Feed Status: UP
Listen in your browser - HTML5 player(in browser, HTML5)
Click here to listen with your own player(launches your MP3 player)


MYLD Flight Activity (Flightaware)

Listeners: 0 out of 1424 total

Deadmans Cay CTAF: 122.800

MYLD/MYLS CTAF (Archives)
Stella Maris, Bahamas

Feed Status: UP
Listen in your browser - HTML5 player(in browser, HTML5)
Click here to listen with your own player(launches your MP3 player)


MYLD Flight Activity (Flightaware)

Listeners: 0 out of 1424 total

Deadmans Cay CTAF: 122.800

OBBI Gnd/Twr/App (Archives)
Muharraq, Bahrain

Feed Status: UP
Listen in your browser - HTML5 player(in browser, HTML5)
Click here to listen with your own player(launches your MP3 player)

OBBI 241630Z 07005KT CAVOK 28/22 Q1011 NOSIG


Listeners: 3 out of 1424 total

Bahrain Arrival: 127.850
Bahrain Control (Low Central): 124.300
Bahrain Control (Low East): 125.700
Bahrain Control (Low North): 126.700
Bahrain Departure: 119.100
Bahrain Ground: 121.850
Bahrain Tower: 118.500

OKBK Gnd/Twr/App/Radar (Archives)
Kuwait City, Kuwait

Feed Status: UP
Listen in your browser - HTML5 player(in browser, HTML5)
Click here to listen with your own player(launches your MP3 player)

OKBK 241600Z 18004KT CAVOK 27/03 Q1012 NOSIG


Listeners: 2 out of 1424 total

Kuwait Approach: 121.300
Kuwait Approach: 124.800
Kuwait Ground: 121.700
Kuwait Radar (Center): 125.300
Kuwait Tower: 118.300

OPKC Gnd/Twr/Radar (Archives)
Karachi, Pakistan

Feed Status: UP
Listen in your browser - HTML5 player(in browser, HTML5)
Click here to listen with your own player(launches your MP3 player)

OPKC 241630Z 25004KT 4000 HZ NSC 26/09 Q1014 NOSIG


Listeners: 1 out of 1424 total

Karachi Ground: 121.600
Karachi Radar: 125.500
Karachi Tower: 118.300

OPLA ATIS (Archives)
Lahore, Pakistan

Feed Status: UP
Listen in your browser - HTML5 player(in browser, HTML5)
Click here to listen with your own player(launches your MP3 player)

OPLA 241625Z 00000KT 5000 FU NSC 19/14 Q1016 NOSIG RMK 989 A30.02


Listeners: 1 out of 1424 total

Lahore ATIS: 126.300

OPLA/OPLH Gnd/Twr/App (Archives)
Lahore, Pakistan

Feed Status: UP
Listen in your browser - HTML5 player(in browser, HTML5)
Click here to listen with your own player(launches your MP3 player)

OPLA 241625Z 00000KT 5000 FU NSC 19/14 Q1016 NOSIG RMK 989 A30.02


Listeners: 3 out of 1424 total

Lahore Approach: 121.300
Lahore Approach: 125.300
Lahore Control: 127.500
Lahore Ground: 118.400
Lahore Tower: 118.100
Lahore Tower: 121.800
Walton (OPLH) Tower: 119.400

RJAA Approach (Archives)
Tokyo, Japan

Feed Status: UP
Listen in your browser - HTML5 player(in browser, HTML5)
Click here to listen with your own player(launches your MP3 player)

RJAA 241600Z 36004KT 9999 FEW015 08/06 Q1027 NOSIG RMK 1CU015 A3034

RJAA Flight Activity (Flightaware)

Listeners: 4 out of 1424 total

Tokyo Approach: 124.400
Tokyo Approach: 127.700

RJAA ATIS (Archives)
Tokyo, Japan

Feed Status: UP
Listen in your browser - HTML5 player(in browser, HTML5)
Click here to listen with your own player(launches your MP3 player)

RJAA 241600Z 36004KT 9999 FEW015 08/06 Q1027 NOSIG RMK 1CU015 A3034

RJAA Flight Activity (Flightaware)

Listeners: 0 out of 1424 total

Narita ATIS: 128.250

RJAA Clearance Delivery (Archives)
Tokyo, Japan

Feed Status: UP
Listen in your browser - HTML5 player(in browser, HTML5)
Click here to listen with your own player(launches your MP3 player)

RJAA 241600Z 36004KT 9999 FEW015 08/06 Q1027 NOSIG RMK 1CU015 A3034

RJAA Flight Activity (Flightaware)

Listeners: 0 out of 1424 total

Narita Clearance Delivery (Asia/Pacific): 121.650
Narita Clearance Delivery (US/Europe): 121.900

RJAA Clearance Delivery #1 (Archives)
Tokyo, Japan

Feed Status: UP
Listen in your browser - HTML5 player(in browser, HTML5)
Click here to listen with your own player(launches your MP3 player)

RJAA 241600Z 36004KT 9999 FEW015 08/06 Q1027 NOSIG RMK 1CU015 A3034

RJAA Flight Activity (Flightaware)

Listeners: 0 out of 1424 total

Narita Clearance Delivery (Asia/Pacific): 121.650

RJAA Clearance Delivery #2 (Archives)
Tokyo, Japan

Feed Status: UP
Listen in your browser - HTML5 player(in browser, HTML5)
Click here to listen with your own player(launches your MP3 player)

RJAA 241600Z 36004KT 9999 FEW015 08/06 Q1027 NOSIG RMK 1CU015 A3034

RJAA Flight Activity (Flightaware)

Listeners: 0 out of 1424 total

Narita Clearance Delivery (US/Europe): 121.900

RJAA Company Channels (Archives)
Tokyo, Japan

Feed Status: UP
Listen in your browser - HTML5 player(in browser, HTML5)
Click here to listen with your own player(launches your MP3 player)

RJAA 241600Z 36004KT 9999 FEW015 08/06 Q1027 NOSIG RMK 1CU015 A3034

RJAA Flight Activity (Flightaware)

Listeners: 1 out of 1424 total

Ops: 130.450
Ops: 130.550
Ops: 130.900
Ops: 131.025
Ops: 131.100
Ops: 131.200
Ops: 131.700
Ops: 131.750

RJAA Departure (Archives)
Tokyo, Japan

Feed Status: UP
Listen in your browser - HTML5 player(in browser, HTML5)
Click here to listen with your own player(launches your MP3 player)

RJAA 241600Z 36004KT 9999 FEW015 08/06 Q1027 NOSIG RMK 1CU015 A3034

RJAA Flight Activity (Flightaware)

Listeners: 1 out of 1424 total

Tokyo Departure: 119.600
Tokyo Departure: 124.200

RJAA Departure #1 (Archives)
Tokyo, Japan

Feed Status: UP
Listen in your browser - HTML5 player(in browser, HTML5)
Click here to listen with your own player(launches your MP3 player)

RJAA 241600Z 36004KT 9999 FEW015 08/06 Q1027 NOSIG RMK 1CU015 A3034

RJAA Flight Activity (Flightaware)

Listeners: 0 out of 1424 total

Tokyo Departure: 124.200

RJAA Departure #2 (Archives)
Tokyo, Japan

Feed Status: UP
Listen in your browser - HTML5 player(in browser, HTML5)
Click here to listen with your own player(launches your MP3 player)

RJAA 241600Z 36004KT 9999 FEW015 08/06 Q1027 NOSIG RMK 1CU015 A3034

RJAA Flight Activity (Flightaware)

Listeners: 0 out of 1424 total

Tokyo Departure: 119.600

RJAA Emergency/Guard (Archives)
Tokyo, Japan

Feed Status: UP
Listen in your browser - HTML5 player(in browser, HTML5)
Click here to listen with your own player(launches your MP3 player)

RJAA 241600Z 36004KT 9999 FEW015 08/06 Q1027 NOSIG RMK 1CU015 A3034

RJAA Flight Activity (Flightaware)

Listeners: 0 out of 1424 total

Emergency/Guard: 121.500

RJAA Ground #1 (Archives)
Tokyo, Japan

Feed Status: UP
Listen in your browser - HTML5 player(in browser, HTML5)
Click here to listen with your own player(launches your MP3 player)

RJAA 241600Z 36004KT 9999 FEW015 08/06 Q1027 NOSIG RMK 1CU015 A3034

RJAA Flight Activity (Flightaware)

Listeners: 0 out of 1424 total

Narita Ground: 121.850

RJAA Ground #2 (Archives)
Tokyo, Japan

Feed Status: UP
Listen in your browser - HTML5 player(in browser, HTML5)
Click here to listen with your own player(launches your MP3 player)

RJAA 241600Z 36004KT 9999 FEW015 08/06 Q1027 NOSIG RMK 1CU015 A3034

RJAA Flight Activity (Flightaware)

Listeners: 0 out of 1424 total

Narita Ground: 121.950

RJAA Radar 119.025 (Archives)
Tokyo, Japan

Feed Status: UP
Listen in your browser - HTML5 player(in browser, HTML5)
Click here to listen with your own player(launches your MP3 player)

RJAA 241600Z 36004KT 9999 FEW015 08/06 Q1027 NOSIG RMK 1CU015 A3034

RJAA Flight Activity (Flightaware)

Listeners: 1 out of 1424 total

Tokyo Radar: 119.025

RJAA Radar 120.2 (Archives)
Tokyo, Japan

Feed Status: UP
Listen in your browser - HTML5 player(in browser, HTML5)
Click here to listen with your own player(launches your MP3 player)

RJAA 241600Z 36004KT 9999 FEW015 08/06 Q1027 NOSIG RMK 1CU015 A3034

RJAA Flight Activity (Flightaware)

Listeners: 1 out of 1424 total

Tokyo Radar: 120.200

RJAA Radar 120.6 (Archives)
Tokyo, Japan

Feed Status: UP
Listen in your browser - HTML5 player(in browser, HTML5)
Click here to listen with your own player(launches your MP3 player)

RJAA 241600Z 36004KT 9999 FEW015 08/06 Q1027 NOSIG RMK 1CU015 A3034

RJAA Flight Activity (Flightaware)

Listeners: 1 out of 1424 total

Tokyo Radar: 120.600

RJAA Radar 132.1 (Archives)
Tokyo, Japan

Feed Status: UP
Listen in your browser - HTML5 player(in browser, HTML5)
Click here to listen with your own player(launches your MP3 player)

RJAA 241600Z 36004KT 9999 FEW015 08/06 Q1027 NOSIG RMK 1CU015 A3034

RJAA Flight Activity (Flightaware)

Listeners: 1 out of 1424 total

Tokyo Radar: 132.100

RJAA Radar 133.35 (Archives)
Tokyo, Japan

Feed Status: UP
Listen in your browser - HTML5 player(in browser, HTML5)
Click here to listen with your own player(launches your MP3 player)

RJAA 241600Z 36004KT 9999 FEW015 08/06 Q1027 NOSIG RMK 1CU015 A3034

RJAA Flight Activity (Flightaware)

Listeners: 1 out of 1424 total

Tokyo Radar: 133.350

RJAA Ramp #1 (Archives)
Tokyo, Japan

Feed Status: UP
Listen in your browser - HTML5 player(in browser, HTML5)
Click here to listen with your own player(launches your MP3 player)

RJAA 241600Z 36004KT 9999 FEW015 08/06 Q1027 NOSIG RMK 1CU015 A3034

RJAA Flight Activity (Flightaware)

Listeners: 0 out of 1424 total

Narita Ramp: 121.600

RJAA Ramp #2 (Archives)
Tokyo, Japan

Feed Status: UP
Listen in your browser - HTML5 player(in browser, HTML5)
Click here to listen with your own player(launches your MP3 player)

RJAA 241600Z 36004KT 9999 FEW015 08/06 Q1027 NOSIG RMK 1CU015 A3034

RJAA Flight Activity (Flightaware)

Listeners: 0 out of 1424 total

Narita Ramp: 121.750

RJAA TCA (Archives)
Tokyo, Japan

Feed Status: UP
Listen in your browser - HTML5 player(in browser, HTML5)
Click here to listen with your own player(launches your MP3 player)

RJAA 241600Z 36004KT 9999 FEW015 08/06 Q1027 NOSIG RMK 1CU015 A3034

RJAA Flight Activity (Flightaware)

Listeners: 0 out of 1424 total

Tokyo TCA (Terminal Control Area): 119.450

RJAA Tokyo Control (Archives)
Tokyo, Japan

Feed Status: UP
Listen in your browser - HTML5 player(in browser, HTML5)
Click here to listen with your own player(launches your MP3 player)

RJAA 241600Z 36004KT 9999 FEW015 08/06 Q1027 NOSIG RMK 1CU015 A3034

RJAA Flight Activity (Flightaware)

Listeners: 0 out of 1424 total

Tokyo Control: 125.900

RJAA Tower #1 (Archives)
Tokyo, Japan

Feed Status: UP
Listen in your browser - HTML5 player(in browser, HTML5)
Click here to listen with your own player(launches your MP3 player)

RJAA 241600Z 36004KT 9999 FEW015 08/06 Q1027 NOSIG RMK 1CU015 A3034

RJAA Flight Activity (Flightaware)

Listeners: 0 out of 1424 total

Narita Tower (Rwy 16R/34L): 118.200

RJAA Tower #2 (Archives)
Tokyo, Japan

Feed Status: UP
Listen in your browser - HTML5 player(in browser, HTML5)
Click here to listen with your own player(launches your MP3 player)

RJAA 241600Z 36004KT 9999 FEW015 08/06 Q1027 NOSIG RMK 1CU015 A3034

RJAA Flight Activity (Flightaware)

Listeners: 0 out of 1424 total

Narita Tower (Rwy 16L/34R): 118.350

RJAA Tower (Both) (Archives)
Tokyo, Japan

Feed Status: UP
Listen in your browser - HTML5 player(in browser, HTML5)
Click here to listen with your own player(launches your MP3 player)

RJAA 241600Z 36004KT 9999 FEW015 08/06 Q1027 NOSIG RMK 1CU015 A3034

RJAA Flight Activity (Flightaware)

Listeners: 1 out of 1424 total

Narita Tower (Rwy 16L/34R): 118.350
Narita Tower (Rwy 16R/34L): 118.200

RJOO Tower (Archives)
Osaka, Japan

Feed Status: UP
Listen in your browser - HTML5 player(in browser, HTML5)
Click here to listen with your own player(launches your MP3 player)


RJOO Flight Activity (Flightaware)

Listeners: 4 out of 1424 total

Osaka Tower: 118.100

RJSF RDO (Archives)
Sukagawa, Japan

Feed Status: UP
Listen in your browser - HTML5 player(in browser, HTML5)
Click here to listen with your own player(launches your MP3 player)


RJSF Flight Activity (Flightaware)

Listeners: 0 out of 1424 total

Fukushima Radio: 118.050

RJTT App/Dep (Archives)
Tokyo, Japan

Feed Status: UP
Listen in your browser - HTML5 player(in browser, HTML5)
Click here to listen with your own player(launches your MP3 player)

RJTT 241600Z 31005KT CAVOK 13/09 Q1027 NOSIG RMK A3033

RJTT Flight Activity (Flightaware)

Listeners: 9 out of 1424 total

Tokyo Approach: 119.100
Tokyo Approach: 119.400
Tokyo Departure: 120.800
Tokyo Departure: 126.000

RJTT Approach (Archives)
Tokyo, Japan

Feed Status: UP
Listen in your browser - HTML5 player(in browser, HTML5)
Click here to listen with your own player(launches your MP3 player)

RJTT 241600Z 31005KT CAVOK 13/09 Q1027 NOSIG RMK A3033

RJTT Flight Activity (Flightaware)

Listeners: 1 out of 1424 total

Tokyo Approach: 119.100
Tokyo Approach: 119.400

RJTT ATIS (Archives)
Tokyo, Japan

Feed Status: UP
Listen in your browser - HTML5 player(in browser, HTML5)
Click here to listen with your own player(launches your MP3 player)

RJTT 241600Z 31005KT CAVOK 13/09 Q1027 NOSIG RMK A3033

RJTT Flight Activity (Flightaware)

Listeners: 0 out of 1424 total

Tokyo ATIS: 128.800

RJTT Company Channels (Archives)
Tokyo, Japan

Feed Status: UP
Listen in your browser - HTML5 player(in browser, HTML5)
Click here to listen with your own player(launches your MP3 player)

RJTT 241600Z 31005KT CAVOK 13/09 Q1027 NOSIG RMK A3033

RJTT Flight Activity (Flightaware)

Listeners: 5 out of 1424 total

Company TBD: 128.500
Company TBD: 131.850
Company TBD: 129.725
Company TBD: 129.700
Company TBD: 131.900
Company TBD: 129.850
Company TBD: 128.975
Company TBD: 123.675
Company TBD: 132.075

RJTT Del/Ground (Archives)
Tokyo, Japan

Feed Status: UP
Listen in your browser - HTML5 player(in browser, HTML5)
Click here to listen with your own player(launches your MP3 player)

RJTT 241600Z 31005KT CAVOK 13/09 Q1027 NOSIG RMK A3033

RJTT Flight Activity (Flightaware)

Listeners: 0 out of 1424 total

Tokyo Clearance Delivery: 121.825
Tokyo Ground: 121.700
Tokyo Ground: 118.225
Tokyo Ground: 121.625
Tokyo Ground: 121.975

RJTT Del/Twr/TCA/Gnd (Archives)
Tokyo, Japan

Feed Status: UP
Listen in your browser - HTML5 player(in browser, HTML5)
Click here to listen with your own player(launches your MP3 player)

RJTT 241600Z 31005KT CAVOK 13/09 Q1027 NOSIG RMK A3033

RJTT Flight Activity (Flightaware)

Listeners: 5 out of 1424 total

Tokyo Clearance Delivery: 121.825
Tokyo Ground: 121.975
Tokyo Ground: 121.625
Tokyo Ground: 121.700
Tokyo Ground: 118.225
Tokyo TCA: 124.750
Tokyo Tower: 118.100
Tokyo Tower: 118.575
Tokyo Tower: 118.725
Tokyo Tower: 124.350

RJTT Departure (Archives)
Tokyo, Japan

Feed Status: UP
Listen in your browser - HTML5 player(in browser, HTML5)
Click here to listen with your own player(launches your MP3 player)

RJTT 241600Z 31005KT CAVOK 13/09 Q1027 NOSIG RMK A3033

RJTT Flight Activity (Flightaware)

Listeners: 1 out of 1424 total

Tokyo Departure: 120.800
Tokyo Departure: 126.000

RJTT Tokyo Control (Archives)
Tokyo, Japan

Feed Status: UP
Listen in your browser - HTML5 player(in browser, HTML5)
Click here to listen with your own player(launches your MP3 player)

RJTT 241600Z 31005KT CAVOK 13/09 Q1027 NOSIG RMK A3033

RJTT Flight Activity (Flightaware)

Listeners: 24 out of 1424 total

Tokyo Control: 133.700
Tokyo Control: 125.900
Tokyo Control: 120.500

RJTT Twr/TCA (Archives)
Tokyo, Japan

Feed Status: UP
Listen in your browser - HTML5 player(in browser, HTML5)
Click here to listen with your own player(launches your MP3 player)

RJTT 241600Z 31005KT CAVOK 13/09 Q1027 NOSIG RMK A3033

RJTT Flight Activity (Flightaware)

Listeners: 4 out of 1424 total

Tokyo TCA: 124.750
Tokyo Tower: 118.100
Tokyo Tower: 118.575
Tokyo Tower: 118.725
Tokyo Tower: 124.350

RJTY Approach (Archives)
Tokyo, Japan

Feed Status: UP
Listen in your browser - HTML5 player(in browser, HTML5)
Click here to listen with your own player(launches your MP3 player)

RJTY 241556Z AUTO 00000KT 10SM CLR 09/06 A3039 RMK AO2 SLP296 T00940059 FZRANO $

RJTY Flight Activity (Flightaware)

Listeners: 2 out of 1424 total

Yokota Approach: 118.300
Yokota APproach: 123.800
Yokota Approach: 120.700

RJTY ATIS (Archives)
Tokyo, Japan

Feed Status: UP
Listen in your browser - HTML5 player(in browser, HTML5)
Click here to listen with your own player(launches your MP3 player)

RJTY 241556Z AUTO 00000KT 10SM CLR 09/06 A3039 RMK AO2 SLP296 T00940059 FZRANO $

RJTY Flight Activity (Flightaware)

Listeners: 0 out of 1424 total

Yokota ATIS: 126.400

RJTY Ground (Archives)
Tokyo, Japan

Feed Status: UP
Listen in your browser - HTML5 player(in browser, HTML5)
Click here to listen with your own player(launches your MP3 player)

RJTY 241556Z AUTO 00000KT 10SM CLR 09/06 A3039 RMK AO2 SLP296 T00940059 FZRANO $

RJTY Flight Activity (Flightaware)

Listeners: 0 out of 1424 total

Yokota Ground: 133.200

RJTY Ground/Tower (Archives)
Tokyo, Japan

Feed Status: UP
Listen in your browser - HTML5 player(in browser, HTML5)
Click here to listen with your own player(launches your MP3 player)

RJTY 241556Z AUTO 00000KT 10SM CLR 09/06 A3039 RMK AO2 SLP296 T00940059 FZRANO $

RJTY Flight Activity (Flightaware)

Listeners: 2 out of 1424 total

Yokota Ground: 133.200
Yokota Tower: 134.300

RJTY Tower (Archives)
Tokyo, Japan

Feed Status: UP
Listen in your browser - HTML5 player(in browser, HTML5)
Click here to listen with your own player(launches your MP3 player)

RJTY 241556Z AUTO 00000KT 10SM CLR 09/06 A3039 RMK AO2 SLP296 T00940059 FZRANO $

RJTY Flight Activity (Flightaware)

Listeners: 0 out of 1424 total

Yokota Tower: 134.300

SABE Gnd/Twr/App (Archives)
Buenos Aires, Argentina

Feed Status: UP
Listen in your browser - HTML5 player(in browser, HTML5)
Click here to listen with your own player(launches your MP3 player)

SABE 241600Z 29012G25KT 220V350 CAVOK 23/05 Q1013 NOSIG

SABE Flight Activity (Flightaware)

Listeners: 1 out of 1424 total

Aerolineas Argentinas Ops: 131.950
Aerolineas Argentinas Ops: 131.100
Aeroparque Ground: 121.900
Aeroparque Tower: 120.600
Aeroparque Tower: 118.250
Aeroparque Tower: 128.850
Aeroparque Tower: 118.850
Aeroparque Tower: 129.300
Air to Air: 123.450
Baires: 125.900
Baires: 125.300
Baires: 124.900
Cordoba South: 126.500
Ezeiza Ground: 121.750
Ezeiza North: 133.350
Ezeiza North: 124.500
Ezeiza North: 125.600
Ezeiza North: 135.500
Ezeiza South: 124.100
Ezeiza South: 125.200
LAN Ops: 131.700

SAEZ Gnd/Twr/Control
Buenos Aires, Argentina

Feed Status: DOWN
Offline since: 2021-10-24 11:16:40 UTC

SAEZ 241600Z 29018G28KT CAVOK 24/06 Q1012 NOSIG


SANT Tower/Apps (Archives)
Tucuman, Argentina

Feed Status: UP
Listen in your browser - HTML5 player(in browser, HTML5)
Click here to listen with your own player(launches your MP3 player)

SANT 241600Z 09013KT CAVOK 28/09 Q1019

SANT Flight Activity (Flightaware)

Listeners: 0 out of 1424 total

Aeroclub Tucuman: 119.000
Aerolineas Argentinas SOC Salta: 131.100
Aerolineas Argentinas SOC Tucuman: 131.950
Air To Air: 123.450
Andes Lineas Aereas: 132.000
Campo Arenal: 130.950
Catamarca Tower: 118.150
Copa Airlines: 129.400
Cordoba Centro Norte: 125.100
Cordoba Centro Sur: 126.500
Emergency/Guard: 121.500
Lan Argentina Operaciones: 131.700
Lan Peru: 131.300
Salta Tower: 128.850
Santiago del Estero Tower: 118.700
Taca Peru: 126.450
Termas de Rio Hondo: 118.200
Termas de Rio Hondo: 119.850
Tucuman Ground: 121.750
Tucuman Ground: 121.750
Tucuman Tower: 118.350
Tucuman Tower: 119.500

SASA Twr/App (Archives)
Salta, Argentina

Feed Status: UP
Listen in your browser - HTML5 player(in browser, HTML5)
Click here to listen with your own player(launches your MP3 player)

SASA 241600Z 05012KT 9999 FEW035 25/08 Q1022

SASA Flight Activity (Flightaware)

Listeners: 1 out of 1424 total

Cordoba Approach (North): 125.100
Salta Approach: 124.600
Salta Tower: 126.000
Salta Tower/Ground: 128.850

SAZN Tower (Archives)
Neuquen, Argentina

Feed Status: UP
Listen in your browser - HTML5 player(in browser, HTML5)
Click here to listen with your own player(launches your MP3 player)

SAZN 241600Z 23011KT CAVOK 24/04 Q1011

SAZN Flight Activity (Flightaware)

Listeners: 1 out of 1424 total

Neuquen Tower/Approach: 119.800

SAZS Gnd/Twr/App (Archives)
Rio Negro, Argentina

Feed Status: UP
Listen in your browser - HTML5 player(in browser, HTML5)
Click here to listen with your own player(launches your MP3 player)

SAZS 241600Z 29023KT 9999 BKN035 14/03 Q1011

SAZS Flight Activity (Flightaware)

Listeners: 0 out of 1424 total

Bariloche Twr/App: 119.100
Comodoro Rivadavia Control: 125.500
Ezeiza South: 125.200

SBBE Twr/App/SBAZ (Archives)
Belem, Brazil

Feed Status: UP
Listen in your browser - HTML5 player(in browser, HTML5)
Click here to listen with your own player(launches your MP3 player)

SBBE 241600Z 08009KT 9999 BKN040 32/22 Q1010

SBBE Flight Activity (Flightaware)

Listeners: 1 out of 1424 total

Amazonica FIR (SBAZ): 126.500
Amazonica FIR (SBAZ): 128.000
Amazonica FIR (SBAZ): 123.950
Amazonica FIR (SBAZ): 126.150
Amazonica FIR (SBAZ): 126.650
Amazonica FIR (SBAZ): 133.700
Belem Approach: 119.050
Belem Approach: 119.500
Belem Tower: 118.700

SBBR Approach
Brasilia, Brazil

Feed Status: DOWN
Offline since: 2021-10-19 16:54:40 UTC

SBBR 241600Z 30011KT 9999 BKN040 FEW045TCU 28/17 Q1017

Brasilia Approach: 120.650
Brasilia Approach: 129.150
Brasilia Approach: 129.600
Brasilia Approach (Final): 119.200
Brasilia Departure: 119.500
Brasilia Departure: 119.700

SBBR Ground
Brasilia, Brazil

Feed Status: DOWN
Offline since: 2021-10-24 11:35:06 UTC

SBBR 241600Z 30011KT 9999 BKN040 FEW045TCU 28/17 Q1017

Brasilia Ground: 121.950
Brasilia Ground: 121.800

SBBR Tower
Brasilia, Brazil

Feed Status: DOWN
Offline since: 2021-10-24 11:35:06 UTC

SBBR 241600Z 30011KT 9999 BKN040 FEW045TCU 28/17 Q1017

Brasilia Tower: 118.100
Brasilia Tower: 181.750
Brasilia Tower: 118.450

SBCT Gnd/Twr/App (Archives)
Curitiba, Brazil

Feed Status: UP
Listen in your browser - HTML5 player(in browser, HTML5)
Click here to listen with your own player(launches your MP3 player)

SBCT 241600Z 20005KT 160V260 9999 BKN014 SCT025 BKN080 19/14 Q1015

SBCT Flight Activity (Flightaware)

Listeners: 2 out of 1424 total

Curitiba Approach: 119.950
Curitiba Ground: 121.900
Curitiba Tower: 118.150
Curitiba Tower: 118.900

SBDN Twr/App
Presidente Prudente/Sao Paulo, Brazil

Feed Status: DOWN
Offline since: 2021-09-25 19:15:05 UTC

SBDN 241600Z 30003KT 9999 SCT020 SCT030 OVC036 22/17 Q1014

Air-to-Air: 123.450
Curitiba Sector 13: 133.595
Prudente Approach: 118.450
Prudente Tower: 125.450

SBEG Tower/App
Manaus, Brazil

Feed Status: DOWN
Offline since: 2021-10-24 04:53:40 UTC

SBEG 241600Z 07006KT 9999 SCT020 32/23 Q1011

Emergency/Guard: 121.500
Manaus Approach : 119.250
Manaus Approach: 120.400
Manaus Approach: 119.700
Manaus Tower: 118.300

SBFI Twr/App/Ctr/Misc
Foz do Iguacu, Brazil

Feed Status: DOWN
Offline since: 2021-09-04 23:55:22 UTC

SBFI 241600Z 18011KT 9999 BKN030 23/13 Q1016

Asuncion Center (Paraguay): 126.900
Asuncion Center (Paraguay): 128.400
Curitiba Center: 127.200
Curitiba Center: 125.800
Emergency/Guard: 121.500
Foz do Iguacu Approach/Departure: 120.300
Foz do Iguacu Approach/Departure: 119.150
Foz do Iguacu Tower: 118.800
Guarani Approach (Paraguay): 119.300
Puerto Iguazu - Cataratas Tower (Argentina) : 120.700
Resistencia Center (Argentina): 124.300
UNICOM: 123.450

SBFZ ACC/Misc (Archives)
Fortaleza, Brazil

Feed Status: UP
Listen in your browser - HTML5 player(in browser, HTML5)
Click here to listen with your own player(launches your MP3 player)

SBFZ 241600Z 10016KT 9999 BKN027 SCT070 30/22 Q1012

SBFZ Flight Activity (Flightaware)

Listeners: 4 out of 1424 total

Ait to Air: 123.450
SBAC: 131.250
SBJE: 131.050
SBJU: 131.750
SBMS: 125.800
SBPB: 126.600
SBRF ACC: 135.250
SBRF ACC: 133.500
SBRF ACC: 126.350
SBRF ACC: 125.150

SBFZ Twr/App/Center (Archives)
Fortaleza, Brazil

Feed Status: UP
Listen in your browser - HTML5 player(in browser, HTML5)
Click here to listen with your own player(launches your MP3 player)

SBFZ 241600Z 10016KT 9999 BKN027 SCT070 30/22 Q1012

SBFZ Flight Activity (Flightaware)

Listeners: 2 out of 1424 total

ACC-RE (Fortaleza Sector): 125.150
ACC-RE (Fortaleza Sector): 126.350
ACC-RE (Fortaleza Sector): 135.250
Fortaleza Approach: 133.000
Fortaleza Tower: 129.000

SBGO Gnd/Twr/App (Archives)
Goiania, Brazil

Feed Status: UP
Listen in your browser - HTML5 player(in browser, HTML5)
Click here to listen with your own player(launches your MP3 player)

SBGO 241615Z 21009G23KT 190V250 6000 -TSRA SCT030 SCT050CB OVC080 22/20 Q1016 RERA

SBGO Flight Activity (Flightaware)

Listeners: 2 out of 1424 total

Anapolis Approach: 119.150
Anapolis Approach: 120.550
Anapolis Approach: 133.000
Anapolis Approach: 129.450
Emergency/Guard: 121.500
Goiania Ground: 121.700
Goiania Tower: 118.700
Goiania Tower: 121.050

SBJP Tower (Archives)
Joao Pessoa, Brazil

Feed Status: UP
Listen in your browser - HTML5 player(in browser, HTML5)
Click here to listen with your own player(launches your MP3 player)

SBJP 241600Z 07012KT 9999 BKN030 30/22 Q1013

SBJP Flight Activity (Flightaware)

Listeners: 0 out of 1424 total

Joao Pessoa Tower: 118.300

SBJP Twr/Control/Airlines (Archives)
Joao Pessoa, Brazil

Feed Status: UP
Listen in your browser - HTML5 player(in browser, HTML5)
Click here to listen with your own player(launches your MP3 player)

SBJP 241600Z 07012KT 9999 BKN030 30/22 Q1013

SBJP Flight Activity (Flightaware)

Listeners: 0 out of 1424 total

AZUL: 130.900
GOL: 131.225
Joao Pessoa Tower: 118.300
Recife Control: 119.500
TAM: 130.500

SBJU Tower/Center (Archives)
Juazeiro do Norte, Brazil

Feed Status: UP
Listen in your browser - HTML5 player(in browser, HTML5)
Click here to listen with your own player(launches your MP3 player)


SBJU Flight Activity (Flightaware)

Listeners: 1 out of 1424 total

Pilot-to-Pilot: 123.450
Radio Juazeiro: 131.750
Recife Center: 135.250
Recife Center: 125.150

SBKP Approach (Archives)
Campinas, Brazil

Feed Status: UP
Listen in your browser - HTML5 player(in browser, HTML5)
Click here to listen with your own player(launches your MP3 player)

SBKP 241600Z 35009KT 9999 -RA FEW030 OVC100 23/18 Q1014

SBKP Flight Activity (Flightaware)

Listeners: 0 out of 1424 total

Campinas Approach: 132.100
Campinas Approach: 135.750

SBKP Tower #1 (Archives)
Campinas, Brazil

Feed Status: UP
Listen in your browser - HTML5 player(in browser, HTML5)
Click here to listen with your own player(launches your MP3 player)

SBKP 241600Z 35009KT 9999 -RA FEW030 OVC100 23/18 Q1014

SBKP Flight Activity (Flightaware)

Listeners: 4 out of 1424 total

Campinas Tower: 118.250

SBKP Tower #2 (Archives)
Campinas, Brazil

Feed Status: UP
Listen in your browser - HTML5 player(in browser, HTML5)
Click here to listen with your own player(launches your MP3 player)

SBKP 241600Z 35009KT 9999 -RA FEW030 OVC100 23/18 Q1014

SBKP Flight Activity (Flightaware)

Listeners: 0 out of 1424 total

Campinas Tower: 118.250

SBMG Twr/App (Archives)
Maringa, Brazil

Feed Status: UP
Listen in your browser - HTML5 player(in browser, HTML5)
Click here to listen with your own player(launches your MP3 player)

SBMG 241600Z 20003KT 9999 BKN020 BKN100 23/19 Q1013

SBMG Flight Activity (Flightaware)

Listeners: 0 out of 1424 total

Londrina Approach: 129.700
Maringa Tower: 118.750
UNICOM: 123.450

SBMK RDO/Center (Archives)
Montes Claros, Brazil

Feed Status: UP
Listen in your browser - HTML5 player(in browser, HTML5)
Click here to listen with your own player(launches your MP3 player)

SBMK Flight Activity (Flightaware)

Listeners: 1 out of 1424 total

Brasilia Center (Sector 15): 127.300
Montes Claros RDO: 131.700

SBMQ Tower/App/Center (Archives)
Macapa, Brazil

Feed Status: UP
Listen in your browser - HTML5 player(in browser, HTML5)
Click here to listen with your own player(launches your MP3 player)

SBMQ 241600Z 06012KT 9999 BKN020 35/24 Q1010

SBMQ Flight Activity (Flightaware)

Listeners: 1 out of 1424 total

Amazonico Center: 123.950
Amazonico Center: 128.000
Macapa Approach: 119.000
Macapa Tower: 118.000

SBNF Tower
Navegantes, Brazil

Feed Status: DOWN
Offline since: 2021-10-24 09:34:39 UTC

SBNF 241600Z 10006KT 9999 FEW040 SCT055 22/17 Q1011

Navegantes Tower: 118.200

SBPA Gnd/Twr/App/Center (Archives)
Porto Alegre, Brazil

Feed Status: UP
Listen in your browser - HTML5 player(in browser, HTML5)
Click here to listen with your own player(launches your MP3 player)

SBPA 241600Z 27011KT 240V320 9999 SCT049 23/12 Q1014

SBPA Flight Activity (Flightaware)

Listeners: 4 out of 1424 total

BACO (Canoas) Ground: 121.700
BACO (Canoas) Tower: 118.500
BACO (Canoas) Tower (Mil): 122.800
Curitiba Center (Sector 1/South SBPA): 126.750
Curitiba Center (Sector 1/South SBPA): 127.400
Curitiba Center (Sector 2): 123.725
Curitiba Center (Sector 2): 135.900
Curitiba Center (Sector 3/West SBFL): 127.500
Curitiba Center (Sector 3/West SBFL): 126.100
Curitiba Center (Sector 4/South SBFL): 135.850
Curitiba Center (Sector 4/South SBFL): 128.450
Curitiba Center (Sector 5/East SBCT): 124.400
Curitiba Center (Sector 5/East SBCT): 125.400
Curitiba Center (Sector 6/East SBCT Atlantico): 128.400
Curitiba Center (Sector 6/East SBCT Atlantico): 127.050
Curitiba Center (Sector 9/North SBCT): 132.800
Curitiba Center (Sector 9/North SBCT): 126.500
Emergency/Guard: 121.500
Porto Alegre Approach Sector 1: 120.100
Porto Alegre Approach Sector 2: 120.550
Porto Alegre Approach Sector 3: 128.900
Porto Alegre Approach Sector 4: 119.000
Salgado Filho Ground: 121.900
Salgado Filho Tower: 118.100

SBPL RDO/ACC (Archives)
Petrolina, Brazil

Feed Status: UP
Listen in your browser - HTML5 player(in browser, HTML5)
Click here to listen with your own player(launches your MP3 player)

SBPL 241600Z 15008KT 9999 SCT040 34/22 Q1013

SBPL Flight Activity (Flightaware)

Listeners: 1 out of 1424 total

ACC RE Sector 5: 127.500
ACC RE Sector 5: 128.450
ACC RE Sector 6: 125.400
ACC RE Sector 6: 134.900
Air to Air/UNICOM: 123.450
Emergency/Guard: 121.500
Misc: 123.400
Petrolina RDO: 125.700
Recife FIS: 123.625

SBRF App 129.60 (Archives)
Recife, Brazil

Feed Status: UP
Listen in your browser - HTML5 player(in browser, HTML5)
Click here to listen with your own player(launches your MP3 player)

SBRF 241600Z 06010KT 9999 SCT020 29/22 Q1013

SBRF Flight Activity (Flightaware)

Listeners: 3 out of 1424 total

Recife Approach: 129.600

SBRF Gol Ops (Archives)
Recife, Brazil

Feed Status: UP
Listen in your browser - HTML5 player(in browser, HTML5)
Click here to listen with your own player(launches your MP3 player)

SBRF 241600Z 06010KT 9999 SCT020 29/22 Q1013

SBRF Flight Activity (Flightaware)

Listeners: 0 out of 1424 total

Gol Ops: 131.225

SBRF Ground (Archives)
Recife, Brazil

Feed Status: UP
Listen in your browser - HTML5 player(in browser, HTML5)
Click here to listen with your own player(launches your MP3 player)

SBRF 241600Z 06010KT 9999 SCT020 29/22 Q1013

SBRF Flight Activity (Flightaware)

Listeners: 0 out of 1424 total

Recife Ground: 121.850

SBRF LATAM Ops (Archives)
Recife, Brazil

Feed Status: UP
Listen in your browser - HTML5 player(in browser, HTML5)
Click here to listen with your own player(launches your MP3 player)

SBRF 241600Z 06010KT 9999 SCT020 29/22 Q1013

SBRF Flight Activity (Flightaware)

Listeners: 0 out of 1424 total

LATAM Ops: 130.500

SBRF Recife ACC (Archives)
Recife, Brazil

Feed Status: UP
Listen in your browser - HTML5 player(in browser, HTML5)
Click here to listen with your own player(launches your MP3 player)

SBRF 241600Z 06010KT 9999 SCT020 29/22 Q1013

SBRF Flight Activity (Flightaware)

Listeners: 0 out of 1424 total

Recife Center: 128.700
Recife Center: 133.650
Recife Center: 134.800

SBRF Tower (Archives)
Recife, Brazil

Feed Status: UP
Listen in your browser - HTML5 player(in browser, HTML5)
Click here to listen with your own player(launches your MP3 player)

SBRF 241600Z 06010KT 9999 SCT020 29/22 Q1013

SBRF Flight Activity (Flightaware)

Listeners: 1 out of 1424 total

Recife Tower: 125.250
Recife Tower: 118.350
Recife Tower: 118.900

SBRP Tower/Center (Archives)
Ribeirao Preto, Brazil

Feed Status: UP
Listen in your browser - HTML5 player(in browser, HTML5)
Click here to listen with your own player(launches your MP3 player)

SBRP 241600Z 32006KT 9999 FEW035 OVC100 24/16 Q1015

SBRP Flight Activity (Flightaware)

Listeners: 1 out of 1424 total

Leite Lopes Tower: 118.000
Pirassununga Center (North): 119.550

SBSL Twr/App/FIR (Archives)
Sao Luis, Brazil

Feed Status: UP
Listen in your browser - HTML5 player(in browser, HTML5)
Click here to listen with your own player(launches your MP3 player)

SBSL 241600Z 05014KT 9999 BKN025 33/23 Q1011

SBSL Flight Activity (Flightaware)

Listeners: 1 out of 1424 total

Amazonica Center: 133.700
Sao Luis Approach: 119.100
Sao Luis Tower: 118.900

SBSN Twr/App/ACC
Santarem, Brazil

Feed Status: DOWN
Offline since: 2021-10-24 14:18:05 UTC

SBSN 241600Z 12008KT 9999 SCT017 BKN100 30/25 Q1011

Brasilia Center/ACC: 123.650
Brasilia Center/ACC: 125.050
Santarem Approach: 119.300
Santarem Tower: 118.100

SBSR AFIS/App/Center (Archives)
Sao Jose do Rio Preto, Brazil

Feed Status: UP
Listen in your browser - HTML5 player(in browser, HTML5)
Click here to listen with your own player(launches your MP3 player)

SBSR 241600Z 01005KT 9999 -DZ FEW010 SCT025 FEW030TCU BKN070 20/16 Q1016

SBSR Flight Activity (Flightaware)

Listeners: 1 out of 1424 total

Academia Approach (North Sector): 119.750
Academia Approach (North Sector): 120.400
Brasilia Center: 135.150
Rio Preto Radio AFIS: 130.850

SBTE Twr/App (Archives)
Teresina, Brazil

Feed Status: UP
Listen in your browser - HTML5 player(in browser, HTML5)
Click here to listen with your own player(launches your MP3 player)

SBTE 241600Z 31016KT 070V180 9999 BKN040 BKN070 33/24 Q1010

SBTE Flight Activity (Flightaware)

Listeners: 1 out of 1424 total

Teresina Approach: 119.600
Teresina Tower: 118.800

SBRE Recife ACC (Archives)
Paulo Afonso, Brazil

Feed Status: UP
Listen in your browser - HTML5 player(in browser, HTML5)
Click here to listen with your own player(launches your MP3 player)

SBRE Flight Activity (Flightaware)

Listeners: 0 out of 1424 total

Recife Center (ACC): 125.400
Recife Center (ACC): 125.450
Recife Center (ACC): 126.850
Recife Center (ACC): 133.650
Recife Center (ACC): 134.500
Recife Center (ACC): 134.900

SBUF AFIS/Center (Archives)
Paulo Afonso, Brazil

Feed Status: UP
Listen in your browser - HTML5 player(in browser, HTML5)
Click here to listen with your own player(launches your MP3 player)


SBUF Flight Activity (Flightaware)

Listeners: 1 out of 1424 total

Paulo Afonso Radio: 125.850
Recife Center: 133.650
Recife Center: 134.500
Recife Center: 125.450

SBQV AFIS (Archives)
Vitoria da Conquista, Brazil

Feed Status: UP
Listen in your browser - HTML5 player(in browser, HTML5)
Click here to listen with your own player(launches your MP3 player)

SBQV Flight Activity (Flightaware)

Listeners: 0 out of 1424 total

Conquista AFIS: 130.850
Despacho Azul: 131.875
Despacho Passaredo: 132.000

SBVT Gnd/Twr/App
Vitoria, Brazil

Feed Status: DOWN
Offline since: 2021-07-15 13:08:22 UTC

SBVT 241600Z 01013KT CAVOK 34/22 Q1010

SBVT Approach: 119.850
SBVT Ground: 121.950
SBVT Tower: 118.100

SCEL Gnd/Twr/Radar (Archives)
Santiago, Chile

Feed Status: UP
Listen in your browser - HTML5 player(in browser, HTML5)
Click here to listen with your own player(launches your MP3 player)

SCEL 241600Z VRB03KT CAVOK 23/02 Q1018 NOSIG

SCEL Flight Activity (Flightaware)

Listeners: 10 out of 1424 total

Santiago Authorizations: 121.700
Santiago Control (Lat 3323S North): 128.100
Santiago Control (Lat 3323S South): 126.300
Santiago Ground (Primary): 122.200
Santiago Ground (Secondary): 122.500
Santiago Radar: 125.400
Santiago Radar: 135.400
Santiago Radar (Arrival, Primary): 129.700
Santiago Radar (Arrival, Secondary): 119.700
Santiago Radar (Arrival, Secondary): 123.800
Santiago Radar (Departure, Primary): 121.100
Santiago Radar (Departure, Secondary): 123.800
Santiago Radar (Information, Primary): 122.400
Santiago Radar (Information, Secondary): 120.800
Santiago Radar (Information, Secondary): 123.800
Santiago Tower (Primary): 118.100
Santiago Tower (Secondary): 118.350
SCTB Tobalaba Tower: 118.700

SEGU App/Dep/Info (Archives)
Guayaquil, Ecuador

Feed Status: UP
Listen in your browser - HTML5 player(in browser, HTML5)
Click here to listen with your own player(launches your MP3 player)

SEGU 241600Z 15006KT 9999 SCT026 SCT100 28/20 Q1013 NOSIG RMK A2991

SEGU Flight Activity (Flightaware)

Listeners: 0 out of 1424 total

Guayaquil Approach: 120.700
Guayaquil Approach (Secondary): 119.300
Guayaquil Info: 126.900

SEGU Gnd/Twr (Archives)
Guayaquil, Ecuador

Feed Status: UP
Listen in your browser - HTML5 player(in browser, HTML5)
Click here to listen with your own player(launches your MP3 player)

SEGU 241600Z 15006KT 9999 SCT026 SCT100 28/20 Q1013 NOSIG RMK A2991

SEGU Flight Activity (Flightaware)

Listeners: 0 out of 1424 total

Guayaquil Ground: 121.900
Guayaquil Ground (Secondary): 121.700
Guayaquil Tower: 118.300
Guayaquil Tower (Secondary): 118.900

SEGU Gnd/Twr/App (Archives)
Guayaquil, Ecuador

Feed Status: UP
Listen in your browser - HTML5 player(in browser, HTML5)
Click here to listen with your own player(launches your MP3 player)

SEGU 241600Z 15006KT 9999 SCT026 SCT100 28/20 Q1013 NOSIG RMK A2991

SEGU Flight Activity (Flightaware)

Listeners: 0 out of 1424 total

Guayaquil Approach: 120.700
Guayaquil Ground: 121.900
Guayaquil Tower: 118.300

SEGU Guayaquil Center (Archives)
Guayaquil, Ecuador

Feed Status: UP
Listen in your browser - HTML5 player(in browser, HTML5)
Click here to listen with your own player(launches your MP3 player)

SEGU 241600Z 15006KT 9999 SCT026 SCT100 28/20 Q1013 NOSIG RMK A2991

SEGU Flight Activity (Flightaware)

Listeners: 0 out of 1424 total

Guayaquil Center: 127.950
Guayaquil Center: 128.300
Guayaquil Center (Secondary): 128.000
Guayaquil Center (Secondary): 123.900

SEQM ATIS (Archives)
Quito, Ecuador

Feed Status: UP
Listen in your browser - HTML5 player(in browser, HTML5)
Click here to listen with your own player(launches your MP3 player)

SEQM 241600Z 34004KT 9999 SCT036 BKN300 20/10 Q1027 NOSIG RMK A3033

SEQM Flight Activity (Flightaware)

Listeners: 0 out of 1424 total

Quito ATIS: 118.700

SEQM Gnd/Twr/App (Archives)
Quito, Ecuador

Feed Status: UP
Listen in your browser - HTML5 player(in browser, HTML5)
Click here to listen with your own player(launches your MP3 player)

SEQM 241600Z 34004KT 9999 SCT036 BKN300 20/10 Q1027 NOSIG RMK A3033

SEQM Flight Activity (Flightaware)

Listeners: 1 out of 1424 total

Quito Approach/Departure: 119.700
Quito Approach/Departure: 121.200
Quito Ground: 121.900
Quito Tower: 118.100
Quito Tower (Secondary): 118.350

SEQM Tower (Archives)
Quito, Ecuador

Feed Status: UP
Listen in your browser - HTML5 player(in browser, HTML5)
Click here to listen with your own player(launches your MP3 player)

SEQM 241600Z 34004KT 9999 SCT036 BKN300 20/10 Q1027 NOSIG RMK A3033

SEQM Flight Activity (Flightaware)

Listeners: 1 out of 1424 total

Quito Tower: 118.100
Quito Tower (Secondary): 118.350

SJOY CTAF
Palmeira, Brazil

Feed Status: DOWN
Offline since: 2021-02-23 18:22:22 UTC

METAR NOT AVAILABLE


SKBO Del/Gnd/Twr/App
Bogota, Colombia

Feed Status: DOWN
Offline since: 2020-09-01 16:38:05 UTC

SKBO 241600Z 03005KT 320V060 9999 SCT030 SCT200 19/10 Q1028 NOSIG RMK A3037

Bogota Approach: 119.500
Bogota Clearance Delivery: 121.600
Bogota Departure (North): 121.300
Bogota Departure (South): 119.650
Bogota Ground (North): 121.800
Bogota Ground (South): 122.750
Bogota Information: 126.900
Bogota Tower (North): 118.100
Bogota Tower (South): 118.250
Guaymaral Ground: 121.700
Guaymaral Tower: 118.800

SNRZ Area
Oliveira, Brazil

Feed Status: DOWN
Offline since: 2021-10-24 16:35:40 UTC

Azul: 130.900
Brasilia ACC-BS (Air Control Center): 133.450
Brasilia ACC-BS (Air Control Center): 135.550
Brasilia ACC-BS (Air Control Center): 126.150
Brasilia ACC-BS (Air Control Center): 126.800
Brasilia ACC-BS (Air Control Center): 125.050
Brasilia ACC-BS (Air Control Center): 126.500
Brasilia ACC-BS (Air Control Center): 122.650
Brasilia ACC-BS (Air Control Center): 126.550
Brasilia ACC-BS (Air Control Center): 123.350
Brasilia ACC-BS (Air Control Center): 124.750
Brasilia ACC-BS (Air Control Center): 134.750
Brasilia ACC-BS (Air Control Center): 133.600
Brasilia ACC-BS (Air Control Center): 124.800
Brasilia ACC-BS (Air Control Center): 124.250
Brasilia ACC-BS (Air Control Center): 127.300
Brasilia ACC-BS (Air Control Center): 127.000
Brasilia ACC-BS (Air Control Center): 124.250
Brasilia ACC-BS (Air Control Center): 127.300
Brasilia ACC-BS (Air Control Center): 127.000
Brasilia ACC-BS (Air Control Center): 133.450
Brasilia ACC-BS (Air Control Center): 135.550
Brasilia ACC-BS (Air Control Center): 126.150
Brasilia ACC-BS (Air Control Center): 126.800
Brasilia ACC-BS (Air Control Center): 125.050
Brasilia ACC-BS (Air Control Center): 126.500
Brasilia ACC-BS (Air Control Center): 122.650
Brasilia ACC-BS (Air Control Center): 126.550
Brasilia ACC-BS (Air Control Center): 123.350
Brasilia ACC-BS (Air Control Center): 124.750
Brasilia ACC-BS (Air Control Center): 134.750
Brasilia ACC-BS (Air Control Center): 133.600
Brasilia ACC-BS (Air Control Center): 124.800
Curitiba ACC-CW: 126.500
Curitiba ACC-CW: 134.750
Curitiba ACC-CW: 124.000
Curitiba ACC-CW: 125.350
Emergency: 121.500
Emergency: 121.500
GOL Coordination: 131.225
TAM Coordination: 130.500
TAM Maintenance: 130.600
Trip Coordination: 131.375

SPJC Approach
Lima, Peru

Feed Status: DOWN
Offline since: 2021-10-14 12:41:05 UTC

SPJC 241600Z 24005KT 200V290 9999 OVC014 17/13 Q1016 NOSIG RMK PP000

Lima Approach: 119.700

SPJC Ground
Lima, Peru

Feed Status: DOWN
Offline since: 2021-10-14 12:41:05 UTC

SPJC 241600Z 24005KT 200V290 9999 OVC014 17/13 Q1016 NOSIG RMK PP000

Lima Ground: 121.900

SPJC Tower
Lima, Peru

Feed Status: DOWN
Offline since: 2021-10-14 12:41:05 UTC

SPJC 241600Z 24005KT 200V290 9999 OVC014 17/13 Q1016 NOSIG RMK PP000

Lima Tower: 118.100

SPST Tower (Archives)
Tarapoto, Peru

Feed Status: UP
Listen in your browser - HTML5 player(in browser, HTML5)
Click here to listen with your own player(launches your MP3 player)

SPST 241600Z 35014KT 9999 SCT015 36/21 Q1010 RMK BIRD HAZARD RWY 17/35 PP000

SPST Flight Activity (Flightaware)

Listeners: 0 out of 1424 total

Tarapoto Tower: 118.400

SSBL Air to Air (Archives)
Blumenau, Brazil

Feed Status: UP
Listen in your browser - HTML5 player(in browser, HTML5)
Click here to listen with your own player(launches your MP3 player)

SSBL Flight Activity (Flightaware)

Listeners: 0 out of 1424 total

Air to Air: 123.450

SUAA Tower (Archives)
Montevideo, Uruguay

Feed Status: UP
Listen in your browser - HTML5 player(in browser, HTML5)
Click here to listen with your own player(launches your MP3 player)

SUAA 241600Z 27012KT CAVOK 20/07 Q1013

SUAA Flight Activity (Flightaware)

Listeners: 0 out of 1424 total

Adami Tower: 118.400
Adami Tower (backup): 122.100
Emergency/Guard: 121.500

SUCM AFIS/SUCA Twr/Guard (Archives)
Carmelo, Uruguay

Feed Status: UP
Listen in your browser - HTML5 player(in browser, HTML5)
Click here to listen with your own player(launches your MP3 player)


SUCM Flight Activity (Flightaware)

Listeners: 0 out of 1424 total

Carmelo AFIS: 122.100
Colonia Tower (SUCA): 120.800
Emergency/Guard: 121.500

SUDU Twr/App/FIR
Durazno, Uruguay

Feed Status: DOWN
Offline since: 2021-10-18 15:15:23 UTC


Durazno Twr/App: 120.400
Durazno Twr/App: 126.200
Montevideo Control - Centro (Central): 126.300

SULS Tower (Archives)
Punta del Este, Uruguay

Feed Status: UP
Listen in your browser - HTML5 player(in browser, HTML5)
Click here to listen with your own player(launches your MP3 player)

SULS 241600Z 31012KT 280V350 9999 FEW020 21/07 Q1012

SULS Flight Activity (Flightaware)

Listeners: 1 out of 1424 total

Air to Air: 123.450
SULS A/G: 122.100
SULS Tower: 118.300

SUMU Twr/App (Archives)
Montevideo, Uruguay

Feed Status: UP
Listen in your browser - HTML5 player(in browser, HTML5)
Click here to listen with your own player(launches your MP3 player)

SUMU 241615Z 28015G25KT 9999 FEW023 22/05 Q1012 NOSIG

SUMU Flight Activity (Flightaware)

Listeners: 0 out of 1424 total

SUMU Approach: 119.200
SUMU Tower: 118.100

SUMU Twr/App/Radar (Archives)
Montevideo, Uruguay

Feed Status: UP
Listen in your browser - HTML5 player(in browser, HTML5)
Click here to listen with your own player(launches your MP3 player)

SUMU 241615Z 28015G25KT 9999 FEW023 22/05 Q1012 NOSIG

SUMU Flight Activity (Flightaware)

Listeners: 5 out of 1424 total

SUMU Approach: 120.200
SUMU Approach: 119.200
SUMU Info: 121.800
SUMU Informacion: 121.800
SUMU Radar Control: 128.500
SUMU Radar Control: 126.300
SUMU Radar Control: 128.000
SUMU Tower: 118.100

SUPE CTAF (Archives)
Punta del Este, Uruguay

Feed Status: UP
Listen in your browser - HTML5 player(in browser, HTML5)
Click here to listen with your own player(launches your MP3 player)

SULS 241600Z 31012KT 280V350 9999 FEW020 21/07 Q1012

SULS Flight Activity (Flightaware)

Listeners: 0 out of 1424 total

SUPE CTAF: 118.700

SUPU/SUPC Misc (Archives)
Paysandu, Uruguay

Feed Status: UP
Listen in your browser - HTML5 player(in browser, HTML5)
Click here to listen with your own player(launches your MP3 player)


SUPU Flight Activity (Flightaware)

Listeners: 0 out of 1424 total

Chalkling Tower: 118.700
Paysandu Tower: 118.200

SVPR Twr/App/FIR (Archives)
Ciudad Guayana, Venezuela

Feed Status: UP
Listen in your browser - HTML5 player(in browser, HTML5)
Click here to listen with your own player(launches your MP3 player)

SVPR Flight Activity (Flightaware)

Listeners: 0 out of 1424 total

Emergency/Guard: 121.500
FIR 6: 126.000
Guayana Approach (Primary): 119.500
Guayana Approach (Secondary): 120.300
Guayana Tower (Primary): 118.000
Guayana Tower (Secondary): 123.500
SMC: 121.900

TBPB Gnd/Twr/Radar/Center (Archives)
Bridgetown, Barbados

Feed Status: UP
Listen in your browser - HTML5 player(in browser, HTML5)
Click here to listen with your own player(launches your MP3 player)

TBPB 241600Z 10021KT 9999 FEW020 31/23 Q1014 NOSIG

TBPB Flight Activity (Flightaware)

Listeners: 1 out of 1424 total

Adams Approach/Departure: 129.350
Adams Approach/Departure: 128.850
Adams Ground: 121.900
Adams Tower: 118.700
Piarco Center: 123.700

TNCA Twr/App/Apron (Archives)
Oranjestad, Aruba

Feed Status: UP
Listen in your browser - HTML5 player(in browser, HTML5)
Click here to listen with your own player(launches your MP3 player)

TNCA 241600Z 09020KT 9999 SCT023 31/23 Q1014 NOSIG

TNCA Flight Activity (Flightaware)

Listeners: 0 out of 1424 total

Beatrix Ground (Apron): 121.600
Beatrix Tower: 118.000
Beatrix Twr/App: 120.900
Emergency/Guard: 121.500
Search/Rescue: 123.100

TNCB ATIS (Archives)
Kralendijk, Bonaire

Feed Status: UP
Listen in your browser - HTML5 player(in browser, HTML5)
Click here to listen with your own player(launches your MP3 player)

TNCB 241555Z 09017KT 060V130 9999 SCT027 31/23 Q1014

TNCB Flight Activity (Flightaware)

Listeners: 0 out of 1424 total

Bonaire ATIS: 132.300

TNCB Tower (Archives)
Kralendijk, Bonaire

Feed Status: UP
Listen in your browser - HTML5 player(in browser, HTML5)
Click here to listen with your own player(launches your MP3 player)

TNCB 241555Z 09017KT 060V130 9999 SCT027 31/23 Q1014

TNCB Flight Activity (Flightaware)

Listeners: 0 out of 1424 total

Bonaire Tower: 118.700

TNCC ATIS (Archives)
Willemstad, Curacao

Feed Status: UP
Listen in your browser - HTML5 player(in browser, HTML5)
Click here to listen with your own player(launches your MP3 player)

TNCC 241600Z 10014KT 9999 FEW022 31/24 Q1014 NOSIG

TNCC Flight Activity (Flightaware)

Listeners: 0 out of 1424 total

Hato ATIS: 132.600

TNCC Curacao Control (Archives)
Willemstad, Curacao

Feed Status: UP
Listen in your browser - HTML5 player(in browser, HTML5)
Click here to listen with your own player(launches your MP3 player)

TNCC 241600Z 10014KT 9999 FEW022 31/24 Q1014 NOSIG

TNCC Flight Activity (Flightaware)

Listeners: 1 out of 1424 total

Curacao Control: 124.100
Curacao Control: 127.100

TNCC Radar (Archives)
Willemstad, Curacao

Feed Status: UP
Listen in your browser - HTML5 player(in browser, HTML5)
Click here to listen with your own player(launches your MP3 player)

TNCC 241600Z 10014KT 9999 FEW022 31/24 Q1014 NOSIG

TNCC Flight Activity (Flightaware)

Listeners: 0 out of 1424 total

Hato Radar (1700-2300Z): 119.800

TNCC Tower (Archives)
Willemstad, Curacao

Feed Status: UP
Listen in your browser - HTML5 player(in browser, HTML5)
Click here to listen with your own player(launches your MP3 player)

TNCC 241600Z 10014KT 9999 FEW022 31/24 Q1014 NOSIG

TNCC Flight Activity (Flightaware)

Listeners: 0 out of 1424 total

Hato Tower: 118.300

TNCC Twr/Radar/Control (Archives)
Willemstad, Curacao

Feed Status: UP
Listen in your browser - HTML5 player(in browser, HTML5)
Click here to listen with your own player(launches your MP3 player)

TNCC 241600Z 10014KT 9999 FEW022 31/24 Q1014 NOSIG

TNCC Flight Activity (Flightaware)

Listeners: 1 out of 1424 total

Curacao Control: 127.100
Hato Radar: 119.600
Hato Tower: 118.300

TNCE Info (Archives)
Oranjestad, Sint Eustatius

Feed Status: UP
Listen in your browser - HTML5 player(in browser, HTML5)
Click here to listen with your own player(launches your MP3 player)

TNCE 241555Z AUTO 10005KT 060V150 //// // ///////// 29/25 Q1017 RE//

TNCE Flight Activity (Flightaware)

Listeners: 0 out of 1424 total

Statia Info: 118.100

TNCM App/Dep (Archives)
Philipsburg, Saint Martin

Feed Status: UP
Listen in your browser - HTML5 player(in browser, HTML5)
Click here to listen with your own player(launches your MP3 player)

TNCM 241600Z 08007KT 050V130 9999 SCT018 30/25 Q1018 NOSIG

TNCM Flight Activity (Flightaware)

Listeners: 0 out of 1424 total

Juliana Approach (only when busy): 128.950

TNCM Clearance Delivery (Archives)
Philipsburg, Saint Martin

Feed Status: UP
Listen in your browser - HTML5 player(in browser, HTML5)
Click here to listen with your own player(launches your MP3 player)

TNCM 241600Z 08007KT 050V130 9999 SCT018 30/25 Q1018 NOSIG

TNCM Flight Activity (Flightaware)

Listeners: 0 out of 1424 total

Juliana Clearance Delivery: 121.650

TNCM Tower (Archives)
Philipsburg, Saint Martin

Feed Status: UP
Listen in your browser - HTML5 player(in browser, HTML5)
Click here to listen with your own player(launches your MP3 player)

TNCM 241600Z 08007KT 050V130 9999 SCT018 30/25 Q1018 NOSIG

TNCM Flight Activity (Flightaware)

Listeners: 1 out of 1424 total

Juliana Tower (TNCM): 118.700

TQPF Tower (Archives)
The Valley, Anguilla

Feed Status: UP
Listen in your browser - HTML5 player(in browser, HTML5)
Click here to listen with your own player(launches your MP3 player)

TNCM 241600Z 08007KT 050V130 9999 SCT018 30/25 Q1018 NOSIG

TNCM Flight Activity (Flightaware)

Listeners: 0 out of 1424 total

Anguilla Tower: 118.500

TTCP Gnd/Twr/App (Archives)
Scarborough, Trinidad and Tobago

Feed Status: UP
Listen in your browser - HTML5 player(in browser, HTML5)
Click here to listen with your own player(launches your MP3 player)

TTCP 241600Z 10009KT 9999 FEW022 31/23 Q1014 NOSIG

TTCP Flight Activity (Flightaware)

Listeners: 0 out of 1424 total

Piarco Approach: 119.000
Robinson Ground: 121.700
Robinson Tower: 118.400

TTPP Apron/Gnd/Twr (Archives)
Port of Spain, Trinidad and Tobago

Feed Status: UP
Listen in your browser - HTML5 player(in browser, HTML5)
Click here to listen with your own player(launches your MP3 player)

TTPP 241604Z 15007G21KT 9999 -SHRA SCT018 29/22 Q1014

TTPP Flight Activity (Flightaware)

Listeners: 1 out of 1424 total

Piarco Apron: 121.750
Piarco Ground: 121.900
Piarco Tower: 118.100

TTPP Piarco Approach (Archives)
Port of Spain, Trinidad and Tobago

Feed Status: UP
Listen in your browser - HTML5 player(in browser, HTML5)
Click here to listen with your own player(launches your MP3 player)

TTPP 241604Z 15007G21KT 9999 -SHRA SCT018 29/22 Q1014

TTPP Flight Activity (Flightaware)

Listeners: 0 out of 1424 total

Piarco Approach: 119.550
Piarco Approach: 119.000
Piarco Approach (backup): 124.000

TTPP Piarco Center (Archives)
Port of Spain, Trinidad and Tobago

Feed Status: UP
Listen in your browser - HTML5 player(in browser, HTML5)
Click here to listen with your own player(launches your MP3 player)

TTPP 241604Z 15007G21KT 9999 -SHRA SCT018 29/22 Q1014

TTPP Flight Activity (Flightaware)

Listeners: 0 out of 1424 total

Piarco Center: 123.700
Piarco Center (Oceanic): 126.500
Piarco Center (South Sector): 125.400
Piarco Center Oceanic (Backup): 133.100

TXKF ATIS (Archives)
Hamilton, Bermuda

Feed Status: UP
Listen in your browser - HTML5 player(in browser, HTML5)
Click here to listen with your own player(launches your MP3 player)

TXKF 241555Z 35006KT 320V020 9999 SCT021 SCT300 27/21 Q1020

TXKF Flight Activity (Flightaware)

Listeners: 0 out of 1424 total

Bermuda ATIS: 119.600

TXKF Del/Gnd (Archives)
Hamilton, Bermuda

Feed Status: UP
Listen in your browser - HTML5 player(in browser, HTML5)
Click here to listen with your own player(launches your MP3 player)

TXKF 241555Z 35006KT 320V020 9999 SCT021 SCT300 27/21 Q1020

TXKF Flight Activity (Flightaware)

Listeners: 0 out of 1424 total

Bermuda Ground/Clearance: 124.500

TXKF Del/Gnd/Twr/CTAF (Archives)
Hamilton, Bermuda

Feed Status: UP
Listen in your browser - HTML5 player(in browser, HTML5)
Click here to listen with your own player(launches your MP3 player)

TXKF 241555Z 35006KT 320V020 9999 SCT021 SCT300 27/21 Q1020

TXKF Flight Activity (Flightaware)

Listeners: 0 out of 1424 total

Bermuda CTAF: 122.800
Bermuda Ground/Clearance: 124.500
Bermuda Tower: 118.100

TXKF Tower (Archives)
Hamilton, Bermuda

Feed Status: UP
Listen in your browser - HTML5 player(in browser, HTML5)
Click here to listen with your own player(launches your MP3 player)

TXKF 241555Z 35006KT 320V020 9999 SCT021 SCT300 27/21 Q1020

TXKF Flight Activity (Flightaware)

Listeners: 0 out of 1424 total

Bermuda Tower: 118.100

ZNY Sector 81 (Bermuda)/App (Archives)
Hamilton, Bermuda

Feed Status: UP
Listen in your browser - HTML5 player(in browser, HTML5)
Click here to listen with your own player(launches your MP3 player)

TXKF 241555Z 35006KT 320V020 9999 SCT021 SCT300 27/21 Q1020

TXKF Flight Activity (Flightaware)

Listeners: 0 out of 1424 total

New York Approach: 119.100
New York Center (BDA81 Bermuda Sector): 128.500

UAAA Approach (Archives)
Almaty, Kazakhstan

Feed Status: UP
Listen in your browser - HTML5 player(in browser, HTML5)
Click here to listen with your own player(launches your MP3 player)

UAAA 241621Z 15002MPS 1100 R23L/P2000N BR FU NSC 03/00 Q1021 R23L/CLRD65 NOSIG

UAAA Flight Activity (Flightaware)

Listeners: 0 out of 1424 total

Almaty Approach: 124.800

UAAA Tower (Archives)
Almaty, Kazakhstan

Feed Status: UP
Listen in your browser - HTML5 player(in browser, HTML5)
Click here to listen with your own player(launches your MP3 player)

UAAA 241621Z 15002MPS 1100 R23L/P2000N BR FU NSC 03/00 Q1021 R23L/CLRD65 NOSIG

UAAA Flight Activity (Flightaware)

Listeners: 0 out of 1424 total

Almaty Tower: 119.400

UAAA Tower/Approach (Archives)
Almaty, Kazakhstan

Feed Status: UP
Listen in your browser - HTML5 player(in browser, HTML5)
Click here to listen with your own player(launches your MP3 player)

UAAA 241621Z 15002MPS 1100 R23L/P2000N BR FU NSC 03/00 Q1021 R23L/CLRD65 NOSIG

UAAA Flight Activity (Flightaware)

Listeners: 0 out of 1424 total

Almaty Approach: 124.800
Almaty Tower: 119.400

UIAA Twr/App/Center
Chita, Russia

Feed Status: DOWN
Offline since: 2021-09-18 08:27:39 UTC

Center: 135.600
Chita Approach: 122.000
Chita Tower: 118.200

UNNT Gnd/Twr/App/Radar/Misc
Novosibirsk, Russia

Feed Status: DOWN
Offline since: 2021-10-24 13:17:40 UTC

UNNT 241600Z 22007MPS CAVOK 09/06 Q1020 R25/090070 R16/090070 NOSIG RMK QFE755/1006

ACC_Novosibirsk-Control [5th military channel]: 128.500
ACC_Novosibirsk-Control [Southeast]: 126.100
ACC_Novosibirsk-Control [West]: 127.000
GPA_Kristallik [Severniy airfield]: 123.425
GPA_Sernisiy [Chkalovskiy airfield]: 124.750
GPA_Tomsk Information 1: 134.500
MIL_3 [3rd military channel]: 130.750
MIL_Larek [Shilovo facility]: 123.750
MIL_Maneken [Chkalovskiy airfield]: 123.550
MIL_Novosibirsk-1 [1st military channel]: 124.000
MIL_Noyabr' 31: 124.900
MIL_Trimaran: 124.500
SP_Air-to-Air: 123.450
SP_Air-to-Air 2: 123.400
SP_Common backup frequency: 129.000
SP_Emergency: 121.500
SP_Emergency 2: 123.100
SP_Flyoff: 124.375
SURF_Boarding: 163.425
SURF_Duty chart: 163.800
SURF_O&D Service: 163.325
SURF_Search & Rescue: 164.000
SURF_Security: 163.750
SURF_Tower surf: 163.650
SURF_Vehicles: 163.850
UNNT_Backup frequency: 127.100
UNNT_Novosibirsk-Approach: 127.500
UNNT_Novosibirsk-Ground: 121.700
UNNT_Novosibirsk-Radar: 122.000
UNNT_Novosibirsk-Tower: 118.500
UNNT_Novosibirsk-Transit: 131.600
UNNT_S7 FOCC: 131.925

UNOO Gnd/Tower/App (Archives)
Omsk, Russia

Feed Status: UP
Listen in your browser - HTML5 player(in browser, HTML5)
Click here to listen with your own player(launches your MP3 player)

UNOO 241600Z 19004MPS 8000 NSC 09/06 Q1015 R25/CLRD60 NOSIG RMK QFE753

UNOO Flight Activity (Flightaware)

Listeners: 3 out of 1424 total

Aerodrom Kalachevo: 123.300
Aerodrom Marianovka: 123.000
Emergency/Guard: 121.500
Novosibirsk Control (Sector 7): 132.500
Novosibirsk Control (Sector 8): 132.900
Omsk Approach (FL060-FL265): 131.200
Omsk Apron: 118.800
Omsk Start/Radar: 119.000
Omsk Taxiing: 121.700
Omsk Transit: 131.700
UNOS/OMSK-Severny: 124.000

UNTT Gnd/Info/Radar/Control (Archives)
Tomsk, Russia

Feed Status: UP
Listen in your browser - HTML5 player(in browser, HTML5)
Click here to listen with your own player(launches your MP3 player)

UNTT Flight Activity (Flightaware)

Listeners: 1 out of 1424 total

Common Backup Frequency: 129.000
Emergency/Guard: 121.500
Kemerovo Approach: 125.500
Novosibirsk Control (Sector 3): 129.300
Novosibirsk Control (Sector 5): 132.300
Novosibirsk Control (Sector 9): 134.400
Tomsk Ground: 118.800
Tomsk Information (Sector 3): 129.800
Tomsk Tower: 127.300
Tomsk Transit: 131.875
Troynik (Golovino): 122.400

URKK Gnd/Twr/App
Krasnodar, Russia

Feed Status: DOWN
Offline since: 2021-07-10 08:55:40 UTC

URKK 241600Z 36006MPS 9999 -SHRA BKN046CB 07/06 Q1023 R05R/290060 TEMPO 0500 +TSRA SCT005 BKN020CB RMK QFE764

Krasnodar Approach: 129.600
Krasnodar Ground: 119.000
Krasnodar Radar: 121.300
Krasnodar Tower: 118.200

URMT Twr/App/Control (Archives)
Stavropol, Russia

Feed Status: UP
Listen in your browser - HTML5 player(in browser, HTML5)
Click here to listen with your own player(launches your MP3 player)

URMT 241600Z 01005MPS 9999 SCT011 OVC019 09/07 Q1019 R07/010070 TEMPO 0500 FG OVC002 RMK QFE724

URMT Flight Activity (Flightaware)

Listeners: 0 out of 1424 total

Stavropol Approach: 120.300
Stavropol Control: 118.250
Stavropol Tower: 120.900

URSS Gnd/Twr/App (Archives)
Sochi, Russia

Feed Status: UP
Listen in your browser - HTML5 player(in browser, HTML5)
Click here to listen with your own player(launches your MP3 player)

URSS 241600Z 06002MPS 9999 BKN020CB OVC100 15/13 Q1018 R02/010070 R06/010070 NOSIG RMK R06/10002MPS MT OBSC QFE762

URSS Flight Activity (Flightaware)

Listeners: 9 out of 1424 total

Sochi Approach: 118.300
Sochi Approach: 119.700
Sochi District (Small Aircraft): 118.500
Sochi Start: 121.200
Sochi Taxi: 119.000
Sochi Tower: 124.600

USDD Gnd/Twr/App/Control (Archives)
Salekhard, Russia

Feed Status: UP
Listen in your browser - HTML5 player(in browser, HTML5)
Click here to listen with your own player(launches your MP3 player)


USDD Flight Activity (Flightaware)

Listeners: 0 out of 1424 total

Salekhard Control: 132.300
Salekhard Ground: 118.800
Salekhard Info: 125.200
Salekhard Krug: 120.800
Salekhard Tower: 118.600
Salekhard Transit: 131.700

USTR Gnd/Twr/App (Archives)
Tyumen, Russia

Feed Status: UP
Listen in your browser - HTML5 player(in browser, HTML5)
Click here to listen with your own player(launches your MP3 player)

USTR 241600Z 17003MPS 4600 -RA BR OVC005 06/06 Q1003 R21/290060 R30/290060 TEMPO 3100 -SHRA BR BKN003 BKN016CB RMK QBB170

USTR Flight Activity (Flightaware)

Listeners: 0 out of 1424 total

Tyumen Approach: 126.100
Tyumen Control: 132.600
Tyumen Control: 133.600
Tyumen Info (Regional): 133.400
Tyumen Start: 118.200
Tyumen Transit: 131.800

USUU Twr/App/Control (Archives)
Kurgan, Russia

Feed Status: UP
Listen in your browser - HTML5 player(in browser, HTML5)
Click here to listen with your own player(launches your MP3 player)

USUU Flight Activity (Flightaware)

Listeners: 0 out of 1424 total

Aerodromnaya 50: 164.100
Baggage Handling: 164.025
Kurgan Approach: 120.300
Kurgan Tower: 134.300
Kurgan/USUU Transit: 131.700
Kurtamysh: 122.450
Ural Control Sector 4: 119.700
USUL Tower: 129.600

UUEE Twr/App/Radar (Archives)
Moscow, Russia

Feed Status: UP
Listen in your browser - HTML5 player(in browser, HTML5)
Click here to listen with your own player(launches your MP3 player)

UUEE 241600Z 32006MPS 9999 -SHSN SCT045CB 01/M02 Q1020 RESHSN R88/290051 TEMPO 0700 +SHSN BKN011CB

UUEE Flight Activity (Flightaware)

Listeners: 4 out of 1424 total

Sheremetyevo Radar: 118.100
Sheremetyevo Radar/Departure: 126.600
Sheremetyevo Tower: 131.500
Sheremetyevo Tower (Rwy 24R/06L): 118.700

VHHH ATIS
Hong Kong, Hong Kong

Feed Status: DOWN
Offline since: 2020-04-09 19:09:06 UTC

VHHH 241630Z 05009KT 9999 FEW040 20/14 Q1019 NOSIG

Hong Kong Arrival ATIS: 128.200

VHHH Clearance Delivery
Hong Kong, Hong Kong

Feed Status: DOWN
Offline since: 2020-04-09 19:09:06 UTC

VHHH 241630Z 05009KT 9999 FEW040 20/14 Q1019 NOSIG

Hong Kong Clearance Delivery: 129.900

VHHH Ground
Hong Kong, Hong Kong

Feed Status: DOWN
Offline since: 2020-04-09 19:08:40 UTC

VHHH 241630Z 05009KT 9999 FEW040 20/14 Q1019 NOSIG

Hong Kong Ground (North): 121.600
Hong Kong Ground (South): 122.550

VHHH Ground (North)
Hong Kong, Hong Kong

Feed Status: DOWN
Offline since: 2020-04-09 19:09:06 UTC

VHHH 241630Z 05009KT 9999 FEW040 20/14 Q1019 NOSIG

Hong Kong Ground (North): 121.600

VHHH Ground (South)
Hong Kong, Hong Kong

Feed Status: DOWN
Offline since: 2020-04-09 19:09:06 UTC

VHHH 241630Z 05009KT 9999 FEW040 20/14 Q1019 NOSIG

Hong Kong Ground (South): 122.550

VMMC Tower (Archives)
Taipa, China

Feed Status: UP
Listen in your browser - HTML5 player(in browser, HTML5)
Click here to listen with your own player(launches your MP3 player)

VMMC 241600Z 36018KT 9999 FEW040 21/16 Q1019 NOSIG

VMMC Flight Activity (Flightaware)

Listeners: 1 out of 1424 total

Macau Tower: 118.000

VTBS Approach (East) (Archives)
Bangkok, Thailand

Feed Status: UP
Listen in your browser - HTML5 player(in browser, HTML5)
Click here to listen with your own player(launches your MP3 player)

VTBS 241600Z 07009KT 9999 FEW020 SCT080 28/21 Q1013 NOSIG

VTBS Flight Activity (Flightaware)

Listeners: 0 out of 1424 total

Bangkok Approach (East): 122.350

VTBS Approach 119.1 (Archives)
Bangkok, Thailand

Feed Status: UP
Listen in your browser - HTML5 player(in browser, HTML5)
Click here to listen with your own player(launches your MP3 player)

VTBS 241600Z 07009KT 9999 FEW020 SCT080 28/21 Q1013 NOSIG

VTBS Flight Activity (Flightaware)

Listeners: 0 out of 1424 total

Bangkok Approach: 119.100

VTBS Approach 119.4 (Archives)
Bangkok, Thailand

Feed Status: UP
Listen in your browser - HTML5 player(in browser, HTML5)
Click here to listen with your own player(launches your MP3 player)

VTBS 241600Z 07009KT 9999 FEW020 SCT080 28/21 Q1013 NOSIG

VTBS Flight Activity (Flightaware)

Listeners: 0 out of 1424 total

Bangkok Approach: 119.400

VTBS Approach 120.3 (Archives)
Bangkok, Thailand

Feed Status: UP
Listen in your browser - HTML5 player(in browser, HTML5)
Click here to listen with your own player(launches your MP3 player)

VTBS 241600Z 07009KT 9999 FEW020 SCT080 28/21 Q1013 NOSIG

VTBS Flight Activity (Flightaware)

Listeners: 0 out of 1424 total

Bangkok Approach: 120.300

VTBS Approach/Arrival (Archives)
Bangkok, Thailand

Feed Status: UP
Listen in your browser - HTML5 player(in browser, HTML5)
Click here to listen with your own player(launches your MP3 player)

VTBS 241600Z 07009KT 9999 FEW020 SCT080 28/21 Q1013 NOSIG

VTBS Flight Activity (Flightaware)

Listeners: 2 out of 1424 total

Bangkok Approach: 124.350
Bangkok Approach: 125.200
Bangkok Approach: 126.300
Bangkok Approach (North): 128.950
Bangkok Arrival (VTBD): 133.000

VTBS Arrival 121.1 (Archives)
Bangkok, Thailand

Feed Status: UP
Listen in your browser - HTML5 player(in browser, HTML5)
Click here to listen with your own player(launches your MP3 player)

VTBS 241600Z 07009KT 9999 FEW020 SCT080 28/21 Q1013 NOSIG

VTBS Flight Activity (Flightaware)

Listeners: 0 out of 1424 total

Bangkok Arrival: 121.100

VTBS ATIS (Archives)
Bangkok, Thailand

Feed Status: UP
Listen in your browser - HTML5 player(in browser, HTML5)
Click here to listen with your own player(launches your MP3 player)

VTBS 241600Z 07009KT 9999 FEW020 SCT080 28/21 Q1013 NOSIG

VTBS Flight Activity (Flightaware)

Listeners: 0 out of 1424 total

Bangkok D-ATIS: 127.650

VTBS Departure (Archives)
Bangkok, Thailand

Feed Status: UP
Listen in your browser - HTML5 player(in browser, HTML5)
Click here to listen with your own player(launches your MP3 player)

VTBS 241600Z 07009KT 9999 FEW020 SCT080 28/21 Q1013 NOSIG

VTBS Flight Activity (Flightaware)

Listeners: 0 out of 1424 total

Bangkok Departure: 119.250

VTBS Ground (All) (Archives)
Bangkok, Thailand

Feed Status: UP
Listen in your browser - HTML5 player(in browser, HTML5)
Click here to listen with your own player(launches your MP3 player)

VTBS 241600Z 07009KT 9999 FEW020 SCT080 28/21 Q1013 NOSIG

VTBS Flight Activity (Flightaware)

Listeners: 0 out of 1424 total

Bangkok Ground (East): 121.650
Bangkok Ground (Main): 121.750
Bangkok Ground (West): 121.950

VTBS Ground (East) (Archives)
Bangkok, Thailand

Feed Status: UP
Listen in your browser - HTML5 player(in browser, HTML5)
Click here to listen with your own player(launches your MP3 player)

VTBS 241600Z 07009KT 9999 FEW020 SCT080 28/21 Q1013 NOSIG

VTBS Flight Activity (Flightaware)

Listeners: 0 out of 1424 total

Bangkok Ground (East): 121.650

VTBS Ground (Main) (Archives)
Bangkok, Thailand

Feed Status: UP
Listen in your browser - HTML5 player(in browser, HTML5)
Click here to listen with your own player(launches your MP3 player)

VTBS 241600Z 07009KT 9999 FEW020 SCT080 28/21 Q1013 NOSIG

VTBS Flight Activity (Flightaware)

Listeners: 0 out of 1424 total

Bangkok Ground (Main): 121.750

VTBS Ground (West) (Archives)
Bangkok, Thailand

Feed Status: UP
Listen in your browser - HTML5 player(in browser, HTML5)
Click here to listen with your own player(launches your MP3 player)

VTBS 241600Z 07009KT 9999 FEW020 SCT080 28/21 Q1013 NOSIG

VTBS Flight Activity (Flightaware)

Listeners: 0 out of 1424 total

Bangkok Ground (West): 121.950

VTBS Tower (Archives)
Bangkok, Thailand

Feed Status: UP
Listen in your browser - HTML5 player(in browser, HTML5)
Click here to listen with your own player(launches your MP3 player)

VTBS 241600Z 07009KT 9999 FEW020 SCT080 28/21 Q1013 NOSIG

VTBS Flight Activity (Flightaware)

Listeners: 0 out of 1424 total

Bangkok Tower (Rwy 01L/19R): 119.000
Bangkok Tower (Rwy 01R/19L): 118.200

VTBS Tower (Rwy 01L/19R) (Archives)
Bangkok, Thailand

Feed Status: UP
Listen in your browser - HTML5 player(in browser, HTML5)
Click here to listen with your own player(launches your MP3 player)

VTBS 241600Z 07009KT 9999 FEW020 SCT080 28/21 Q1013 NOSIG

VTBS Flight Activity (Flightaware)

Listeners: 0 out of 1424 total

Bangkok Tower (Rwy 01L/19R): 119.000

VTBS Tower (Rwy 01R/19L) (Archives)
Bangkok, Thailand

Feed Status: UP
Listen in your browser - HTML5 player(in browser, HTML5)
Click here to listen with your own player(launches your MP3 player)

VTBS 241600Z 07009KT 9999 FEW020 SCT080 28/21 Q1013 NOSIG

VTBS Flight Activity (Flightaware)

Listeners: 0 out of 1424 total

Bangkok Tower (Rwy 01R/19L): 118.200

VTSS Approach (Archives)
Songkhla, Thailand

Feed Status: UP
Listen in your browser - HTML5 player(in browser, HTML5)
Click here to listen with your own player(launches your MP3 player)

VTSS 241600Z 26002KT 9999 FEW020 25/25 Q1012 NOSIG

VTSS Flight Activity (Flightaware)

Listeners: 0 out of 1424 total

Hat Yai Approach: 126.700

WAHH Approach
Yogyakarta, Indonesia

Feed Status: DOWN
Offline since: 2019-01-09 17:03:03 UTC

Adisutjipto Approach: 123.400

WBKK Gnd/Twr/Radar/Control (Archives)
Kota Kinabalu, Malaysia

Feed Status: UP
Listen in your browser - HTML5 player(in browser, HTML5)
Click here to listen with your own player(launches your MP3 player)

WBKK 241600Z 11005KT 080V140 9999 TS FEW014 FEW016CB 26/24 Q1010 NOSIG


Listeners: 3 out of 1424 total

Kinabalu Director: 119.100
Kinabalu Ground: 121.600
Kinabalu Radar: 126.100
Kinabalu Radar: 132.450
Kinabalu Radar: 128.300
Kinabalu Tower: 118.300

WBKS Approach (Archives)
Sandakan, Malaysia

Feed Status: UP
Listen in your browser - HTML5 player(in browser, HTML5)
Click here to listen with your own player(launches your MP3 player)

WBKS 241600Z AUTO VRB01KT //// // ////// 25/25 Q1010


Listeners: 2 out of 1424 total

Sandakan Approach/Departure: 123.200

WBKS ATIS (Archives)
Sandakan, Malaysia

Feed Status: UP
Listen in your browser - HTML5 player(in browser, HTML5)
Click here to listen with your own player(launches your MP3 player)

WBKS 241600Z AUTO VRB01KT //// // ////// 25/25 Q1010


Listeners: 1 out of 1424 total

Sandakan ATIS: 128.200

WBKS Emergency/Guard (Archives)
Sandakan, Malaysia

Feed Status: UP
Listen in your browser - HTML5 player(in browser, HTML5)
Click here to listen with your own player(launches your MP3 player)

WBKS 241600Z AUTO VRB01KT //// // ////// 25/25 Q1010


Listeners: 1 out of 1424 total

Emergency/Guard: 121.500

WBKS Gnd/Twr/App/Guard (Archives)
Sandakan, Malaysia

Feed Status: UP
Listen in your browser - HTML5 player(in browser, HTML5)
Click here to listen with your own player(launches your MP3 player)

WBKS 241600Z AUTO VRB01KT //// // ////// 25/25 Q1010


Listeners: 1 out of 1424 total

Emergency/Guard: 121.500
Sandakan Approach/Departure: 123.200
Sandakan Ground: 121.900
Sandakan Tower: 122.050

WBKS Ground (Archives)
Sandakan, Malaysia

Feed Status: UP
Listen in your browser - HTML5 player(in browser, HTML5)
Click here to listen with your own player(launches your MP3 player)

WBKS 241600Z AUTO VRB01KT //// // ////// 25/25 Q1010


Listeners: 1 out of 1424 total

Sandakan Ground: 121.900

WBKS Tower (Archives)
Sandakan, Malaysia

Feed Status: UP
Listen in your browser - HTML5 player(in browser, HTML5)
Click here to listen with your own player(launches your MP3 player)

WBKS 241600Z AUTO VRB01KT //// // ////// 25/25 Q1010


Listeners: 1 out of 1424 total

Sandakan Tower: 122.050

WMKB Radar (Archives)
Penang, Malaysia

Feed Status: UP
Listen in your browser - HTML5 player(in browser, HTML5)
Click here to listen with your own player(launches your MP3 player)

WMKB 241600Z 00000KT 6000 -TSRA FEW017CB SCT024 25/24 Q1012 NOSIG


Listeners: 1 out of 1424 total

Butterworth Radar: 125.800

YADG CTAF (Archives)
Sellicks Hill, South Australia, Australia

Feed Status: UP
Listen in your browser - HTML5 player(in browser, HTML5)
Click here to listen with your own player(launches your MP3 player)

YADG Flight Activity (Flightaware)

Listeners: 0 out of 1424 total

Aldinga CTAF: 127.150

YBAF Gnd/Twr #2 (Archives)
Brisbane, Queensland, Australia

Feed Status: UP
Listen in your browser - HTML5 player(in browser, HTML5)
Click here to listen with your own player(launches your MP3 player)

YBAF Flight Activity (Flightaware)

Listeners: 0 out of 1424 total

Brisbane Ground: 119.900
Brisbane Tower (North): 123.600
Brisbane Tower/CTAF (South): 118.100

YBAS Tower/Center (Archives)
Alice Springs, Northern Territory, Australia

Feed Status: UP
Listen in your browser - HTML5 player(in browser, HTML5)
Click here to listen with your own player(launches your MP3 player)

YBAS 241600Z AUTO 10006KT 9999 // NCD 19/09 Q1017

YBAS Flight Activity (Flightaware)

Listeners: 0 out of 1424 total

Alice Tower/CTAF: 118.300
Melbourne Center (above FL280): 128.850
Melbourne Center (below FL280): 119.800

Brisbane Center (128.6/YSSY) (Archives)
Brisbane, Queensland, Australia

Feed Status: UP
Listen in your browser - HTML5 player(in browser, HTML5)
Click here to listen with your own player(launches your MP3 player)

YSSY 241600Z 05005KT 9999 FEW025 SCT035 BKN050 16/11 Q1016

YSSY Flight Activity (Flightaware)

Listeners: 0 out of 1424 total

Brisbane Center: 128.600

YBBN Center (Archives)
Brisbane, Queensland, Australia

Feed Status: UP
Listen in your browser - HTML5 player(in browser, HTML5)
Click here to listen with your own player(launches your MP3 player)

YBBN 241600Z 12007KT 9999 SCT016 BKN021 22/19 Q1014

YBBN Flight Activity (Flightaware)

Listeners: 1 out of 1424 total

Brisbane Center (East): 132.850
Brisbane Center (North): 123.000
Brisbane Center (South): 128.150
Brisbane Center (West): 134.300

YBBN Gnd/Twr/App/Dep (Archives)
Brisbane, Queensland, Australia

Feed Status: UP
Listen in your browser - HTML5 player(in browser, HTML5)
Click here to listen with your own player(launches your MP3 player)

YBBN 241600Z 12007KT 9999 SCT016 BKN021 22/19 Q1014

YBBN Flight Activity (Flightaware)

Listeners: 0 out of 1424 total

Brisbane Approach: 123.500
Brisbane Approach/Departure (North): 124.700
Brisbane Approach/Departure (South): 125.600
Brisbane Departure: 128.300
Brisbane Departure: 133.450
Brisbane Ground: 121.700
Brisbane Tower: 120.500

YBBN Twr/App/Center (Archives)
Brisbane, Queensland, Australia

Feed Status: UP
Listen in your browser - HTML5 player(in browser, HTML5)
Click here to listen with your own player(launches your MP3 player)

YBBN 241600Z 12007KT 9999 SCT016 BKN021 22/19 Q1014

YBBN Flight Activity (Flightaware)

Listeners: 1 out of 1424 total

Brisbane Center (East): 134.300
Brisbane Center (West): 135.600
YBBN Approach North-West: 124.700
YBBN Approach South-East: 125.600
YBBN Tower 01L/19R (Northern Runway): 118.000
YBBN Tower 01R/19L (Southern Runway): 120.500

YBBN Twr/App/Dep (Archives)
Brisbane, Queensland, Australia

Feed Status: UP
Listen in your browser - HTML5 player(in browser, HTML5)
Click here to listen with your own player(launches your MP3 player)

YBBN 241600Z 12007KT 9999 SCT016 BKN021 22/19 Q1014

YBBN Flight Activity (Flightaware)

Listeners: 1 out of 1424 total

Brisbane Approach: 123.500
Brisbane Approach/Departure (North): 124.700
Brisbane Approach/Departure (South): 125.600
Brisbane Departure: 128.300
Brisbane Departure: 133.450
Brisbane Tower: 120.500

YBCG Approach (Archives)
Gold Coast City, Queensland, Australia

Feed Status: UP
Listen in your browser - HTML5 player(in browser, HTML5)
Click here to listen with your own player(launches your MP3 player)

YBCG 241600Z AUTO 16004KT 9999 // BKN021 BKN027 OVC031 21/18 Q1014

YBCG Flight Activity (Flightaware)

Listeners: 0 out of 1424 total

Brisbane Approach: 123.500

YBCG Area CTAF (Archives)
Gold Coast City, Queensland, Australia

Feed Status: UP
Listen in your browser - HTML5 player(in browser, HTML5)
Click here to listen with your own player(launches your MP3 player)

YBCG 241600Z AUTO 16004KT 9999 // BKN021 BKN027 OVC031 21/18 Q1014

YBCG Flight Activity (Flightaware)

Listeners: 0 out of 1424 total

Gold Coast Area CTAF: 126.700

YBCG Brisbane Centre (Archives)
Gold Coast City, Queensland, Australia

Feed Status: UP
Listen in your browser - HTML5 player(in browser, HTML5)
Click here to listen with your own player(launches your MP3 player)

YBCG 241600Z AUTO 16004KT 9999 // BKN021 BKN027 OVC031 21/18 Q1014

YBCG Flight Activity (Flightaware)

Listeners: 1 out of 1424 total

Brisbane Centre/Radar: 119.500

YBCG Ground (Archives)
Gold Coast City, Queensland, Australia

Feed Status: UP
Listen in your browser - HTML5 player(in browser, HTML5)
Click here to listen with your own player(launches your MP3 player)

YBCG 241600Z AUTO 16004KT 9999 // BKN021 BKN027 OVC031 21/18 Q1014

YBCG Flight Activity (Flightaware)

Listeners: 0 out of 1424 total

Gold Coast Ground: 121.800

YBCG Ground/Tower (Archives)
Gold Coast City, Queensland, Australia

Feed Status: UP
Listen in your browser - HTML5 player(in browser, HTML5)
Click here to listen with your own player(launches your MP3 player)

YBCG 241600Z AUTO 16004KT 9999 // BKN021 BKN027 OVC031 21/18 Q1014

YBCG Flight Activity (Flightaware)

Listeners: 0 out of 1424 total

Gold Coast Ground: 121.800
Gold Coast Tower: 118.700

YBCG Tower (Archives)
Gold Coast City, Queensland, Australia

Feed Status: UP
Listen in your browser - HTML5 player(in browser, HTML5)
Click here to listen with your own player(launches your MP3 player)

YBCG 241600Z AUTO 16004KT 9999 // BKN021 BKN027 OVC031 21/18 Q1014

YBCG Flight Activity (Flightaware)

Listeners: 0 out of 1424 total

Gold Coast Tower: 118.700

YBCS App/Dep #1 (Archives)
Cairns, Queensland, Australia

Feed Status: UP
Listen in your browser - HTML5 player(in browser, HTML5)
Click here to listen with your own player(launches your MP3 player)

YBCS 241600Z AUTO 14007KT 9999 // NCD 22/18 Q1012

YBCS Flight Activity (Flightaware)

Listeners: 0 out of 1424 total

Cairns Approach/Departure: 118.400

YBCS App/Dep #2 (Archives)
Cairns, Queensland, Australia

Feed Status: UP
Listen in your browser - HTML5 player(in browser, HTML5)
Click here to listen with your own player(launches your MP3 player)

YBCS 241600Z AUTO 14007KT 9999 // NCD 22/18 Q1012

YBCS Flight Activity (Flightaware)

Listeners: 0 out of 1424 total

Cairns Approach/Departure: 126.100

YBCS App/Dep (all) (Archives)
Cairns, Queensland, Australia

Feed Status: UP
Listen in your browser - HTML5 player(in browser, HTML5)
Click here to listen with your own player(launches your MP3 player)

YBCS 241600Z AUTO 14007KT 9999 // NCD 22/18 Q1012

YBCS Flight Activity (Flightaware)

Listeners: 0 out of 1424 total

Cairns Approach/Departure: 126.100
Cairns Approach/Departure: 118.400

YBCS Brisbane Centre (Archives)
Cairns, Queensland, Australia

Feed Status: UP
Listen in your browser - HTML5 player(in browser, HTML5)
Click here to listen with your own player(launches your MP3 player)

YBCS 241600Z AUTO 14007KT 9999 // NCD 22/18 Q1012

YBCS Flight Activity (Flightaware)

Listeners: 1 out of 1424 total

Brisbane Centre: 121.200

YBCS Emergency/Guard (Archives)
Cairns, Queensland, Australia

Feed Status: UP
Listen in your browser - HTML5 player(in browser, HTML5)
Click here to listen with your own player(launches your MP3 player)

YBCS 241600Z AUTO 14007KT 9999 // NCD 22/18 Q1012

YBCS Flight Activity (Flightaware)

Listeners: 0 out of 1424 total

Emergency/Guard: 121.500

YBCS Ground (Archives)
Cairns, Queensland, Australia

Feed Status: UP
Listen in your browser - HTML5 player(in browser, HTML5)
Click here to listen with your own player(launches your MP3 player)

YBCS 241600Z AUTO 14007KT 9999 // NCD 22/18 Q1012

YBCS Flight Activity (Flightaware)

Listeners: 0 out of 1424 total

Cairns Ground: 121.700

YBCS Ground/Tower (Archives)
Cairns, Queensland, Australia

Feed Status: UP
Listen in your browser - HTML5 player(in browser, HTML5)
Click here to listen with your own player(launches your MP3 player)

YBCS 241600Z AUTO 14007KT 9999 // NCD 22/18 Q1012

YBCS Flight Activity (Flightaware)

Listeners: 0 out of 1424 total

Cairns Ground: 121.700
Cairns Tower: 124.900

YBCS Tower (Archives)
Cairns, Queensland, Australia

Feed Status: UP
Listen in your browser - HTML5 player(in browser, HTML5)
Click here to listen with your own player(launches your MP3 player)

YBCS 241600Z AUTO 14007KT 9999 // NCD 22/18 Q1012

YBCS Flight Activity (Flightaware)

Listeners: 0 out of 1424 total

Cairns Tower: 124.900

YBCV CTAF/Brisbane Center (Archives)
Charleville, Queensland, Australia

Feed Status: UP
Listen in your browser - HTML5 player(in browser, HTML5)
Click here to listen with your own player(launches your MP3 player)

YBCV 241600Z AUTO 12006KT 9999 // NCD 24/05 Q1014

YBCV Flight Activity (Flightaware)

Listeners: 1 out of 1424 total

Brisbane Center: 124.800
Charleville CTAF/UNICOM: 126.700

YBOK Del/Gnd/Twr/App (Archives)
Oakey, Queensland, Australia

Feed Status: UP
Listen in your browser - HTML5 player(in browser, HTML5)
Click here to listen with your own player(launches your MP3 player)

YBOK Flight Activity (Flightaware)

Listeners: 0 out of 1424 total

Brisbane Center/FSS: 121.200
Oakey Approach: 125.400
Oakey Approach: 123.700
Oakey Approach (Final): 135.850
Oakey Clearance Delivery: 133.350
Oakey CTAF (+YTWB/YBWW): 127.650
Oakey Ground: 121.900
Oakey Tower: 120.100

YBSS CTAF
Bacchus Marsh, Victoria, Australia

Feed Status: DOWN
Offline since: 2021-10-24 16:41:40 UTC

Bacchus Marsh CTAF: 118.800

YBSS Glider 122.5
Bacchus Marsh, Victoria, Australia

Feed Status: DOWN
Offline since: 2021-10-24 16:41:40 UTC

Bacchus Marsh Glider Chat: 122.500

YBSS Glider 122.7
Bacchus Marsh, Victoria, Australia

Feed Status: DOWN
Offline since: 2021-10-24 16:41:40 UTC

Bacchus Marsh Glider Chat: 122.700

YBSS Glider 122.9
Bacchus Marsh, Victoria, Australia

Feed Status: DOWN
Offline since: 2021-10-24 16:41:40 UTC

Bacchus Marsh Glider Chat: 122.900

YBTL Approach/Departure (Archives)
Townsville, Queensland, Australia

Feed Status: UP
Listen in your browser - HTML5 player(in browser, HTML5)
Click here to listen with your own player(launches your MP3 player)

YBTL 241600Z AUTO 20006KT 9999 // NCD 24/21 Q1012

YBTL Flight Activity (Flightaware)

Listeners: 0 out of 1424 total

Townsville Approach/Departure: 126.800

YBTL ATIS (Archives)
Townsville, Queensland, Australia

Feed Status: UP
Listen in your browser - HTML5 player(in browser, HTML5)
Click here to listen with your own player(launches your MP3 player)

YBTL 241600Z AUTO 20006KT 9999 // NCD 24/21 Q1012

YBTL Flight Activity (Flightaware)

Listeners: 0 out of 1424 total

Townsville ATIS: 133.500

YBTL Brisbane Center (Archives)
Townsville, Queensland, Australia

Feed Status: UP
Listen in your browser - HTML5 player(in browser, HTML5)
Click here to listen with your own player(launches your MP3 player)

YBTL 241600Z AUTO 20006KT 9999 // NCD 24/21 Q1012

YBTL Flight Activity (Flightaware)

Listeners: 1 out of 1424 total

Brisbane Center: 120.550

YBTL Clearance Delivery (Archives)
Townsville, Queensland, Australia

Feed Status: UP
Listen in your browser - HTML5 player(in browser, HTML5)
Click here to listen with your own player(launches your MP3 player)

YBTL 241600Z AUTO 20006KT 9999 // NCD 24/21 Q1012

YBTL Flight Activity (Flightaware)

Listeners: 0 out of 1424 total

Townsville Clearance Delivery: 128.100

YBTL Ground (Archives)
Townsville, Queensland, Australia

Feed Status: UP
Listen in your browser - HTML5 player(in browser, HTML5)
Click here to listen with your own player(launches your MP3 player)

YBTL 241600Z AUTO 20006KT 9999 // NCD 24/21 Q1012

YBTL Flight Activity (Flightaware)

Listeners: 0 out of 1424 total

Townsville Ground: 119.450

YBTL Tower (Archives)
Townsville, Queensland, Australia

Feed Status: UP
Listen in your browser - HTML5 player(in browser, HTML5)
Click here to listen with your own player(launches your MP3 player)

YBTL 241600Z AUTO 20006KT 9999 // NCD 24/21 Q1012

YBTL Flight Activity (Flightaware)

Listeners: 0 out of 1424 total

Townsville Tower: 118.300

YGAW CTAF (Archives)
Gawler, South Australia, Australia

Feed Status: UP
Listen in your browser - HTML5 player(in browser, HTML5)
Click here to listen with your own player(launches your MP3 player)


YGAW Flight Activity (Flightaware)

Listeners: 0 out of 1424 total

Gawler CTAF: 126.550

YGLA CTAF (Archives)
Gladstone, Queensland, Australia

Feed Status: UP
Listen in your browser - HTML5 player(in browser, HTML5)
Click here to listen with your own player(launches your MP3 player)

YGLA 241600Z AUTO 24002KT 9999 // NCD 24/21 Q1012

YGLA Flight Activity (Flightaware)

Listeners: 0 out of 1424 total

Gladstone CTF/Multicom: 118.800

YGTH AWIS (Archives)
Griffith, New South Wales, Australia

Feed Status: UP
Listen in your browser - HTML5 player(in browser, HTML5)
Click here to listen with your own player(launches your MP3 player)

YGTH 241600Z AUTO 19007KT 9999 // ////// 09/03 Q1019

YGTH Flight Activity (Flightaware)

Listeners: 0 out of 1424 total

Griffith AWIS Weather: 132.950

YGTH CTAF (Archives)
Griffith, New South Wales, Australia

Feed Status: UP
Listen in your browser - HTML5 player(in browser, HTML5)
Click here to listen with your own player(launches your MP3 player)

YGTH 241600Z AUTO 19007KT 9999 // ////// 09/03 Q1019

YGTH Flight Activity (Flightaware)

Listeners: 0 out of 1424 total

Griffith CTAF: 126.550

YIVL CTAF/Center (Archives)
Inverell, New South Wales, Australia

Feed Status: UP
Listen in your browser - HTML5 player(in browser, HTML5)
Click here to listen with your own player(launches your MP3 player)

YIVL Flight Activity (Flightaware)

Listeners: 0 out of 1424 total

Brisbane Center: 132.350
Brisbane Center: 127.100
Brisbane Center: 130.900
Brisbane Center (high alt SE Inverell): 130.100
Brisbane Center (high alt): 133.000
Brisbane Center (NE Inverell): 134.200
Brisbane Center (North and East Inverell): 127.200
Brisbane Center (North Inverell high alt): 135.600
Brisbane Center (North Inverell): 121.200
Brisbane Center (SE Inverell): 125.750
Inverell CTAF: 126.700
Tamworth Tower: 119.400

YMAV Del/App (Archives)
Avalon, Victoria, Australia

Feed Status: UP
Listen in your browser - HTML5 player(in browser, HTML5)
Click here to listen with your own player(launches your MP3 player)

YMAV 241600Z AUTO 24006KT 9999 // OVC041 OVC050 10/06 Q1021

YMAV Flight Activity (Flightaware)

Listeners: 0 out of 1424 total

Avalon Clearance Delivery: 120.100
Melbourne Approach/Departure: 133.550

YMHB Gnd/Twr/Centre (Archives)
Cambridge, Tasmania, Australia

Feed Status: UP
Listen in your browser - HTML5 player(in browser, HTML5)
Click here to listen with your own player(launches your MP3 player)

YMHB 241626Z AUTO 21012KT 9999 -SHRA SCT020 SCT027 SCT036 08/06 Q1020 RESHRA

YMHB Flight Activity (Flightaware)

Listeners: 0 out of 1424 total

Hobart Ground: 121.700
Hobart Tower: 118.100
Melbourne Centre: 125.550

YMIA CTAF (Archives)
Mildura, Victoria, Australia

Feed Status: UP
Listen in your browser - HTML5 player(in browser, HTML5)
Click here to listen with your own player(launches your MP3 player)

YMIA 241600Z AUTO 16006KT 9999 // NCD 10/02 Q1022

YMIA Flight Activity (Flightaware)

Listeners: 0 out of 1424 total

Mildura CTAF: 118.800

YMIA Melbourne Center (Archives)
Mildura, Victoria, Australia

Feed Status: UP
Listen in your browser - HTML5 player(in browser, HTML5)
Click here to listen with your own player(launches your MP3 player)

YMIA 241600Z AUTO 16006KT 9999 // NCD 10/02 Q1022

YMIA Flight Activity (Flightaware)

Listeners: 0 out of 1424 total

Melbourne Center: 122.100

YMML Twr/App/Center (Archives)
Melbourne, Victoria, Australia

Feed Status: UP
Listen in your browser - HTML5 player(in browser, HTML5)
Click here to listen with your own player(launches your MP3 player)

YMML 241600Z 25011KT 9999 FEW028 BKN049 09/05 Q1020

YMML Flight Activity (Flightaware)

Listeners: 2 out of 1424 total

Air Ambulance: 132.750
DSE & Other Company: 119.100
Essendon Tower: 125.100
Inter-Pilot: 123.450
Jetstar Company: 130.925
Melbourne ACD: 127.200
Melbourne Approach: 132.000
Melbourne Centre: 130.300
Melbourne Centre: 128.500
Melbourne Centre: 126.800
Melbourne Centre: 125.800
Melbourne Centre: 125.700
Melbourne Centre: 125.200
Melbourne Centre: 123.750
Melbourne Centre: 122.400
Melbourne Departure: 118.900
Melbourne Departure: 129.400
Melbourne Tower: 120.500
Moorabbin Tower (East): 118.100
Moorabbin Tower (West): 123.000
Police Air Wing: 131.600
Qantas Company: 130.850
Qantas Company: 129.500
Rex Company: 126.450
Royal Victorian Aero Club Company: 128.700
Royal Victorian Aero Club Company: 133.400

YPAD Del/Gnd/Twr/App (Archives)
Adelaide, South Australia, Australia

Feed Status: UP
Listen in your browser - HTML5 player(in browser, HTML5)
Click here to listen with your own player(launches your MP3 player)

YPAD 241600Z 11007KT CAVOK 10/05 Q1023

YPAD Flight Activity (Flightaware)

Listeners: 1 out of 1424 total

Adelaide Approach (East of Adelaide): 118.200
Adelaide Approach (East of Adelaide): 130.450
Adelaide Approach (Kangaroo Island): 123.050
Adelaide Approach (North of Adelaide): 128.600
Adelaide Approach (West of Adelaide): 124.200
Adelaide Clearance Delivery: 126.100
Adelaide Ground: 121.700
Adelaide Tower: 120.500

YPAD Gnd/Twr/App/Center (Archives)
Adelaide, South Australia, Australia

Feed Status: UP
Listen in your browser - HTML5 player(in browser, HTML5)
Click here to listen with your own player(launches your MP3 player)

YPAD 241600Z 11007KT CAVOK 10/05 Q1023

YPAD Flight Activity (Flightaware)

Listeners: 2 out of 1424 total

Adelaide Approach (East of Adelaide): 118.200
Adelaide Approach (East of Adelaide): 130.450
Adelaide Approach (Kangaroo Island): 123.050
Adelaide Approach (North of Adelaide): 128.600
Adelaide Approach (West of Adelaide): 124.200
Adelaide Clearance Delivery: 126.100
Adelaide Ground: 121.700
Adelaide Tower: 120.500
Flight Watch: 135.750
Melbourne Centre: 124.300
Melbourne Centre ( East of Adelaide): 125.300
Melbourne Centre ( Pt Augusta, Pt Pirie, Whyalla): 123.900
Melbourne Centre (Mildura): 122.100
Melbourne Centre (North of Adelaide): 122.400
Melbourne Centre (Pt Lincoln): 125.900
Melbourne Centre (West of Adelaide ): 127.050

YPDN Gnd/Twr/App/Dep (Archives)
Darwin, Northern Territory, Australia

Feed Status: UP
Listen in your browser - HTML5 player(in browser, HTML5)
Click here to listen with your own player(launches your MP3 player)

YPDN 241600Z AUTO 36003KT 9999 // NCD 29/24 Q1010

YPDN Flight Activity (Flightaware)

Listeners: 2 out of 1424 total

Darwin Approach: 134.100
Darwin Arrival: 125.200
Darwin Departure: 119.550
Darwin Ground: 121.800
Darwin Tower: 133.100

YPJT Gnd/Twr (Archives)
Perth, Western Australia, Australia

Feed Status: UP
Listen in your browser - HTML5 player(in browser, HTML5)
Click here to listen with your own player(launches your MP3 player)

YPJT 241600Z AUTO 15004KT 9999 // SCT022 SCT030 BKN038 15/14 Q1009

YPJT Flight Activity (Flightaware)

Listeners: 0 out of 1424 total

Jandakot Ground: 124.300
Jandakot Tower: 119.400
Jandakot Tower/CTAF: 118.100

YPMQ CTAF (Archives)
Port Macquarie, New South Wales, Australia

Feed Status: UP
Listen in your browser - HTML5 player(in browser, HTML5)
Click here to listen with your own player(launches your MP3 player)

YPMQ Flight Activity (Flightaware)

Listeners: 0 out of 1424 total

Port Macquarie CTAF/Multicom: 118.100

YPPH Approach #1 (Archives)
Perth, Western Australia, Australia

Feed Status: UP
Listen in your browser - HTML5 player(in browser, HTML5)
Click here to listen with your own player(launches your MP3 player)

YPPH 241600Z 25003KT 9999 SCT022 BKN260 16/13 Q1009

YPPH Flight Activity (Flightaware)

Listeners: 0 out of 1424 total

Perth Approach: 123.600

YPPH Approach #2 (Archives)
Perth, Western Australia, Australia

Feed Status: UP
Listen in your browser - HTML5 player(in browser, HTML5)
Click here to listen with your own player(launches your MP3 player)

YPPH 241600Z 25003KT 9999 SCT022 BKN260 16/13 Q1009

YPPH Flight Activity (Flightaware)

Listeners: 0 out of 1424 total

Perth Approach: 123.600

YPPH Departure (Archives)
Perth, Western Australia, Australia

Feed Status: UP
Listen in your browser - HTML5 player(in browser, HTML5)
Click here to listen with your own player(launches your MP3 player)

YPPH 241600Z 25003KT 9999 SCT022 BKN260 16/13 Q1009

YPPH Flight Activity (Flightaware)

Listeners: 1 out of 1424 total

Perth Departure: 118.700

YPPH Ground (Archives)
Perth, Western Australia, Australia

Feed Status: UP
Listen in your browser - HTML5 player(in browser, HTML5)
Click here to listen with your own player(launches your MP3 player)

YPPH 241600Z 25003KT 9999 SCT022 BKN260 16/13 Q1009

YPPH Flight Activity (Flightaware)

Listeners: 0 out of 1424 total

Perth Ground: 121.700

YPPH Tower #1 (Archives)
Perth, Western Australia, Australia

Feed Status: UP
Listen in your browser - HTML5 player(in browser, HTML5)
Click here to listen with your own player(launches your MP3 player)

YPPH 241600Z 25003KT 9999 SCT022 BKN260 16/13 Q1009

YPPH Flight Activity (Flightaware)

Listeners: 1 out of 1424 total

Perth Tower: 127.400

YPPH Tower #2 (Archives)
Perth, Western Australia, Australia

Feed Status: UP
Listen in your browser - HTML5 player(in browser, HTML5)
Click here to listen with your own player(launches your MP3 player)

YPPH 241600Z 25003KT 9999 SCT022 BKN260 16/13 Q1009

YPPH Flight Activity (Flightaware)

Listeners: 0 out of 1424 total

Perth Tower: 127.400

YRYW 122.5 (Archives)
Raywood, Victoria, Australia

Feed Status: UP
Listen in your browser - HTML5 player(in browser, HTML5)
Click here to listen with your own player(launches your MP3 player)


YRYW Flight Activity (Flightaware)

Listeners: 0 out of 1424 total


YRYW 122.7 (Archives)
Raywood, Victoria, Australia

Feed Status: UP
Listen in your browser - HTML5 player(in browser, HTML5)
Click here to listen with your own player(launches your MP3 player)


YRYW Flight Activity (Flightaware)

Listeners: 0 out of 1424 total


YRYW 122.9 (Archives)
Raywood, Victoria, Australia

Feed Status: UP
Listen in your browser - HTML5 player(in browser, HTML5)
Click here to listen with your own player(launches your MP3 player)


YRYW Flight Activity (Flightaware)

Listeners: 0 out of 1424 total


YRYW CTAF (Archives)
Raywood, Victoria, Australia

Feed Status: UP
Listen in your browser - HTML5 player(in browser, HTML5)
Click here to listen with your own player(launches your MP3 player)


YRYW Flight Activity (Flightaware)

Listeners: 0 out of 1424 total

Raywood CTAF: 119.300

YSBK ATIS (Archives)
Bankstown, New South Wales, Australia

Feed Status: UP
Listen in your browser - HTML5 player(in browser, HTML5)
Click here to listen with your own player(launches your MP3 player)

YSBK Flight Activity (Flightaware)

Listeners: 0 out of 1424 total

Bankstown ATIS: 120.900

YSBK Tower (Archives)
Bankstown, New South Wales, Australia

Feed Status: UP
Listen in your browser - HTML5 player(in browser, HTML5)
Click here to listen with your own player(launches your MP3 player)

YSBK Flight Activity (Flightaware)

Listeners: 0 out of 1424 total

Bankstown Tower: 132.800

YSCN Tower/CTAF (Archives)
Camden, New South Wales, Australia

Feed Status: UP
Listen in your browser - HTML5 player(in browser, HTML5)
Click here to listen with your own player(launches your MP3 player)

YSCN Flight Activity (Flightaware)

Listeners: 0 out of 1424 total

Camden Tower/CTAF: 120.100

YSNW Gnd/CTAF/App/Center (Archives)
Nowra, New South Wales, Australia

Feed Status: UP
Listen in your browser - HTML5 player(in browser, HTML5)
Click here to listen with your own player(launches your MP3 player)

YSNW 241600Z AUTO 00000KT 9999 // BKN031 OVC039 13/12 Q1016

YSNW Flight Activity (Flightaware)

Listeners: 0 out of 1424 total

Enroute: 132.300
Nowra Approach: 123.500
Nowra CTAF: 118.850
Nowra Ground: 135.850

Brisbane Center (124.625/YSSY) (Archives)
Sydney, New South Wales, Australia

Feed Status: UP
Listen in your browser - HTML5 player(in browser, HTML5)
Click here to listen with your own player(launches your MP3 player)

YSSY 241600Z 05005KT 9999 FEW025 SCT035 BKN050 16/11 Q1016

YSSY Flight Activity (Flightaware)

Listeners: 0 out of 1424 total

Brisbane Center: 124.625

Brisbane Center (124.95/YSSY) (Archives)
Sydney, New South Wales, Australia

Feed Status: UP
Listen in your browser - HTML5 player(in browser, HTML5)
Click here to listen with your own player(launches your MP3 player)

YSSY 241600Z 05005KT 9999 FEW025 SCT035 BKN050 16/11 Q1016

YSSY Flight Activity (Flightaware)

Listeners: 0 out of 1424 total

Brisbane Center: 124.950

Brisbane Center (125.0/YSSY) (Archives)
Sydney, New South Wales, Australia

Feed Status: UP
Listen in your browser - HTML5 player(in browser, HTML5)
Click here to listen with your own player(launches your MP3 player)

YSSY 241600Z 05005KT 9999 FEW025 SCT035 BKN050 16/11 Q1016

YSSY Flight Activity (Flightaware)

Listeners: 0 out of 1424 total

Brisbane Center: 125.000

Brisbane Center (128.6/YSSY) (Archives)
Sydney, New South Wales, Australia

Feed Status: UP
Listen in your browser - HTML5 player(in browser, HTML5)
Click here to listen with your own player(launches your MP3 player)

YSSY 241600Z 05005KT 9999 FEW025 SCT035 BKN050 16/11 Q1016

YSSY Flight Activity (Flightaware)

Listeners: 0 out of 1424 total

Brisbane Center: 128.600

YSSY Approach (North/East) (Archives)
Sydney, New South Wales, Australia

Feed Status: UP
Listen in your browser - HTML5 player(in browser, HTML5)
Click here to listen with your own player(launches your MP3 player)

YSSY 241600Z 05005KT 9999 FEW025 SCT035 BKN050 16/11 Q1016

YSSY Flight Activity (Flightaware)

Listeners: 1 out of 1424 total

Sydney Approach (North/East): 124.400

YSSY Approach (South) (Archives)
Sydney, New South Wales, Australia

Feed Status: UP
Listen in your browser - HTML5 player(in browser, HTML5)
Click here to listen with your own player(launches your MP3 player)

YSSY 241600Z 05005KT 9999 FEW025 SCT035 BKN050 16/11 Q1016

YSSY Flight Activity (Flightaware)

Listeners: 0 out of 1424 total

Sydney Approach (South/West): 128.300

YSSY ATIS (Archives)
Sydney, New South Wales, Australia

Feed Status: UP
Listen in your browser - HTML5 player(in browser, HTML5)
Click here to listen with your own player(launches your MP3 player)

YSSY 241600Z 05005KT 9999 FEW025 SCT035 BKN050 16/11 Q1016

YSSY Flight Activity (Flightaware)

Listeners: 4 out of 1424 total

Sydney ATIS: 118.550

YSSY Center (South/West) (Archives)
Sydney, New South Wales, Australia

Feed Status: UP
Listen in your browser - HTML5 player(in browser, HTML5)
Click here to listen with your own player(launches your MP3 player)

YSSY 241600Z 05005KT 9999 FEW025 SCT035 BKN050 16/11 Q1016

YSSY Flight Activity (Flightaware)

Listeners: 1 out of 1424 total

Sydney Center: 124.550

YSSY Del/Gnd (Archives)
Sydney, New South Wales, Australia

Feed Status: UP
Listen in your browser - HTML5 player(in browser, HTML5)
Click here to listen with your own player(launches your MP3 player)

YSSY 241600Z 05005KT 9999 FEW025 SCT035 BKN050 16/11 Q1016

YSSY Flight Activity (Flightaware)

Listeners: 0 out of 1424 total

Sydney Clearance Delivery: 133.800
Sydney Ground (East of Rwys 16R/34L): 121.700
Sydney Ground (West of Rwys 16R/34L): 126.500

YSSY Departure (North/East) (Archives)
Sydney, New South Wales, Australia

Feed Status: UP
Listen in your browser - HTML5 player(in browser, HTML5)
Click here to listen with your own player(launches your MP3 player)

YSSY 241600Z 05005KT 9999 FEW025 SCT035 BKN050 16/11 Q1016

YSSY Flight Activity (Flightaware)

Listeners: 0 out of 1424 total

Sydney Departure (North/East): 123.000

YSSY Departure (South/West) (Archives)
Sydney, New South Wales, Australia

Feed Status: UP
Listen in your browser - HTML5 player(in browser, HTML5)
Click here to listen with your own player(launches your MP3 player)

YSSY 241600Z 05005KT 9999 FEW025 SCT035 BKN050 16/11 Q1016

YSSY Flight Activity (Flightaware)

Listeners: 0 out of 1424 total

Sydney Departure (Rte S, W and NW): 129.700

YSSY Director (Both)
Sydney, New South Wales, Australia

Feed Status: DOWN
Offline since: 2020-04-14 09:59:06 UTC

YSSY 241600Z 05005KT 9999 FEW025 SCT035 BKN050 16/11 Q1016

Sydney Director (East): 125.300
Sydney Director (West): 126.100

YSSY Director (East) (Archives)
Sydney, New South Wales, Australia

Feed Status: UP
Listen in your browser - HTML5 player(in browser, HTML5)
Click here to listen with your own player(launches your MP3 player)

YSSY 241600Z 05005KT 9999 FEW025 SCT035 BKN050 16/11 Q1016

YSSY Flight Activity (Flightaware)

Listeners: 0 out of 1424 total

Sydney Director (East): 125.300

YSSY Tower (Both) (Archives)
Sydney, New South Wales, Australia

Feed Status: UP
Listen in your browser - HTML5 player(in browser, HTML5)
Click here to listen with your own player(launches your MP3 player)

YSSY 241600Z 05005KT 9999 FEW025 SCT035 BKN050 16/11 Q1016

YSSY Flight Activity (Flightaware)

Listeners: 1 out of 1424 total

Sydney Tower (Rwy 16L/34R): 124.700
Sydney Tower (Rwy 16R/34L, Rwy 07/25): 120.500

YSSY Tower (Rwy 16L/34R) (Archives)
Sydney, New South Wales, Australia

Feed Status: UP
Listen in your browser - HTML5 player(in browser, HTML5)
Click here to listen with your own player(launches your MP3 player)

YSSY 241600Z 05005KT 9999 FEW025 SCT035 BKN050 16/11 Q1016

YSSY Flight Activity (Flightaware)

Listeners: 0 out of 1424 total

Sydney Tower (Rwy 16L/34R): 124.700

YSSY Tower (Rwys 16R/34L,7/25) (Archives)
Sydney, New South Wales, Australia

Feed Status: UP
Listen in your browser - HTML5 player(in browser, HTML5)
Click here to listen with your own player(launches your MP3 player)

YSSY 241600Z 05005KT 9999 FEW025 SCT035 BKN050 16/11 Q1016

YSSY Flight Activity (Flightaware)

Listeners: 1 out of 1424 total

Sydney Tower (Rwy 16R/34L, Rwy 07/25): 120.500

YSSY/YMMB/YBBN Centers (Archives)
Sydney, New South Wales, Australia

Feed Status: UP
Listen in your browser - HTML5 player(in browser, HTML5)
Click here to listen with your own player(launches your MP3 player)


Listeners: 3 out of 1424 total

Brisbane Center: 123.400
Brisbane Center: 128.600
Melbourne Center: 133.500
Melbourne Center: 118.500
Sydney Departures: 118.400

YWBN CTAF/Center (Archives)
Wedderburn, New South Wales, Australia

Feed Status: UP
Listen in your browser - HTML5 player(in browser, HTML5)
Click here to listen with your own player(launches your MP3 player)

YWBN Flight Activity (Flightaware)

Listeners: 0 out of 1424 total

Sydney Center: 124.550
Wedderburn CTAF/Multicom: 122.550

ZBAA Tower (Archives)
Beijing, China

Feed Status: UP
Listen in your browser - HTML5 player(in browser, HTML5)
Click here to listen with your own player(launches your MP3 player)

ZBAA 241600Z 00000MPS 6000 NSC 06/05 Q1023 NOSIG


Listeners: 5 out of 1424 total

Beijing Tower (Rwy 01/19): 118.600